<?xml version='1.0' encoding='UTF-8'?><gpx version="1.1" creator="JPX - https://github.com/jenetics/jpx" xmlns="http://www.topografix.com/GPX/1/1"><trk><trkseg><trkpt lat="48.013676570615516" lon="7.0733964154346465"><ele>477.0</ele><time>2026-04-17T08:12:23Z</time></trkpt><trkpt lat="48.013582196979165" lon="7.073374302238923"><ele>477.0</ele><time>2026-04-17T08:12:26Z</time></trkpt><trkpt lat="48.01351204937669" lon="7.073358058962951"><ele>477.0</ele><time>2026-04-17T08:12:28Z</time></trkpt><trkpt lat="48.013443177456296" lon="7.07333345438181"><ele>477.0</ele><time>2026-04-17T08:12:30Z</time></trkpt><trkpt lat="48.013376256421054" lon="7.07330683933794"><ele>477.0</ele><time>2026-04-17T08:12:32Z</time></trkpt><trkpt lat="48.013286583753455" lon="7.0732845202576895"><ele>477.0</ele><time>2026-04-17T08:12:35Z</time></trkpt><trkpt lat="48.01320524515322" lon="7.073263103100761"><ele>477.5</ele><time>2026-04-17T08:12:38Z</time></trkpt><trkpt lat="48.01314568250396" lon="7.073203832788304"><ele>478.0</ele><time>2026-04-17T08:12:41Z</time></trkpt><trkpt lat="48.01307418447676" lon="7.073164936985072"><ele>478.5</ele><time>2026-04-17T08:12:45Z</time></trkpt><trkpt lat="48.01304325364211" lon="7.073075325936026"><ele>479.0</ele><time>2026-04-17T08:12:48Z</time></trkpt><trkpt lat="48.01298979426163" lon="7.073005422147127"><ele>479.5</ele><time>2026-04-17T08:12:51Z</time></trkpt><trkpt lat="48.012910476743826" lon="7.0730265232079965"><ele>480.0</ele><time>2026-04-17T08:12:54Z</time></trkpt><trkpt lat="48.012803939706764" lon="7.073007351288773"><ele>480.0</ele><time>2026-04-17T08:12:58Z</time></trkpt><trkpt lat="48.01274657423295" lon="7.0730982477369615"><ele>480.0</ele><time>2026-04-17T08:13:01Z</time></trkpt><trkpt lat="48.012693316537906" lon="7.073155963240353"><ele>480.0</ele><time>2026-04-17T08:13:04Z</time></trkpt><trkpt lat="48.012624025784454" lon="7.073220127206577"><ele>480.0</ele><time>2026-04-17T08:13:42Z</time></trkpt><trkpt lat="48.01260374354988" lon="7.073129115221548"><ele>480.0</ele><time>2026-04-17T08:13:48Z</time></trkpt><trkpt lat="48.01263729623789" lon="7.073012779031903"><ele>480.0</ele><time>2026-04-17T08:14:03Z</time></trkpt><trkpt lat="48.01271287768948" lon="7.072929339237816"><ele>480.0</ele><time>2026-04-17T08:14:06Z</time></trkpt><trkpt lat="48.0127607573335" lon="7.0728646463987035"><ele>480.0</ele><time>2026-04-17T08:14:08Z</time></trkpt><trkpt lat="48.012831231280906" lon="7.072831013755773"><ele>480.0</ele><time>2026-04-17T08:14:10Z</time></trkpt><trkpt lat="48.01290609774619" lon="7.072884451464345"><ele>480.0</ele><time>2026-04-17T08:14:12Z</time></trkpt><trkpt lat="48.012988723698804" lon="7.072906987642398"><ele>480.0</ele><time>2026-04-17T08:14:14Z</time></trkpt><trkpt lat="48.013076700393746" lon="7.07293811413385"><ele>480.0</ele><time>2026-04-17T08:14:16Z</time></trkpt><trkpt lat="48.01316094163916" lon="7.072969662510721"><ele>480.0</ele><time>2026-04-17T08:14:18Z</time></trkpt><trkpt lat="48.01323925346074" lon="7.073000965903351"><ele>480.0</ele><time>2026-04-17T08:14:20Z</time></trkpt><trkpt lat="48.0133241265689" lon="7.073006420821473"><ele>480.0</ele><time>2026-04-17T08:14:22Z</time></trkpt><trkpt lat="48.01340867531074" lon="7.072965540964086"><ele>480.0</ele><time>2026-04-17T08:14:24Z</time></trkpt><trkpt lat="48.01347538794627" lon="7.072866270959301"><ele>480.0</ele><time>2026-04-17T08:14:26Z</time></trkpt><trkpt lat="48.013498051762234" lon="7.072718038348492"><ele>479.8</ele><time>2026-04-17T08:14:28Z</time></trkpt><trkpt lat="48.01348674724445" lon="7.072566723223284"><ele>479.6</ele><time>2026-04-17T08:14:30Z</time></trkpt><trkpt lat="48.013466100151724" lon="7.07242055799842"><ele>479.4</ele><time>2026-04-17T08:14:32Z</time></trkpt><trkpt lat="48.01345443801196" lon="7.07228388644634"><ele>479.2</ele><time>2026-04-17T08:14:34Z</time></trkpt><trkpt lat="48.01344249571935" lon="7.072156376296213"><ele>479.0</ele><time>2026-04-17T08:14:36Z</time></trkpt><trkpt lat="48.01343503554616" lon="7.072037077219137"><ele>479.0</ele><time>2026-04-17T08:14:38Z</time></trkpt><trkpt lat="48.01343676095958" lon="7.071928541697073"><ele>479.0</ele><time>2026-04-17T08:14:40Z</time></trkpt><trkpt lat="48.01343575035825" lon="7.0718227560497064"><ele>479.0</ele><time>2026-04-17T08:14:42Z</time></trkpt><trkpt lat="48.01343080701661" lon="7.071722783737706"><ele>479.0</ele><time>2026-04-17T08:14:44Z</time></trkpt><trkpt lat="48.013436236700464" lon="7.071604999516524"><ele>479.0</ele><time>2026-04-17T08:14:47Z</time></trkpt><trkpt lat="48.013425275580545" lon="7.071503436032347"><ele>479.0</ele><time>2026-04-17T08:15:06Z</time></trkpt><trkpt lat="48.013509486685734" lon="7.071484757485726"><ele>479.0</ele><time>2026-04-17T08:15:10Z</time></trkpt><trkpt lat="48.01357448914726" lon="7.071491046323323"><ele>479.1428571428571</ele><time>2026-04-17T08:15:12Z</time></trkpt><trkpt lat="48.013652935430095" lon="7.071486971912505"><ele>479.28571428571433</ele><time>2026-04-17T08:15:14Z</time></trkpt><trkpt lat="48.01372562062561" lon="7.071492166169336"><ele>479.42857142857144</ele><time>2026-04-17T08:15:16Z</time></trkpt><trkpt lat="48.013801183576355" lon="7.07148782533746"><ele>479.57142857142856</ele><time>2026-04-17T08:15:18Z</time></trkpt><trkpt lat="48.01387047692564" lon="7.071490415903813"><ele>479.71428571428567</ele><time>2026-04-17T08:15:20Z</time></trkpt><trkpt lat="48.01394885196335" lon="7.071461359817485"><ele>479.8571428571429</ele><time>2026-04-17T08:15:23Z</time></trkpt><trkpt lat="48.01395426118206" lon="7.071361185531478"><ele>480.0</ele><time>2026-04-17T08:15:25Z</time></trkpt><trkpt lat="48.01398837911314" lon="7.0712307828182945"><ele>480.0</ele><time>2026-04-17T08:15:28Z</time></trkpt><trkpt lat="48.01399388363543" lon="7.071136483046731"><ele>480.0</ele><time>2026-04-17T08:15:30Z</time></trkpt><trkpt lat="48.014015353002286" lon="7.071045304181089"><ele>480.0</ele><time>2026-04-17T08:15:32Z</time></trkpt><trkpt lat="48.01406052168092" lon="7.0709288711442815"><ele>480.0</ele><time>2026-04-17T08:15:35Z</time></trkpt><trkpt lat="48.01408558679276" lon="7.070816978211114"><ele>480.0</ele><time>2026-04-17T08:15:38Z</time></trkpt><trkpt lat="48.0141002782261" lon="7.070717122815794"><ele>480.0</ele><time>2026-04-17T08:15:41Z</time></trkpt><trkpt lat="48.0141151698177" lon="7.07060925963116"><ele>480.0</ele><time>2026-04-17T08:15:45Z</time></trkpt><trkpt lat="48.014133313291055" lon="7.070507975404726"><ele>480.42857142857144</ele><time>2026-04-17T08:15:49Z</time></trkpt><trkpt lat="48.014168699648444" lon="7.070424510467064"><ele>480.85714285714283</ele><time>2026-04-17T08:15:52Z</time></trkpt><trkpt lat="48.01417961376757" lon="7.070328112556836"><ele>481.2857142857143</ele><time>2026-04-17T08:15:54Z</time></trkpt><trkpt lat="48.01421323345865" lon="7.070233966876195"><ele>481.7142857142857</ele><time>2026-04-17T08:15:57Z</time></trkpt><trkpt lat="48.014250938327656" lon="7.070122938365616"><ele>482.1428571428571</ele><time>2026-04-17T08:16:00Z</time></trkpt><trkpt lat="48.01426089853738" lon="7.070024972711694"><ele>482.57142857142856</ele><time>2026-04-17T08:16:02Z</time></trkpt><trkpt lat="48.014278055235735" lon="7.069909756130013"><ele>483.0</ele><time>2026-04-17T08:16:05Z</time></trkpt><trkpt lat="48.01430022126353" lon="7.069801060173619"><ele>483.0</ele><time>2026-04-17T08:16:08Z</time></trkpt><trkpt lat="48.01432574998773" lon="7.0696948793784395"><ele>483.0</ele><time>2026-04-17T08:16:10Z</time></trkpt><trkpt lat="48.01436250514748" lon="7.0695879053793"><ele>483.0</ele><time>2026-04-17T08:16:13Z</time></trkpt><trkpt lat="48.01438093182506" lon="7.069463565715396"><ele>483.0</ele><time>2026-04-17T08:16:16Z</time></trkpt><trkpt lat="48.01437919889653" lon="7.0692966394608385"><ele>483.0</ele><time>2026-04-17T08:16:19Z</time></trkpt><trkpt lat="48.01441226418783" lon="7.069188950761784"><ele>483.0</ele><time>2026-04-17T08:16:21Z</time></trkpt><trkpt lat="48.01442221909376" lon="7.069060204677526"><ele>482.8333333333333</ele><time>2026-04-17T08:16:23Z</time></trkpt><trkpt lat="48.014453135216044" lon="7.068962111061759"><ele>482.66666666666663</ele><time>2026-04-17T08:16:25Z</time></trkpt><trkpt lat="48.01446159480167" lon="7.068803491656747"><ele>482.5</ele><time>2026-04-17T08:16:27Z</time></trkpt><trkpt lat="48.01448456849996" lon="7.068650588751289"><ele>482.3333333333333</ele><time>2026-04-17T08:16:29Z</time></trkpt><trkpt lat="48.01449066948793" lon="7.06853720565808"><ele>482.16666666666663</ele><time>2026-04-17T08:16:30Z</time></trkpt><trkpt lat="48.01449131780937" lon="7.068437224012147"><ele>482.0</ele><time>2026-04-17T08:16:31Z</time></trkpt><trkpt lat="48.014484764593696" lon="7.068332722433262"><ele>481.8</ele><time>2026-04-17T08:16:32Z</time></trkpt><trkpt lat="48.01448188550332" lon="7.068238147848197"><ele>481.6</ele><time>2026-04-17T08:16:33Z</time></trkpt><trkpt lat="48.014483573954585" lon="7.06813697616352"><ele>481.40000000000003</ele><time>2026-04-17T08:16:34Z</time></trkpt><trkpt lat="48.01447568496863" lon="7.067920634817796"><ele>481.20000000000005</ele><time>2026-04-17T08:16:36Z</time></trkpt><trkpt lat="48.014493089856266" lon="7.067744144943465"><ele>481.0</ele><time>2026-04-17T08:16:38Z</time></trkpt><trkpt lat="48.014515434187885" lon="7.067573647221125"><ele>481.00000000000006</ele><time>2026-04-17T08:16:40Z</time></trkpt><trkpt lat="48.014535024871634" lon="7.067478738509966"><ele>481.0</ele><time>2026-04-17T08:16:41Z</time></trkpt><trkpt lat="48.01455992563995" lon="7.0673729644450365"><ele>481.0</ele><time>2026-04-17T08:16:42Z</time></trkpt><trkpt lat="48.01459313106159" lon="7.067202530473833"><ele>481.0</ele><time>2026-04-17T08:16:44Z</time></trkpt><trkpt lat="48.01462543159077" lon="7.0671060582862335"><ele>481.00000000000006</ele><time>2026-04-17T08:16:45Z</time></trkpt><trkpt lat="48.014631990053054" lon="7.066942603504652"><ele>481.0</ele><time>2026-04-17T08:16:47Z</time></trkpt><trkpt lat="48.01463163491966" lon="7.066763678837228"><ele>481.5</ele><time>2026-04-17T08:16:49Z</time></trkpt><trkpt lat="48.014638787975244" lon="7.066597358477823"><ele>482.0</ele><time>2026-04-17T08:16:51Z</time></trkpt><trkpt lat="48.01464581030533" lon="7.066421333511918"><ele>482.5</ele><time>2026-04-17T08:16:53Z</time></trkpt><trkpt lat="48.01465615458848" lon="7.0662519863789655"><ele>483.0</ele><time>2026-04-17T08:16:55Z</time></trkpt><trkpt lat="48.01465299405476" lon="7.066079994431703"><ele>483.0</ele><time>2026-04-17T08:16:57Z</time></trkpt><trkpt lat="48.01465100426632" lon="7.065920641658612"><ele>482.99999999999994</ele><time>2026-04-17T08:16:59Z</time></trkpt><trkpt lat="48.01463246212215" lon="7.0657822700843775"><ele>482.99999999999994</ele><time>2026-04-17T08:17:01Z</time></trkpt><trkpt lat="48.01461902855412" lon="7.065633747089939"><ele>483.0</ele><time>2026-04-17T08:17:03Z</time></trkpt><trkpt lat="48.014586824814955" lon="7.065506556661711"><ele>483.0</ele><time>2026-04-17T08:17:05Z</time></trkpt><trkpt lat="48.014561933251244" lon="7.065399747111549"><ele>483.1666666666667</ele><time>2026-04-17T08:17:07Z</time></trkpt><trkpt lat="48.01453874062681" lon="7.065272400111149"><ele>483.33333333333337</ele><time>2026-04-17T08:17:09Z</time></trkpt><trkpt lat="48.0145237251253" lon="7.065155783582275"><ele>483.5</ele><time>2026-04-17T08:17:11Z</time></trkpt><trkpt lat="48.01451091212862" lon="7.0650440420187515"><ele>483.6666666666667</ele><time>2026-04-17T08:17:13Z</time></trkpt><trkpt lat="48.01450035350612" lon="7.0649448697709225"><ele>483.83333333333337</ele><time>2026-04-17T08:17:15Z</time></trkpt><trkpt lat="48.014487961875275" lon="7.0648368850935634"><ele>484.0</ele><time>2026-04-17T08:17:17Z</time></trkpt><trkpt lat="48.014466053083325" lon="7.064729322212778"><ele>484.50000000000006</ele><time>2026-04-17T08:17:19Z</time></trkpt><trkpt lat="48.01444802196853" lon="7.064602954548002"><ele>485.0</ele><time>2026-04-17T08:17:21Z</time></trkpt><trkpt lat="48.01442414566076" lon="7.064507538081718"><ele>485.5</ele><time>2026-04-17T08:17:23Z</time></trkpt><trkpt lat="48.014408037375816" lon="7.064377114386824"><ele>486.0</ele><time>2026-04-17T08:17:25Z</time></trkpt><trkpt lat="48.01438105432673" lon="7.0642387443339105"><ele>486.50000000000006</ele><time>2026-04-17T08:17:28Z</time></trkpt><trkpt lat="48.01434581463502" lon="7.064143951425619"><ele>487.0</ele><time>2026-04-17T08:17:30Z</time></trkpt><trkpt lat="48.014343607653295" lon="7.064045816876874"><ele>487.33333333333337</ele><time>2026-04-17T08:17:33Z</time></trkpt><trkpt lat="48.01430731650576" lon="7.063953212396448"><ele>487.6666666666667</ele><time>2026-04-17T08:17:36Z</time></trkpt><trkpt lat="48.01429206835659" lon="7.063843782396859"><ele>488.0</ele><time>2026-04-17T08:17:41Z</time></trkpt><trkpt lat="48.01422731086194" lon="7.063793991369417"><ele>488.33333333333337</ele><time>2026-04-17T08:17:58Z</time></trkpt><trkpt lat="48.01421613646134" lon="7.063671620402879"><ele>488.6666666666667</ele><time>2026-04-17T08:18:01Z</time></trkpt><trkpt lat="48.01418852373105" lon="7.063555274452463"><ele>489.0</ele><time>2026-04-17T08:18:04Z</time></trkpt><trkpt lat="48.01415860382951" lon="7.063441413085853"><ele>488.6666666666667</ele><time>2026-04-17T08:18:06Z</time></trkpt><trkpt lat="48.01414002386498" lon="7.063350236682602"><ele>488.33333333333337</ele><time>2026-04-17T08:18:08Z</time></trkpt><trkpt lat="48.01411007436771" lon="7.063245470249277"><ele>488.0</ele><time>2026-04-17T08:18:10Z</time></trkpt><trkpt lat="48.014093598935666" lon="7.063123141968561"><ele>487.6666666666667</ele><time>2026-04-17T08:18:14Z</time></trkpt><trkpt lat="48.01402422723595" lon="7.063058534879504"><ele>487.33333333333337</ele><time>2026-04-17T08:18:16Z</time></trkpt><trkpt lat="48.01397186070317" lon="7.062968333265527"><ele>487.0</ele><time>2026-04-17T08:18:19Z</time></trkpt><trkpt lat="48.013952411945006" lon="7.062875315178273"><ele>487.00000000000006</ele><time>2026-04-17T08:18:21Z</time></trkpt><trkpt lat="48.01388180796613" lon="7.0628263522828485"><ele>487.0</ele><time>2026-04-17T08:18:23Z</time></trkpt><trkpt lat="48.01387287151582" lon="7.062726287917414"><ele>487.0</ele><time>2026-04-17T08:18:25Z</time></trkpt><trkpt lat="48.013759793463194" lon="7.062692150233669"><ele>487.0</ele><time>2026-04-17T08:18:27Z</time></trkpt><trkpt lat="48.013701140259926" lon="7.062633378696391"><ele>487.00000000000006</ele><time>2026-04-17T08:18:29Z</time></trkpt><trkpt lat="48.01367328319065" lon="7.062507705346637"><ele>487.0</ele><time>2026-04-17T08:18:31Z</time></trkpt><trkpt lat="48.01366372746431" lon="7.062407328133536"><ele>487.1666666666667</ele><time>2026-04-17T08:18:33Z</time></trkpt><trkpt lat="48.01359200669979" lon="7.062379249733412"><ele>487.33333333333337</ele><time>2026-04-17T08:18:35Z</time></trkpt><trkpt lat="48.01354330887405" lon="7.062306123212762"><ele>487.5</ele><time>2026-04-17T08:18:37Z</time></trkpt><trkpt lat="48.01351391777757" lon="7.062210951354335"><ele>487.66666666666663</ele><time>2026-04-17T08:18:39Z</time></trkpt><trkpt lat="48.01350098155767" lon="7.062106931943712"><ele>487.8333333333333</ele><time>2026-04-17T08:18:42Z</time></trkpt><trkpt lat="48.01350210819089" lon="7.061943276414215"><ele>488.0</ele><time>2026-04-17T08:18:45Z</time></trkpt><trkpt lat="48.01352159010068" lon="7.061847571246264"><ele>488.0</ele><time>2026-04-17T08:18:46Z</time></trkpt><trkpt lat="48.01352596752799" lon="7.061733022642841"><ele>488.0</ele><time>2026-04-17T08:18:47Z</time></trkpt><trkpt lat="48.013552163002075" lon="7.061575956321095"><ele>488.0</ele><time>2026-04-17T08:18:49Z</time></trkpt><trkpt lat="48.01348163844224" lon="7.061200631086655"><ele>488.0</ele><time>2026-04-17T08:18:50Z</time></trkpt><trkpt lat="48.01347583748081" lon="7.061018963301964"><ele>488.16666666666663</ele><time>2026-04-17T08:18:51Z</time></trkpt><trkpt lat="48.01342438750143" lon="7.060895887771028"><ele>488.3333333333333</ele><time>2026-04-17T08:18:52Z</time></trkpt><trkpt lat="48.013441896619284" lon="7.060736315878356"><ele>488.5</ele><time>2026-04-17T08:18:54Z</time></trkpt><trkpt lat="48.01344139419912" lon="7.060620882635351"><ele>488.66666666666663</ele><time>2026-04-17T08:18:56Z</time></trkpt><trkpt lat="48.01344779743851" lon="7.060494873538877"><ele>488.8333333333333</ele><time>2026-04-17T08:18:58Z</time></trkpt><trkpt lat="48.01342064561306" lon="7.060403641002819"><ele>489.0</ele><time>2026-04-17T08:18:59Z</time></trkpt><trkpt lat="48.01339064098751" lon="7.060231462077315"><ele>489.0</ele><time>2026-04-17T08:19:01Z</time></trkpt><trkpt lat="48.01334745438317" lon="7.0600703413182675"><ele>489.0</ele><time>2026-04-17T08:19:03Z</time></trkpt><trkpt lat="48.01332220663894" lon="7.059918611584876"><ele>489.0</ele><time>2026-04-17T08:19:05Z</time></trkpt><trkpt lat="48.01331064587082" lon="7.059776604605436"><ele>489.0</ele><time>2026-04-17T08:19:07Z</time></trkpt><trkpt lat="48.01331454903945" lon="7.0596278423441285"><ele>489.0</ele><time>2026-04-17T08:19:09Z</time></trkpt><trkpt lat="48.013329528063636" lon="7.059479936399171"><ele>488.8333333333333</ele><time>2026-04-17T08:19:11Z</time></trkpt><trkpt lat="48.01335525620789" lon="7.059386141526347"><ele>488.66666666666663</ele><time>2026-04-17T08:19:15Z</time></trkpt><trkpt lat="48.013387223122564" lon="7.059235058371319"><ele>488.5</ele><time>2026-04-17T08:19:17Z</time></trkpt><trkpt lat="48.01344511309185" lon="7.059129055195053"><ele>488.3333333333333</ele><time>2026-04-17T08:19:19Z</time></trkpt><trkpt lat="48.0134770176004" lon="7.05902888729385"><ele>488.16666666666663</ele><time>2026-04-17T08:19:21Z</time></trkpt><trkpt lat="48.01353223865661" lon="7.058902685625946"><ele>488.0</ele><time>2026-04-17T08:19:23Z</time></trkpt><trkpt lat="48.013590343555805" lon="7.058765505164801"><ele>488.3333333333333</ele><time>2026-04-17T08:19:25Z</time></trkpt><trkpt lat="48.013638223742255" lon="7.058671228333735"><ele>488.66666666666663</ele><time>2026-04-17T08:19:27Z</time></trkpt><trkpt lat="48.013684353408934" lon="7.05853563509411"><ele>489.0</ele><time>2026-04-17T08:19:29Z</time></trkpt><trkpt lat="48.013695983549596" lon="7.058415654412371"><ele>489.33333333333337</ele><time>2026-04-17T08:19:32Z</time></trkpt><trkpt lat="48.01370038558894" lon="7.058291302058991"><ele>489.6666666666667</ele><time>2026-04-17T08:19:35Z</time></trkpt><trkpt lat="48.01368501309982" lon="7.058166263429962"><ele>490.0</ele><time>2026-04-17T08:19:39Z</time></trkpt><trkpt lat="48.01369755877511" lon="7.05807002977145"><ele>490.42857142857144</ele><time>2026-04-17T08:19:41Z</time></trkpt><trkpt lat="48.01367343465328" lon="7.057957061797913"><ele>490.8571428571429</ele><time>2026-04-17T08:19:44Z</time></trkpt><trkpt lat="48.01366899556906" lon="7.0578465261951155"><ele>491.2857142857143</ele><time>2026-04-17T08:19:47Z</time></trkpt><trkpt lat="48.0136350967954" lon="7.05774192083023"><ele>491.7142857142857</ele><time>2026-04-17T08:19:50Z</time></trkpt><trkpt lat="48.013592435299906" lon="7.057659367236758"><ele>492.14285714285717</ele><time>2026-04-17T08:19:53Z</time></trkpt><trkpt lat="48.01355936147119" lon="7.057577103631497"><ele>492.57142857142856</ele><time>2026-04-17T08:19:55Z</time></trkpt><trkpt lat="48.013513051927866" lon="7.05747671934814"><ele>493.0</ele><time>2026-04-17T08:19:57Z</time></trkpt><trkpt lat="48.01346227840212" lon="7.057326684879154"><ele>493.79999999999995</ele><time>2026-04-17T08:19:59Z</time></trkpt><trkpt lat="48.01341118696934" lon="7.057231342464729"><ele>494.59999999999997</ele><time>2026-04-17T08:20:01Z</time></trkpt><trkpt lat="48.01336228967598" lon="7.057121301755183"><ele>495.40000000000003</ele><time>2026-04-17T08:20:03Z</time></trkpt><trkpt lat="48.013314470489306" lon="7.057012251921827"><ele>496.20000000000005</ele><time>2026-04-17T08:20:05Z</time></trkpt><trkpt lat="48.01327506245881" lon="7.056899792325648"><ele>497.0</ele><time>2026-04-17T08:20:07Z</time></trkpt><trkpt lat="48.01318891200924" lon="7.056774197147709"><ele>496.16666666666663</ele><time>2026-04-17T08:20:09Z</time></trkpt><trkpt lat="48.01312831360869" lon="7.0566873446209994"><ele>495.3333333333333</ele><time>2026-04-17T08:20:11Z</time></trkpt><trkpt lat="48.0130790441488" lon="7.056559679679044"><ele>494.5</ele><time>2026-04-17T08:20:13Z</time></trkpt><trkpt lat="48.013030423978854" lon="7.056457831256219"><ele>493.66666666666663</ele><time>2026-04-17T08:20:15Z</time></trkpt><trkpt lat="48.01299053757231" lon="7.056361020616113"><ele>492.8333333333333</ele><time>2026-04-17T08:20:17Z</time></trkpt><trkpt lat="48.01294175585553" lon="7.056251815419587"><ele>492.0</ele><time>2026-04-17T08:20:19Z</time></trkpt><trkpt lat="48.012900382271866" lon="7.056139862469082"><ele>492.0</ele><time>2026-04-17T08:20:21Z</time></trkpt><trkpt lat="48.01285522114673" lon="7.056038538928688"><ele>492.0</ele><time>2026-04-17T08:20:23Z</time></trkpt><trkpt lat="48.01280882376505" lon="7.055936213533866"><ele>492.0</ele><time>2026-04-17T08:20:25Z</time></trkpt><trkpt lat="48.01276479293594" lon="7.05584935967232"><ele>492.0</ele><time>2026-04-17T08:20:27Z</time></trkpt><trkpt lat="48.012723133721494" lon="7.055762834332476"><ele>492.0</ele><time>2026-04-17T08:20:29Z</time></trkpt><trkpt lat="48.0126780078482" lon="7.05565389867915"><ele>492.0</ele><time>2026-04-17T08:20:32Z</time></trkpt><trkpt lat="48.012621342854146" lon="7.055575717371717"><ele>491.8333333333333</ele><time>2026-04-17T08:20:35Z</time></trkpt><trkpt lat="48.01256908176286" lon="7.055498787743531"><ele>491.66666666666663</ele><time>2026-04-17T08:20:37Z</time></trkpt><trkpt lat="48.012516484473856" lon="7.0554108510015565"><ele>491.5</ele><time>2026-04-17T08:20:39Z</time></trkpt><trkpt lat="48.01243976661914" lon="7.055275378221834"><ele>491.3333333333333</ele><time>2026-04-17T08:20:41Z</time></trkpt><trkpt lat="48.01238749339005" lon="7.05519291505431"><ele>491.16666666666663</ele><time>2026-04-17T08:20:43Z</time></trkpt><trkpt lat="48.01232850107261" lon="7.055105618936938"><ele>491.0</ele><time>2026-04-17T08:20:46Z</time></trkpt><trkpt lat="48.01226092165546" lon="7.055004662012968"><ele>491.8333333333333</ele><time>2026-04-17T08:20:49Z</time></trkpt><trkpt lat="48.01221236701823" lon="7.054898552869507"><ele>492.66666666666663</ele><time>2026-04-17T08:20:51Z</time></trkpt><trkpt lat="48.01215301604078" lon="7.054819864364675"><ele>493.5</ele><time>2026-04-17T08:20:53Z</time></trkpt><trkpt lat="48.01208147910008" lon="7.054720928703823"><ele>494.33333333333337</ele><time>2026-04-17T08:20:56Z</time></trkpt><trkpt lat="48.0120031510529" lon="7.054611225436046"><ele>495.1666666666667</ele><time>2026-04-17T08:20:59Z</time></trkpt><trkpt lat="48.01195397688959" lon="7.05453885900861"><ele>496.0</ele><time>2026-04-17T08:21:00Z</time></trkpt><trkpt lat="48.011894015709174" lon="7.054422210034566"><ele>496.00000000000006</ele><time>2026-04-17T08:21:02Z</time></trkpt><trkpt lat="48.01182295205492" lon="7.054318490166183"><ele>496.0</ele><time>2026-04-17T08:21:04Z</time></trkpt><trkpt lat="48.01175318545475" lon="7.0542187527681595"><ele>496.0</ele><time>2026-04-17T08:21:06Z</time></trkpt><trkpt lat="48.01168492412099" lon="7.054155660165393"><ele>496.0</ele><time>2026-04-17T08:21:08Z</time></trkpt><trkpt lat="48.01161249009211" lon="7.054099063019113"><ele>496.00000000000006</ele><time>2026-04-17T08:21:10Z</time></trkpt><trkpt lat="48.011539363899814" lon="7.054029018554561"><ele>496.0</ele><time>2026-04-17T08:21:12Z</time></trkpt><trkpt lat="48.01147593974875" lon="7.0539714964249844"><ele>495.83333333333337</ele><time>2026-04-17T08:21:14Z</time></trkpt><trkpt lat="48.011441347055516" lon="7.053881461209663"><ele>495.6666666666667</ele><time>2026-04-17T08:21:18Z</time></trkpt><trkpt lat="48.01138695201102" lon="7.053831535933418"><ele>495.5</ele><time>2026-04-17T08:21:32Z</time></trkpt><trkpt lat="48.0113250312049" lon="7.053743760890832"><ele>495.33333333333337</ele><time>2026-04-17T08:21:35Z</time></trkpt><trkpt lat="48.01126130328849" lon="7.053645653065507"><ele>495.1666666666667</ele><time>2026-04-17T08:21:38Z</time></trkpt><trkpt lat="48.011237096677846" lon="7.053552420905331"><ele>495.0</ele><time>2026-04-17T08:21:41Z</time></trkpt><trkpt lat="48.01118682112667" lon="7.053458527737351"><ele>495.0</ele><time>2026-04-17T08:21:46Z</time></trkpt><trkpt lat="48.011148001792726" lon="7.05334631213514"><ele>495.0</ele><time>2026-04-17T08:22:21Z</time></trkpt><trkpt lat="48.011117075815775" lon="7.053214563011067"><ele>495.0</ele><time>2026-04-17T08:22:25Z</time></trkpt><trkpt lat="48.01107173470944" lon="7.053109727457094"><ele>495.0</ele><time>2026-04-17T08:22:28Z</time></trkpt><trkpt lat="48.011035490996356" lon="7.052969735977402"><ele>495.0</ele><time>2026-04-17T08:22:31Z</time></trkpt><trkpt lat="48.011007880759415" lon="7.052867773019874"><ele>495.0</ele><time>2026-04-17T08:22:34Z</time></trkpt><trkpt lat="48.01098165457866" lon="7.052767218363238"><ele>496.1428571428571</ele><time>2026-04-17T08:22:38Z</time></trkpt><trkpt lat="48.01094914630214" lon="7.052679770938608"><ele>497.2857142857143</ele><time>2026-04-17T08:22:41Z</time></trkpt><trkpt lat="48.01090454970546" lon="7.052574154329886"><ele>498.42857142857144</ele><time>2026-04-17T08:22:45Z</time></trkpt><trkpt lat="48.01087602486375" lon="7.0524813126944625"><ele>499.57142857142856</ele><time>2026-04-17T08:22:48Z</time></trkpt><trkpt lat="48.01087063370086" lon="7.05237987144945"><ele>500.7142857142858</ele><time>2026-04-17T08:22:51Z</time></trkpt><trkpt lat="48.01088575474709" lon="7.052273420793876"><ele>501.8571428571429</ele><time>2026-04-17T08:22:54Z</time></trkpt><trkpt lat="48.01089538084119" lon="7.052165726838599"><ele>503.0</ele><time>2026-04-17T08:23:00Z</time></trkpt><trkpt lat="48.01091363266632" lon="7.052059414139281"><ele>502.42857142857144</ele><time>2026-04-17T08:23:05Z</time></trkpt><trkpt lat="48.01092651372754" lon="7.051962104111899"><ele>501.8571428571429</ele><time>2026-04-17T08:23:09Z</time></trkpt><trkpt lat="48.010923888890765" lon="7.051856160313493"><ele>501.28571428571433</ele><time>2026-04-17T08:23:14Z</time></trkpt><trkpt lat="48.01088897936369" lon="7.051775596157323"><ele>500.7142857142858</ele><time>2026-04-17T08:23:19Z</time></trkpt><trkpt lat="48.01085797160533" lon="7.0516745259686395"><ele>500.14285714285717</ele><time>2026-04-17T08:23:22Z</time></trkpt><trkpt lat="48.01084418007061" lon="7.051582393522375"><ele>499.57142857142867</ele><time>2026-04-17T08:23:27Z</time></trkpt><trkpt lat="48.01083046588947" lon="7.051473673076674"><ele>499.00000000000006</ele><time>2026-04-17T08:23:33Z</time></trkpt><trkpt lat="48.01081739695724" lon="7.051370067906108"><ele>499.00000000000006</ele><time>2026-04-17T08:23:38Z</time></trkpt><trkpt lat="48.01080519966165" lon="7.051273372707066"><ele>499.0</ele><time>2026-04-17T08:23:42Z</time></trkpt><trkpt lat="48.01079320058644" lon="7.051180561553055"><ele>499.00000000000006</ele><time>2026-04-17T08:23:48Z</time></trkpt><trkpt lat="48.01077976384374" lon="7.051080776370629"><ele>499.00000000000006</ele><time>2026-04-17T08:24:35Z</time></trkpt><trkpt lat="48.010765886600375" lon="7.050983052098174"><ele>499.0</ele><time>2026-04-17T08:24:42Z</time></trkpt><trkpt lat="48.01074940621724" lon="7.0508735643644345"><ele>499.00000000000006</ele><time>2026-04-17T08:24:47Z</time></trkpt><trkpt lat="48.01073182823064" lon="7.05077830833423"><ele>499.00000000000006</ele><time>2026-04-17T08:24:51Z</time></trkpt><trkpt lat="48.010709763558665" lon="7.050670548766346"><ele>500.00000000000006</ele><time>2026-04-17T08:24:55Z</time></trkpt><trkpt lat="48.01069386664125" lon="7.0505685813943275"><ele>501.0</ele><time>2026-04-17T08:24:59Z</time></trkpt><trkpt lat="48.01067082986498" lon="7.050440294367171"><ele>502.0</ele><time>2026-04-17T08:25:07Z</time></trkpt><trkpt lat="48.010653583256214" lon="7.0503318386434914"><ele>503.0</ele><time>2026-04-17T08:25:11Z</time></trkpt><trkpt lat="48.01063611735848" lon="7.050229613571315"><ele>504.00000000000006</ele><time>2026-04-17T08:25:16Z</time></trkpt><trkpt lat="48.01065094838142" lon="7.050068548638837"><ele>505.0</ele><time>2026-04-17T08:26:17Z</time></trkpt><trkpt lat="48.0106607243325" lon="7.050178233216643"><ele>505.00000000000006</ele><time>2026-04-17T08:26:31Z</time></trkpt><trkpt lat="48.01063586026524" lon="7.050285529863735"><ele>505.0</ele><time>2026-04-17T08:26:56Z</time></trkpt><trkpt lat="48.010632240297426" lon="7.050167641499931"><ele>505.0</ele><time>2026-04-17T08:27:05Z</time></trkpt><trkpt lat="48.01070351123948" lon="7.050162053832164"><ele>505.0</ele><time>2026-04-17T08:27:17Z</time></trkpt><trkpt lat="48.010647585481706" lon="7.050067140369519"><ele>505.00000000000006</ele><time>2026-04-17T08:27:21Z</time></trkpt><trkpt lat="48.010522513582416" lon="7.049978354488346"><ele>505.0</ele><time>2026-04-17T08:27:24Z</time></trkpt><trkpt lat="48.01050352134688" lon="7.049876631687992"><ele>506.83333333333337</ele><time>2026-04-17T08:27:25Z</time></trkpt><trkpt lat="48.010563675409585" lon="7.049758599102826"><ele>508.6666666666667</ele><time>2026-04-17T08:27:27Z</time></trkpt><trkpt lat="48.01057735872986" lon="7.049645328894451"><ele>510.5</ele><time>2026-04-17T08:27:31Z</time></trkpt><trkpt lat="48.010555410936284" lon="7.049545590374313"><ele>512.3333333333334</ele><time>2026-04-17T08:27:34Z</time></trkpt><trkpt lat="48.01054784650815" lon="7.049434502710147"><ele>514.1666666666666</ele><time>2026-04-17T08:27:39Z</time></trkpt><trkpt lat="48.0105375678226" lon="7.049315184588128"><ele>516.0</ele><time>2026-04-17T08:27:44Z</time></trkpt><trkpt lat="48.01053966727159" lon="7.049203562367178"><ele>517.5</ele><time>2026-04-17T08:27:47Z</time></trkpt><trkpt lat="48.010513639342676" lon="7.049076255512146"><ele>519.0</ele><time>2026-04-17T08:27:51Z</time></trkpt><trkpt lat="48.01048406283297" lon="7.048992631673998"><ele>520.5</ele><time>2026-04-17T08:27:53Z</time></trkpt><trkpt lat="48.01045097854291" lon="7.048901200407539"><ele>522.0</ele><time>2026-04-17T08:27:56Z</time></trkpt><trkpt lat="48.01046283509893" lon="7.048732995942917"><ele>523.5</ele><time>2026-04-17T08:27:59Z</time></trkpt><trkpt lat="48.01045021399932" lon="7.048628088800997"><ele>525.0</ele><time>2026-04-17T08:28:03Z</time></trkpt><trkpt lat="48.01046309016121" lon="7.048520035504178"><ele>525.0</ele><time>2026-04-17T08:28:07Z</time></trkpt><trkpt lat="48.01044124888481" lon="7.0484123158538825"><ele>525.0</ele><time>2026-04-17T08:28:11Z</time></trkpt><trkpt lat="48.010427656643536" lon="7.048319888702733"><ele>525.0</ele><time>2026-04-17T08:28:15Z</time></trkpt><trkpt lat="48.0104322373116" lon="7.04821720994812"><ele>525.0</ele><time>2026-04-17T08:28:20Z</time></trkpt><trkpt lat="48.01039667772256" lon="7.048132019934741"><ele>525.0</ele><time>2026-04-17T08:28:24Z</time></trkpt><trkpt lat="48.010386787665226" lon="7.048029186395454"><ele>525.0</ele><time>2026-04-17T08:28:28Z</time></trkpt><trkpt lat="48.01037644922969" lon="7.047923097227699"><ele>525.0</ele><time>2026-04-17T08:28:34Z</time></trkpt><trkpt lat="48.010364852897" lon="7.047825978684735"><ele>525.4285714285714</ele><time>2026-04-17T08:28:39Z</time></trkpt><trkpt lat="48.010346640974355" lon="7.04772898473095"><ele>525.8571428571429</ele><time>2026-04-17T08:28:43Z</time></trkpt><trkpt lat="48.010340987258914" lon="7.047624368227734"><ele>526.2857142857142</ele><time>2026-04-17T08:28:49Z</time></trkpt><trkpt lat="48.0103230255363" lon="7.047521663760627"><ele>526.7142857142858</ele><time>2026-04-17T08:28:53Z</time></trkpt><trkpt lat="48.01031298718151" lon="7.047389133196287"><ele>527.1428571428571</ele><time>2026-04-17T08:28:57Z</time></trkpt><trkpt lat="48.01030016224031" lon="7.047290205068019"><ele>527.5714285714286</ele><time>2026-04-17T08:29:03Z</time></trkpt><trkpt lat="48.01028797705552" lon="7.047196211843234"><ele>528.0</ele><time>2026-04-17T08:29:08Z</time></trkpt><trkpt lat="48.010273419121425" lon="7.0470895442067905"><ele>529.2857142857142</ele><time>2026-04-17T08:29:13Z</time></trkpt><trkpt lat="48.01025153999953" lon="7.04698137065383"><ele>530.5714285714286</ele><time>2026-04-17T08:29:18Z</time></trkpt><trkpt lat="48.010240134412" lon="7.046885298465836"><ele>531.8571428571429</ele><time>2026-04-17T08:29:23Z</time></trkpt><trkpt lat="48.01023084972018" lon="7.04679086214026"><ele>533.1428571428571</ele><time>2026-04-17T08:29:28Z</time></trkpt><trkpt lat="48.01022261290575" lon="7.046684074975338"><ele>534.4285714285714</ele><time>2026-04-17T08:29:34Z</time></trkpt><trkpt lat="48.01021617338088" lon="7.046581534468155"><ele>535.7142857142857</ele><time>2026-04-17T08:29:45Z</time></trkpt><trkpt lat="48.010208851892926" lon="7.046473247257425"><ele>537.0</ele><time>2026-04-17T08:29:50Z</time></trkpt><trkpt lat="48.01020014125879" lon="7.046375580085181"><ele>539.4285714285713</ele><time>2026-04-17T08:29:55Z</time></trkpt><trkpt lat="48.01018818941777" lon="7.046262284978733"><ele>541.8571428571429</ele><time>2026-04-17T08:30:00Z</time></trkpt><trkpt lat="48.010167216990695" lon="7.046166484831524"><ele>544.2857142857142</ele><time>2026-04-17T08:30:05Z</time></trkpt><trkpt lat="48.010145219054515" lon="7.046071053682851"><ele>546.7142857142857</ele><time>2026-04-17T08:30:10Z</time></trkpt><trkpt lat="48.0101198424615" lon="7.045984445438608"><ele>549.1428571428571</ele><time>2026-04-17T08:30:16Z</time></trkpt><trkpt lat="48.0100919498097" lon="7.0458977801913"><ele>551.5714285714286</ele><time>2026-04-17T08:30:19Z</time></trkpt><trkpt lat="48.01005406874284" lon="7.045789729463783"><ele>554.0</ele><time>2026-04-17T08:30:26Z</time></trkpt><trkpt lat="48.01002346534851" lon="7.045702437331938"><ele>551.0</ele><time>2026-04-17T08:30:32Z</time></trkpt><trkpt lat="48.00998229716204" lon="7.045584820023711"><ele>548.0</ele><time>2026-04-17T08:30:40Z</time></trkpt><trkpt lat="48.009950863491895" lon="7.045493233342748"><ele>545.0</ele><time>2026-04-17T08:30:46Z</time></trkpt><trkpt lat="48.00992089863401" lon="7.045395505480998"><ele>542.0</ele><time>2026-04-17T08:30:51Z</time></trkpt><trkpt lat="48.009898565165045" lon="7.045293625565245"><ele>539.0</ele><time>2026-04-17T08:30:56Z</time></trkpt><trkpt lat="48.009876224912965" lon="7.045194058067099"><ele>536.0</ele><time>2026-04-17T08:31:03Z</time></trkpt><trkpt lat="48.009866886487906" lon="7.04509296874809"><ele>533.0</ele><time>2026-04-17T08:31:09Z</time></trkpt><trkpt lat="48.009856086592436" lon="7.044983983574821"><ele>534.0</ele><time>2026-04-17T08:31:12Z</time></trkpt><trkpt lat="48.00985046388677" lon="7.0448900360427595"><ele>535.0</ele><time>2026-04-17T08:31:15Z</time></trkpt><trkpt lat="48.009839383925744" lon="7.044791753177157"><ele>536.0</ele><time>2026-04-17T08:31:21Z</time></trkpt><trkpt lat="48.00983888366626" lon="7.044687897138146"><ele>537.0</ele><time>2026-04-17T08:31:59Z</time></trkpt><trkpt lat="48.00984615440341" lon="7.044568927019128"><ele>538.0</ele><time>2026-04-17T08:32:08Z</time></trkpt><trkpt lat="48.00984298976888" lon="7.044464767619996"><ele>539.0</ele><time>2026-04-17T08:32:14Z</time></trkpt><trkpt lat="48.009841559634275" lon="7.044368828768852"><ele>540.0</ele><time>2026-04-17T08:32:19Z</time></trkpt><trkpt lat="48.00984159510373" lon="7.044269929323851"><ele>540.0</ele><time>2026-04-17T08:32:24Z</time></trkpt><trkpt lat="48.00983552367085" lon="7.044165550431946"><ele>540.0</ele><time>2026-04-17T08:32:30Z</time></trkpt><trkpt lat="48.00983120991543" lon="7.044067295483061"><ele>540.0</ele><time>2026-04-17T08:32:36Z</time></trkpt><trkpt lat="48.00982952777899" lon="7.043971673097829"><ele>540.0</ele><time>2026-04-17T08:32:41Z</time></trkpt><trkpt lat="48.009831259444056" lon="7.04387189458291"><ele>540.0</ele><time>2026-04-17T08:32:47Z</time></trkpt><trkpt lat="48.00983179493675" lon="7.043777250853611"><ele>540.0</ele><time>2026-04-17T08:32:53Z</time></trkpt><trkpt lat="48.009827080072434" lon="7.043662801473017"><ele>540.0</ele><time>2026-04-17T08:32:59Z</time></trkpt><trkpt lat="48.0098239814461" lon="7.043557440751975"><ele>540.8571428571429</ele><time>2026-04-17T08:33:06Z</time></trkpt><trkpt lat="48.00982064011785" lon="7.043444469162981"><ele>541.7142857142857</ele><time>2026-04-17T08:33:12Z</time></trkpt><trkpt lat="48.009821569339124" lon="7.043348080612162"><ele>542.5714285714286</ele><time>2026-04-17T08:33:18Z</time></trkpt><trkpt lat="48.00980319396905" lon="7.043254429448424"><ele>543.4285714285714</ele><time>2026-04-17T08:33:24Z</time></trkpt><trkpt lat="48.00981615950105" lon="7.043139182256493"><ele>544.2857142857142</ele><time>2026-04-17T08:33:27Z</time></trkpt><trkpt lat="48.00982522801906" lon="7.04304260471038"><ele>545.1428571428571</ele><time>2026-04-17T08:33:37Z</time></trkpt><trkpt lat="48.00982398441316" lon="7.0429431130458555"><ele>546.0</ele><time>2026-04-17T08:33:42Z</time></trkpt><trkpt lat="48.00978258710553" lon="7.04286714292395"><ele>545.7142857142857</ele><time>2026-04-17T08:33:46Z</time></trkpt><trkpt lat="48.00978594618244" lon="7.042759466309562"><ele>545.4285714285714</ele><time>2026-04-17T08:33:53Z</time></trkpt><trkpt lat="48.009790753988135" lon="7.042653811946702"><ele>545.1428571428571</ele><time>2026-04-17T08:33:59Z</time></trkpt><trkpt lat="48.009799845482455" lon="7.042556371053753"><ele>544.8571428571429</ele><time>2026-04-17T08:34:04Z</time></trkpt><trkpt lat="48.00981404669805" lon="7.042463044588067"><ele>544.5714285714286</ele><time>2026-04-17T08:34:11Z</time></trkpt><trkpt lat="48.009838193773966" lon="7.042351005302412"><ele>544.2857142857142</ele><time>2026-04-17T08:34:20Z</time></trkpt><trkpt lat="48.00986396109806" lon="7.042253218312936"><ele>544.0</ele><time>2026-04-17T08:34:26Z</time></trkpt><trkpt lat="48.00989238189219" lon="7.042157997372077"><ele>543.9999999999999</ele><time>2026-04-17T08:34:32Z</time></trkpt><trkpt lat="48.00992147718987" lon="7.042073183185688"><ele>544.0</ele><time>2026-04-17T08:34:39Z</time></trkpt><trkpt lat="48.00995598796538" lon="7.041976408843123"><ele>544.0</ele><time>2026-04-17T08:34:45Z</time></trkpt><trkpt lat="48.00999197453109" lon="7.041883597995509"><ele>544.0</ele><time>2026-04-17T08:34:54Z</time></trkpt><trkpt lat="48.010029757744746" lon="7.04179578005852"><ele>544.0</ele><time>2026-04-17T08:35:01Z</time></trkpt><trkpt lat="48.0100662211186" lon="7.041716820292611"><ele>543.9999999999999</ele><time>2026-04-17T08:35:06Z</time></trkpt><trkpt lat="48.0101092549204" lon="7.041630184838066"><ele>544.0</ele><time>2026-04-17T08:35:11Z</time></trkpt><trkpt lat="48.01014814986509" lon="7.041553435225134"><ele>547.5714285714286</ele><time>2026-04-17T08:35:16Z</time></trkpt><trkpt lat="48.010190803420656" lon="7.04147900224445"><ele>551.1428571428571</ele><time>2026-04-17T08:35:21Z</time></trkpt><trkpt lat="48.01024096925812" lon="7.041395824842335"><ele>554.7142857142858</ele><time>2026-04-17T08:35:26Z</time></trkpt><trkpt lat="48.01029643666141" lon="7.041313689984019"><ele>558.2857142857142</ele><time>2026-04-17T08:35:32Z</time></trkpt><trkpt lat="48.0103473310636" lon="7.041241112725813"><ele>561.8571428571429</ele><time>2026-04-17T08:35:39Z</time></trkpt><trkpt lat="48.01039487452384" lon="7.041177138412549"><ele>565.4285714285714</ele><time>2026-04-17T08:35:44Z</time></trkpt><trkpt lat="48.010449374780414" lon="7.041106679698074"><ele>569.0</ele><time>2026-04-17T08:35:52Z</time></trkpt><trkpt lat="48.0105063290237" lon="7.041035686998734"><ele>569.0000000000001</ele><time>2026-04-17T08:35:58Z</time></trkpt><trkpt lat="48.01055949851482" lon="7.040973990080019"><ele>569.0</ele><time>2026-04-17T08:36:04Z</time></trkpt><trkpt lat="48.01062481154323" lon="7.040901848088935"><ele>569.0</ele><time>2026-04-17T08:36:10Z</time></trkpt><trkpt lat="48.010678446799645" lon="7.040844648445212"><ele>569.0</ele><time>2026-04-17T08:36:17Z</time></trkpt><trkpt lat="48.010734352534335" lon="7.040789980186576"><ele>569.0</ele><time>2026-04-17T08:36:22Z</time></trkpt><trkpt lat="48.010801262527096" lon="7.040728991996136"><ele>569.0000000000001</ele><time>2026-04-17T08:36:31Z</time></trkpt><trkpt lat="48.01087157821968" lon="7.040675854097431"><ele>569.0</ele><time>2026-04-17T08:36:44Z</time></trkpt><trkpt lat="48.01093503177679" lon="7.040634781106711"><ele>570.5714285714287</ele><time>2026-04-17T08:36:54Z</time></trkpt><trkpt lat="48.0109969436383" lon="7.0406001157761615"><ele>572.1428571428571</ele><time>2026-04-17T08:36:59Z</time></trkpt><trkpt lat="48.011065780720635" lon="7.040566142446606"><ele>573.7142857142858</ele><time>2026-04-17T08:37:56Z</time></trkpt><trkpt lat="48.0111279786378" lon="7.040537143354341"><ele>575.2857142857143</ele><time>2026-04-17T08:38:02Z</time></trkpt><trkpt lat="48.01119279633016" lon="7.0405070908115555"><ele>576.8571428571429</ele><time>2026-04-17T08:38:08Z</time></trkpt><trkpt lat="48.01126000979064" lon="7.040477145669778"><ele>578.4285714285714</ele><time>2026-04-17T08:38:14Z</time></trkpt><trkpt lat="48.01132374395651" lon="7.04045281782012"><ele>580.0</ele><time>2026-04-17T08:38:19Z</time></trkpt><trkpt lat="48.01139518135095" lon="7.040436885207772"><ele>580.0</ele><time>2026-04-17T08:38:25Z</time></trkpt><trkpt lat="48.011466272927436" lon="7.040404321303927"><ele>580.0</ele><time>2026-04-17T08:38:32Z</time></trkpt><trkpt lat="48.011529153423965" lon="7.040387338036862"><ele>580.0</ele><time>2026-04-17T08:38:41Z</time></trkpt><trkpt lat="48.01159382464559" lon="7.040367406577538"><ele>580.0</ele><time>2026-04-17T08:38:46Z</time></trkpt><trkpt lat="48.01166247186051" lon="7.040340615538524"><ele>580.0</ele><time>2026-04-17T08:38:52Z</time></trkpt><trkpt lat="48.01173353982363" lon="7.040321776641689"><ele>580.0</ele><time>2026-04-17T08:38:58Z</time></trkpt><trkpt lat="48.01180028472054" lon="7.040296137322873"><ele>580.0</ele><time>2026-04-17T08:39:04Z</time></trkpt><trkpt lat="48.0118662483142" lon="7.0402687901676915"><ele>582.5714285714286</ele><time>2026-04-17T08:39:10Z</time></trkpt><trkpt lat="48.01192796980899" lon="7.040240003066194"><ele>585.1428571428572</ele><time>2026-04-17T08:39:16Z</time></trkpt><trkpt lat="48.011990260836775" lon="7.040210516724518"><ele>587.7142857142858</ele><time>2026-04-17T08:39:22Z</time></trkpt><trkpt lat="48.012052719302" lon="7.0401794200989585"><ele>590.2857142857143</ele><time>2026-04-17T08:39:28Z</time></trkpt><trkpt lat="48.01211229320251" lon="7.040134107221826"><ele>592.8571428571429</ele><time>2026-04-17T08:39:34Z</time></trkpt><trkpt lat="48.01217277546737" lon="7.040101594328438"><ele>595.4285714285714</ele><time>2026-04-17T08:39:40Z</time></trkpt><trkpt lat="48.01223705494612" lon="7.040065570065791"><ele>598.0</ele><time>2026-04-17T08:39:47Z</time></trkpt><trkpt lat="48.01230492118926" lon="7.0400146149795795"><ele>598.0</ele><time>2026-04-17T08:40:04Z</time></trkpt><trkpt lat="48.012369406228885" lon="7.039989784967539"><ele>598.0</ele><time>2026-04-17T08:40:10Z</time></trkpt><trkpt lat="48.012433485661816" lon="7.03994916957272"><ele>598.0</ele><time>2026-04-17T08:40:16Z</time></trkpt><trkpt lat="48.012500672182924" lon="7.039919813211211"><ele>598.0</ele><time>2026-04-17T08:40:22Z</time></trkpt><trkpt lat="48.01256899864969" lon="7.039892733527497"><ele>598.0</ele><time>2026-04-17T08:40:28Z</time></trkpt><trkpt lat="48.01263943706401" lon="7.0398586339026785"><ele>598.0</ele><time>2026-04-17T08:40:34Z</time></trkpt><trkpt lat="48.01270006342669" lon="7.039821447753861"><ele>598.0</ele><time>2026-04-17T08:40:40Z</time></trkpt><trkpt lat="48.012764218533746" lon="7.039789446148406"><ele>597.2857142857142</ele><time>2026-04-17T08:40:47Z</time></trkpt><trkpt lat="48.01283287408779" lon="7.039750919281277"><ele>596.5714285714286</ele><time>2026-04-17T08:40:54Z</time></trkpt><trkpt lat="48.012897562977784" lon="7.039714655661022"><ele>595.8571428571429</ele><time>2026-04-17T08:41:02Z</time></trkpt><trkpt lat="48.01296229923091" lon="7.039675681487859"><ele>595.1428571428571</ele><time>2026-04-17T08:41:09Z</time></trkpt><trkpt lat="48.01302296519871" lon="7.039638528128275"><ele>594.4285714285714</ele><time>2026-04-17T08:41:16Z</time></trkpt><trkpt lat="48.01308323448964" lon="7.0395994826998445"><ele>593.7142857142857</ele><time>2026-04-17T08:41:22Z</time></trkpt><trkpt lat="48.01314760200347" lon="7.039556150243964"><ele>593.0</ele><time>2026-04-17T08:41:29Z</time></trkpt><trkpt lat="48.01321236403839" lon="7.03951079805755"><ele>592.9999999999999</ele><time>2026-04-17T08:41:35Z</time></trkpt><trkpt lat="48.01327003041775" lon="7.039469872356784"><ele>593.0</ele><time>2026-04-17T08:41:41Z</time></trkpt><trkpt lat="48.0133293496196" lon="7.039427541918317"><ele>593.0</ele><time>2026-04-17T08:41:47Z</time></trkpt><trkpt lat="48.01339361340356" lon="7.039378668776058"><ele>593.0</ele><time>2026-04-17T08:41:53Z</time></trkpt><trkpt lat="48.013459060962454" lon="7.039328895361348"><ele>593.0</ele><time>2026-04-17T08:41:59Z</time></trkpt><trkpt lat="48.013520514198696" lon="7.039267232625928"><ele>592.9999999999999</ele><time>2026-04-17T08:42:06Z</time></trkpt><trkpt lat="48.01357832135294" lon="7.039221842952902"><ele>593.0</ele><time>2026-04-17T08:42:12Z</time></trkpt><trkpt lat="48.01363846378312" lon="7.039166485879924"><ele>592.9999999999999</ele><time>2026-04-17T08:42:19Z</time></trkpt><trkpt lat="48.013695384648635" lon="7.039124655824208"><ele>593.0</ele><time>2026-04-17T08:42:25Z</time></trkpt><trkpt lat="48.01376121829415" lon="7.039074301075431"><ele>593.0</ele><time>2026-04-17T08:42:31Z</time></trkpt><trkpt lat="48.013830098642735" lon="7.039032718499749"><ele>593.0</ele><time>2026-04-17T08:42:38Z</time></trkpt><trkpt lat="48.01389461758627" lon="7.038977526486477"><ele>593.0</ele><time>2026-04-17T08:42:44Z</time></trkpt><trkpt lat="48.01395389322004" lon="7.0389258607815615"><ele>592.9999999999999</ele><time>2026-04-17T08:42:50Z</time></trkpt><trkpt lat="48.014016869188055" lon="7.03886935261625"><ele>593.0</ele><time>2026-04-17T08:42:57Z</time></trkpt><trkpt lat="48.0140755738698" lon="7.038816413867978"><ele>592.9999999999999</ele><time>2026-04-17T08:43:03Z</time></trkpt><trkpt lat="48.01413476469709" lon="7.038760574484082"><ele>593.0</ele><time>2026-04-17T08:43:09Z</time></trkpt><trkpt lat="48.01418873515303" lon="7.038705047440751"><ele>593.0</ele><time>2026-04-17T08:43:15Z</time></trkpt><trkpt lat="48.01424363739865" lon="7.038648318073608"><ele>593.0</ele><time>2026-04-17T08:43:21Z</time></trkpt><trkpt lat="48.01430121534991" lon="7.0386014112793145"><ele>593.0</ele><time>2026-04-17T08:43:26Z</time></trkpt><trkpt lat="48.01435445180213" lon="7.0385465481217775"><ele>592.9999999999999</ele><time>2026-04-17T08:43:32Z</time></trkpt><trkpt lat="48.01441625628618" lon="7.038489708330938"><ele>593.0</ele><time>2026-04-17T08:43:38Z</time></trkpt><trkpt lat="48.01447271387841" lon="7.038428336336708"><ele>592.9999999999999</ele><time>2026-04-17T08:43:44Z</time></trkpt><trkpt lat="48.01453603199646" lon="7.03836929308707"><ele>593.0</ele><time>2026-04-17T08:43:51Z</time></trkpt><trkpt lat="48.0146007837271" lon="7.038321745128557"><ele>593.0</ele><time>2026-04-17T08:43:57Z</time></trkpt><trkpt lat="48.014666348858405" lon="7.038267306028418"><ele>593.0</ele><time>2026-04-17T08:44:03Z</time></trkpt><trkpt lat="48.014724732014564" lon="7.038218954745191"><ele>593.0</ele><time>2026-04-17T08:44:08Z</time></trkpt><trkpt lat="48.01478943777404" lon="7.038167397103207"><ele>592.9999999999999</ele><time>2026-04-17T08:44:14Z</time></trkpt><trkpt lat="48.014848506091944" lon="7.038114350180741"><ele>593.0</ele><time>2026-04-17T08:44:20Z</time></trkpt><trkpt lat="48.01490702518781" lon="7.038056403799326"><ele>592.9999999999999</ele><time>2026-04-17T08:44:26Z</time></trkpt><trkpt lat="48.014961856519584" lon="7.037999886969925"><ele>593.0</ele><time>2026-04-17T08:44:32Z</time></trkpt><trkpt lat="48.01501068852161" lon="7.037938771589001"><ele>593.0</ele><time>2026-04-17T08:44:38Z</time></trkpt><trkpt lat="48.01506774847576" lon="7.037879762199146"><ele>593.0</ele><time>2026-04-17T08:44:44Z</time></trkpt><trkpt lat="48.015120506451474" lon="7.037809298197787"><ele>593.0</ele><time>2026-04-17T08:44:50Z</time></trkpt><trkpt lat="48.01517481165206" lon="7.037751523427714"><ele>592.9999999999999</ele><time>2026-04-17T08:44:56Z</time></trkpt><trkpt lat="48.01522432768709" lon="7.037692527519198"><ele>593.0</ele><time>2026-04-17T08:45:02Z</time></trkpt><trkpt lat="48.015274936617054" lon="7.03761978656029"><ele>593.4285714285713</ele><time>2026-04-17T08:45:08Z</time></trkpt><trkpt lat="48.01532650857976" lon="7.0375574822920495"><ele>593.8571428571429</ele><time>2026-04-17T08:45:14Z</time></trkpt><trkpt lat="48.01537699571333" lon="7.037486694843179"><ele>594.2857142857142</ele><time>2026-04-17T08:45:20Z</time></trkpt><trkpt lat="48.015426802364594" lon="7.037411072685339"><ele>594.7142857142857</ele><time>2026-04-17T08:45:26Z</time></trkpt><trkpt lat="48.01548387301089" lon="7.037346232596835"><ele>595.1428571428571</ele><time>2026-04-17T08:45:32Z</time></trkpt><trkpt lat="48.015535910036334" lon="7.037286431079278"><ele>595.5714285714286</ele><time>2026-04-17T08:45:37Z</time></trkpt><trkpt lat="48.015588296135235" lon="7.037220578103222"><ele>596.0</ele><time>2026-04-17T08:45:43Z</time></trkpt><trkpt lat="48.015640430648375" lon="7.0371550413200925"><ele>596.0</ele><time>2026-04-17T08:45:49Z</time></trkpt><trkpt lat="48.015694039995985" lon="7.037086603257925"><ele>596.0</ele><time>2026-04-17T08:45:55Z</time></trkpt><trkpt lat="48.01574872101512" lon="7.037018912770046"><ele>596.0</ele><time>2026-04-17T08:46:02Z</time></trkpt><trkpt lat="48.01579328452686" lon="7.0369444823958585"><ele>596.0</ele><time>2026-04-17T08:46:08Z</time></trkpt><trkpt lat="48.015840965085246" lon="7.03688192660168"><ele>596.0</ele><time>2026-04-17T08:46:14Z</time></trkpt><trkpt lat="48.01589208375974" lon="7.036806710039975"><ele>596.0</ele><time>2026-04-17T08:46:20Z</time></trkpt><trkpt lat="48.01594198985139" lon="7.036730798068515"><ele>596.0</ele><time>2026-04-17T08:46:26Z</time></trkpt><trkpt lat="48.015995731521954" lon="7.036657783765933"><ele>597.5714285714286</ele><time>2026-04-17T08:46:32Z</time></trkpt><trkpt lat="48.01605142171077" lon="7.036590298224195"><ele>599.1428571428571</ele><time>2026-04-17T08:46:38Z</time></trkpt><trkpt lat="48.0161084073656" lon="7.03652057658874"><ele>600.7142857142857</ele><time>2026-04-17T08:46:44Z</time></trkpt><trkpt lat="48.01616716238813" lon="7.036464155721837"><ele>602.2857142857142</ele><time>2026-04-17T08:46:50Z</time></trkpt><trkpt lat="48.01622356225318" lon="7.036417254177142"><ele>603.8571428571429</ele><time>2026-04-17T08:46:56Z</time></trkpt><trkpt lat="48.01628706356623" lon="7.036370418229803"><ele>605.4285714285713</ele><time>2026-04-17T08:47:02Z</time></trkpt><trkpt lat="48.016351757541116" lon="7.036371165219417"><ele>607.0</ele><time>2026-04-17T08:50:20Z</time></trkpt><trkpt lat="48.01641221178188" lon="7.036320196098115"><ele>606.9999999999999</ele><time>2026-04-17T08:50:36Z</time></trkpt><trkpt lat="48.01647805000721" lon="7.036314255952337"><ele>607.0</ele><time>2026-04-17T08:50:42Z</time></trkpt><trkpt lat="48.016542776804044" lon="7.036306553917725"><ele>607.0</ele><time>2026-04-17T08:50:47Z</time></trkpt><trkpt lat="48.01660639842325" lon="7.036296928331425"><ele>607.0</ele><time>2026-04-17T08:50:53Z</time></trkpt><trkpt lat="48.01667660847195" lon="7.036285157980175"><ele>607.0</ele><time>2026-04-17T08:50:59Z</time></trkpt><trkpt lat="48.01673978125135" lon="7.0362629551938305"><ele>606.9999999999999</ele><time>2026-04-17T08:51:05Z</time></trkpt><trkpt lat="48.01680061737443" lon="7.0362025761010285"><ele>607.0</ele><time>2026-04-17T08:51:12Z</time></trkpt><trkpt lat="48.01687106901706" lon="7.03619158231723"><ele>613.1428571428571</ele><time>2026-04-17T08:51:19Z</time></trkpt><trkpt lat="48.01693621868397" lon="7.036182257217129"><ele>619.2857142857142</ele><time>2026-04-17T08:51:25Z</time></trkpt><trkpt lat="48.01700757411095" lon="7.036159292845136"><ele>625.4285714285713</ele><time>2026-04-17T08:51:31Z</time></trkpt><trkpt lat="48.01707768855428" lon="7.036137339025517"><ele>631.5714285714286</ele><time>2026-04-17T08:51:37Z</time></trkpt><trkpt lat="48.0171470610783" lon="7.036113618260516"><ele>637.7142857142858</ele><time>2026-04-17T08:51:43Z</time></trkpt><trkpt lat="48.017215584660704" lon="7.03607882659736"><ele>643.8571428571428</ele><time>2026-04-17T08:51:50Z</time></trkpt><trkpt lat="48.017282003033955" lon="7.036041851897819"><ele>650.0</ele><time>2026-04-17T08:51:57Z</time></trkpt><trkpt lat="48.01734066624783" lon="7.036005525829348"><ele>650.0</ele><time>2026-04-17T08:52:03Z</time></trkpt><trkpt lat="48.01740123445007" lon="7.035967352896524"><ele>650.0</ele><time>2026-04-17T08:52:08Z</time></trkpt><trkpt lat="48.01746632097485" lon="7.03592627788371"><ele>650.0</ele><time>2026-04-17T08:52:14Z</time></trkpt><trkpt lat="48.01752664652564" lon="7.03588821850929"><ele>650.0</ele><time>2026-04-17T08:52:20Z</time></trkpt><trkpt lat="48.017590766273926" lon="7.035848875523041"><ele>650.0</ele><time>2026-04-17T08:52:27Z</time></trkpt><trkpt lat="48.01766220249901" lon="7.035807638661094"><ele>650.0</ele><time>2026-04-17T08:52:34Z</time></trkpt><trkpt lat="48.01772260188232" lon="7.035772772863581"><ele>650.0</ele><time>2026-04-17T08:52:40Z</time></trkpt><trkpt lat="48.017787849913105" lon="7.03573510816431"><ele>652.1428571428571</ele><time>2026-04-17T08:52:47Z</time></trkpt><trkpt lat="48.01784478423761" lon="7.035693056107328"><ele>654.2857142857143</ele><time>2026-04-17T08:52:52Z</time></trkpt><trkpt lat="48.01790125626988" lon="7.03564971262103"><ele>656.4285714285714</ele><time>2026-04-17T08:52:58Z</time></trkpt><trkpt lat="48.017967920464194" lon="7.035593459351869"><ele>658.5714285714286</ele><time>2026-04-17T08:53:06Z</time></trkpt><trkpt lat="48.01801630297625" lon="7.035531065537599"><ele>660.7142857142858</ele><time>2026-04-17T08:53:13Z</time></trkpt><trkpt lat="48.01805780628865" lon="7.035443942341661"><ele>662.8571428571429</ele><time>2026-04-17T08:53:20Z</time></trkpt><trkpt lat="48.018091351862715" lon="7.035340310604192"><ele>665.0</ele><time>2026-04-17T08:53:26Z</time></trkpt><trkpt lat="48.01812555154057" lon="7.035241776010632"><ele>665.0</ele><time>2026-04-17T08:53:31Z</time></trkpt><trkpt lat="48.018169599601755" lon="7.035165463617173"><ele>665.0</ele><time>2026-04-17T08:53:38Z</time></trkpt><trkpt lat="48.018226764797134" lon="7.0351136884128245"><ele>665.0</ele><time>2026-04-17T08:53:44Z</time></trkpt><trkpt lat="48.01829003604924" lon="7.035096280440402"><ele>665.0</ele><time>2026-04-17T08:53:51Z</time></trkpt><trkpt lat="48.01835830295279" lon="7.035043731919224"><ele>665.0</ele><time>2026-04-17T08:53:57Z</time></trkpt><trkpt lat="48.01841885198772" lon="7.035011125851705"><ele>665.0</ele><time>2026-04-17T08:54:02Z</time></trkpt><trkpt lat="48.01848433749828" lon="7.034972815385826"><ele>665.0</ele><time>2026-04-17T08:54:09Z</time></trkpt><trkpt lat="48.018539526761224" lon="7.034913330618438"><ele>666.4285714285714</ele><time>2026-04-17T08:54:16Z</time></trkpt><trkpt lat="48.0185933711628" lon="7.034857535837147"><ele>667.8571428571429</ele><time>2026-04-17T08:54:22Z</time></trkpt><trkpt lat="48.01865431005697" lon="7.034821709784833"><ele>669.2857142857142</ele><time>2026-04-17T08:54:29Z</time></trkpt><trkpt lat="48.01871177544718" lon="7.034764155352557"><ele>670.7142857142858</ele><time>2026-04-17T08:54:35Z</time></trkpt><trkpt lat="48.018771448529904" lon="7.0347177365557645"><ele>672.1428571428571</ele><time>2026-04-17T08:54:40Z</time></trkpt><trkpt lat="48.018823229987" lon="7.034663753548493"><ele>673.5714285714286</ele><time>2026-04-17T08:54:45Z</time></trkpt><trkpt lat="48.0188801201751" lon="7.034594236865625"><ele>675.0</ele><time>2026-04-17T08:54:52Z</time></trkpt><trkpt lat="48.01892895370497" lon="7.034528760241111"><ele>675.0</ele><time>2026-04-17T08:54:57Z</time></trkpt><trkpt lat="48.01898402304078" lon="7.034447886995987"><ele>675.0</ele><time>2026-04-17T08:55:04Z</time></trkpt><trkpt lat="48.01903350732938" lon="7.034378751695899"><ele>675.0</ele><time>2026-04-17T08:55:09Z</time></trkpt><trkpt lat="48.019078645602505" lon="7.0342957264956745"><ele>675.0</ele><time>2026-04-17T08:55:15Z</time></trkpt><trkpt lat="48.0191246098314" lon="7.034225352518684"><ele>675.0</ele><time>2026-04-17T08:55:23Z</time></trkpt><trkpt lat="48.019194664255934" lon="7.034187874997553"><ele>675.0</ele><time>2026-04-17T08:55:29Z</time></trkpt><trkpt lat="48.01925366271759" lon="7.034146982657601"><ele>675.0</ele><time>2026-04-17T08:55:36Z</time></trkpt><trkpt lat="48.01931603582637" lon="7.034115865848943"><ele>675.7142857142857</ele><time>2026-04-17T08:55:43Z</time></trkpt><trkpt lat="48.01937995213146" lon="7.034085429914044"><ele>676.4285714285714</ele><time>2026-04-17T08:55:50Z</time></trkpt><trkpt lat="48.0194487318738" lon="7.034034041705309"><ele>677.1428571428571</ele><time>2026-04-17T08:55:57Z</time></trkpt><trkpt lat="48.01950722483414" lon="7.0339903391869925"><ele>677.8571428571429</ele><time>2026-04-17T08:56:04Z</time></trkpt><trkpt lat="48.01956425464867" lon="7.033947729838146"><ele>678.5714285714286</ele><time>2026-04-17T08:56:09Z</time></trkpt><trkpt lat="48.01963148518688" lon="7.033897499123898"><ele>679.2857142857143</ele><time>2026-04-17T08:56:16Z</time></trkpt><trkpt lat="48.01968955311926" lon="7.033854114153248"><ele>680.0</ele><time>2026-04-17T08:56:21Z</time></trkpt><trkpt lat="48.01975279792642" lon="7.033891776911019"><ele>680.0</ele><time>2026-04-17T08:56:25Z</time></trkpt><trkpt lat="48.01981793368247" lon="7.033849729080032"><ele>680.0</ele><time>2026-04-17T08:56:33Z</time></trkpt><trkpt lat="48.01988559683914" lon="7.033802463112024"><ele>680.0</ele><time>2026-04-17T08:56:39Z</time></trkpt><trkpt lat="48.01995183667264" lon="7.033757607868638"><ele>680.0</ele><time>2026-04-17T08:56:45Z</time></trkpt><trkpt lat="48.01999698498303" lon="7.033681838469842"><ele>680.0</ele><time>2026-04-17T08:56:51Z</time></trkpt><trkpt lat="48.0200449748143" lon="7.033606742095834"><ele>680.0</ele><time>2026-04-17T08:56:57Z</time></trkpt><trkpt lat="48.020094391040956" lon="7.03352910170589"><ele>680.0</ele><time>2026-04-17T08:57:03Z</time></trkpt><trkpt lat="48.02014490094025" lon="7.033454416237671"><ele>680.0</ele><time>2026-04-17T08:57:09Z</time></trkpt><trkpt lat="48.02018742884914" lon="7.033371919387221"><ele>680.0</ele><time>2026-04-17T08:57:15Z</time></trkpt><trkpt lat="48.0202318797454" lon="7.033304898538748"><ele>680.0</ele><time>2026-04-17T08:57:20Z</time></trkpt><trkpt lat="48.02028237551276" lon="7.03322812863358"><ele>680.0</ele><time>2026-04-17T08:57:27Z</time></trkpt><trkpt lat="48.020333561596" lon="7.033162785282711"><ele>680.0</ele><time>2026-04-17T08:57:33Z</time></trkpt><trkpt lat="48.020396443599" lon="7.033103578766631"><ele>680.0</ele><time>2026-04-17T08:57:39Z</time></trkpt><trkpt lat="48.020455416909684" lon="7.0330513467694225"><ele>680.0</ele><time>2026-04-17T08:57:47Z</time></trkpt><trkpt lat="48.02050611578048" lon="7.032993801371907"><ele>680.0</ele><time>2026-04-17T08:57:53Z</time></trkpt><trkpt lat="48.02055268933828" lon="7.032920193143169"><ele>680.0</ele><time>2026-04-17T08:57:59Z</time></trkpt><trkpt lat="48.020614781322905" lon="7.032854084987456"><ele>680.0</ele><time>2026-04-17T08:58:06Z</time></trkpt><trkpt lat="48.02066396788477" lon="7.032793875897339"><ele>680.0</ele><time>2026-04-17T08:58:11Z</time></trkpt><trkpt lat="48.020706608580106" lon="7.032710457901126"><ele>680.0</ele><time>2026-04-17T08:58:18Z</time></trkpt><trkpt lat="48.020748089721216" lon="7.0326290783251855"><ele>680.0</ele><time>2026-04-17T08:58:24Z</time></trkpt><trkpt lat="48.02078940477705" lon="7.032551791565547"><ele>680.0</ele><time>2026-04-17T08:58:30Z</time></trkpt><trkpt lat="48.02083443056433" lon="7.032466870557152"><ele>684.0</ele><time>2026-04-17T08:58:36Z</time></trkpt><trkpt lat="48.02087590869688" lon="7.032391867595492"><ele>688.0</ele><time>2026-04-17T08:58:41Z</time></trkpt><trkpt lat="48.02091840268284" lon="7.032319762460091"><ele>692.0</ele><time>2026-04-17T08:58:47Z</time></trkpt><trkpt lat="48.020954814530114" lon="7.032238410222405"><ele>696.0</ele><time>2026-04-17T08:58:53Z</time></trkpt><trkpt lat="48.020995210607175" lon="7.0321530710405415"><ele>700.0</ele><time>2026-04-17T08:58:59Z</time></trkpt><trkpt lat="48.02103226597475" lon="7.032070385016366"><ele>704.0</ele><time>2026-04-17T08:59:06Z</time></trkpt><trkpt lat="48.021070936843714" lon="7.031981355956448"><ele>708.0</ele><time>2026-04-17T08:59:12Z</time></trkpt><trkpt lat="48.021082195512086" lon="7.0318883430517936"><ele>708.0</ele><time>2026-04-17T08:59:17Z</time></trkpt><trkpt lat="48.0210871408191" lon="7.031787217687892"><ele>708.0</ele><time>2026-04-17T08:59:23Z</time></trkpt><trkpt lat="48.02111163536606" lon="7.03167726076255"><ele>708.0</ele><time>2026-04-17T08:59:29Z</time></trkpt><trkpt lat="48.02113403732305" lon="7.031588274228683"><ele>708.0</ele><time>2026-04-17T08:59:34Z</time></trkpt><trkpt lat="48.02116203825846" lon="7.031489302984312"><ele>708.0</ele><time>2026-04-17T08:59:40Z</time></trkpt><trkpt lat="48.02121944621091" lon="7.031418909226085"><ele>708.0</ele><time>2026-04-17T08:59:46Z</time></trkpt><trkpt lat="48.02127866685725" lon="7.031366241941191"><ele>708.0</ele><time>2026-04-17T08:59:52Z</time></trkpt><trkpt lat="48.02132936633343" lon="7.031297589393946"><ele>704.2857142857143</ele><time>2026-04-17T08:59:58Z</time></trkpt><trkpt lat="48.0213955371692" lon="7.031236605669573"><ele>700.5714285714286</ele><time>2026-04-17T09:00:05Z</time></trkpt><trkpt lat="48.02145395900622" lon="7.031184469381519"><ele>696.8571428571429</ele><time>2026-04-17T09:00:11Z</time></trkpt><trkpt lat="48.021501236004305" lon="7.0311137666629575"><ele>693.1428571428571</ele><time>2026-04-17T09:00:17Z</time></trkpt><trkpt lat="48.02154137915474" lon="7.031040939204482"><ele>689.4285714285714</ele><time>2026-04-17T09:00:22Z</time></trkpt><trkpt lat="48.021562810068374" lon="7.030946826182806"><ele>685.7142857142857</ele><time>2026-04-17T09:00:27Z</time></trkpt><trkpt lat="48.021576598094185" lon="7.030841481651947"><ele>682.0</ele><time>2026-04-17T09:00:33Z</time></trkpt><trkpt lat="48.02158686885849" lon="7.030733616713714"><ele>680.1428571428571</ele><time>2026-04-17T09:00:39Z</time></trkpt><trkpt lat="48.021616023794635" lon="7.0306483407026645"><ele>678.2857142857143</ele><time>2026-04-17T09:00:45Z</time></trkpt><trkpt lat="48.02164597298952" lon="7.0305652963355465"><ele>676.4285714285714</ele><time>2026-04-17T09:00:53Z</time></trkpt><trkpt lat="48.02169570133046" lon="7.030505772980488"><ele>674.5714285714286</ele><time>2026-04-17T09:01:01Z</time></trkpt><trkpt lat="48.021756350808026" lon="7.030446044429536"><ele>672.7142857142857</ele><time>2026-04-17T09:01:20Z</time></trkpt><trkpt lat="48.02180389017157" lon="7.030373885172691"><ele>670.8571428571429</ele><time>2026-04-17T09:02:01Z</time></trkpt><trkpt lat="48.0218446199913" lon="7.030287797878146"><ele>669.0</ele><time>2026-04-17T09:02:08Z</time></trkpt><trkpt lat="48.02188036618778" lon="7.030381580815879"><ele>690.0</ele><time>2026-04-17T09:02:17Z</time></trkpt><trkpt lat="48.021872381368375" lon="7.030478246603539"><ele>711.0</ele><time>2026-04-17T09:02:21Z</time></trkpt><trkpt lat="48.02209568371288" lon="7.030138333235824"><ele>732.0</ele><time>2026-04-17T09:02:23Z</time></trkpt><trkpt lat="48.02188642071485" lon="7.029985914613388"><ele>730.8571428571429</ele><time>2026-04-17T09:02:24Z</time></trkpt><trkpt lat="48.021878682660926" lon="7.02988344009224"><ele>729.7142857142858</ele><time>2026-04-17T09:02:32Z</time></trkpt><trkpt lat="48.02187081673414" lon="7.029783505739072"><ele>728.5714285714286</ele><time>2026-04-17T09:02:38Z</time></trkpt><trkpt lat="48.02186889580839" lon="7.029686030492763"><ele>727.4285714285714</ele><time>2026-04-17T09:02:43Z</time></trkpt><trkpt lat="48.021880596934444" lon="7.029571521788987"><ele>726.2857142857142</ele><time>2026-04-17T09:02:49Z</time></trkpt><trkpt lat="48.02188854743654" lon="7.029470968065567"><ele>725.1428571428571</ele><time>2026-04-17T09:02:55Z</time></trkpt><trkpt lat="48.02189289025984" lon="7.029361891409541"><ele>724.0</ele><time>2026-04-17T09:03:01Z</time></trkpt><trkpt lat="48.02190103185821" lon="7.029253340526324"><ele>724.0</ele><time>2026-04-17T09:03:08Z</time></trkpt><trkpt lat="48.021931443950386" lon="7.029162988320098"><ele>724.0</ele><time>2026-04-17T09:03:14Z</time></trkpt><trkpt lat="48.021973740126974" lon="7.029071616740376"><ele>724.0</ele><time>2026-04-17T09:03:20Z</time></trkpt><trkpt lat="48.022010147477054" lon="7.028994176137807"><ele>724.0</ele><time>2026-04-17T09:03:26Z</time></trkpt><trkpt lat="48.02207037666638" lon="7.028943193559188"><ele>724.0</ele><time>2026-04-17T09:03:33Z</time></trkpt><trkpt lat="48.02213992928958" lon="7.0289001431907145"><ele>724.0</ele><time>2026-04-17T09:03:40Z</time></trkpt><trkpt lat="48.02219934419102" lon="7.028859532271601"><ele>724.0</ele><time>2026-04-17T09:03:46Z</time></trkpt><trkpt lat="48.022260923638996" lon="7.028819439410082"><ele>724.4285714285714</ele><time>2026-04-17T09:03:52Z</time></trkpt><trkpt lat="48.02231975091682" lon="7.028763564096802"><ele>724.8571428571429</ele><time>2026-04-17T09:03:59Z</time></trkpt><trkpt lat="48.022381064361824" lon="7.028717639454627"><ele>725.2857142857142</ele><time>2026-04-17T09:04:06Z</time></trkpt><trkpt lat="48.02245341138007" lon="7.028693628324748"><ele>725.7142857142858</ele><time>2026-04-17T09:04:12Z</time></trkpt><trkpt lat="48.02251563372336" lon="7.028627058142943"><ele>726.1428571428572</ele><time>2026-04-17T09:04:20Z</time></trkpt><trkpt lat="48.022567595938085" lon="7.028566089423473"><ele>726.5714285714286</ele><time>2026-04-17T09:04:26Z</time></trkpt><trkpt lat="48.0226125851287" lon="7.028482515983788"><ele>727.0</ele><time>2026-04-17T09:04:34Z</time></trkpt><trkpt lat="48.02265921862308" lon="7.028410503479365"><ele>732.5714285714286</ele><time>2026-04-17T09:04:41Z</time></trkpt><trkpt lat="48.02270362060882" lon="7.028323295197375"><ele>738.1428571428572</ele><time>2026-04-17T09:04:47Z</time></trkpt><trkpt lat="48.0227553741126" lon="7.028253550032712"><ele>743.7142857142858</ele><time>2026-04-17T09:04:54Z</time></trkpt><trkpt lat="48.02278776983403" lon="7.028157400950525"><ele>749.2857142857142</ele><time>2026-04-17T09:04:59Z</time></trkpt><trkpt lat="48.02282485915842" lon="7.0280748962417885"><ele>754.8571428571429</ele><time>2026-04-17T09:05:07Z</time></trkpt><trkpt lat="48.022844235568066" lon="7.027980579788504"><ele>760.4285714285714</ele><time>2026-04-17T09:05:12Z</time></trkpt><trkpt lat="48.022851225713886" lon="7.02786842209251"><ele>766.0</ele><time>2026-04-17T09:05:19Z</time></trkpt><trkpt lat="48.022867889908824" lon="7.027771583354893"><ele>766.2857142857142</ele><time>2026-04-17T09:05:25Z</time></trkpt><trkpt lat="48.02288714858315" lon="7.027681019984542"><ele>766.5714285714286</ele><time>2026-04-17T09:05:33Z</time></trkpt><trkpt lat="48.02289882023918" lon="7.027558680590737"><ele>766.8571428571429</ele><time>2026-04-17T09:05:40Z</time></trkpt><trkpt lat="48.02290321199568" lon="7.02744863311578"><ele>767.1428571428571</ele><time>2026-04-17T09:05:49Z</time></trkpt><trkpt lat="48.02291113338237" lon="7.027340821965742"><ele>767.4285714285714</ele><time>2026-04-17T09:05:54Z</time></trkpt><trkpt lat="48.02294740149283" lon="7.0272395284939195"><ele>767.7142857142857</ele><time>2026-04-17T09:06:00Z</time></trkpt><trkpt lat="48.023009685679725" lon="7.0271779046232234"><ele>768.0</ele><time>2026-04-17T09:06:06Z</time></trkpt><trkpt lat="48.023074984052066" lon="7.027124823215863"><ele>769.1428571428571</ele><time>2026-04-17T09:06:14Z</time></trkpt><trkpt lat="48.02312759956978" lon="7.027056874642486"><ele>770.2857142857142</ele><time>2026-04-17T09:06:21Z</time></trkpt><trkpt lat="48.023185933670256" lon="7.027017915079555"><ele>771.4285714285713</ele><time>2026-04-17T09:06:27Z</time></trkpt><trkpt lat="48.023227395903724" lon="7.026938239254557"><ele>772.5714285714286</ele><time>2026-04-17T09:06:32Z</time></trkpt><trkpt lat="48.02328254653955" lon="7.026883329834555"><ele>773.7142857142858</ele><time>2026-04-17T09:06:38Z</time></trkpt><trkpt lat="48.02334916016741" lon="7.026843670169055"><ele>774.8571428571428</ele><time>2026-04-17T09:06:45Z</time></trkpt><trkpt lat="48.02338794163902" lon="7.026766786749249"><ele>776.0</ele><time>2026-04-17T09:06:50Z</time></trkpt><trkpt lat="48.023430416348724" lon="7.0266882351037925"><ele>778.1428571428571</ele><time>2026-04-17T09:06:56Z</time></trkpt><trkpt lat="48.02346221600247" lon="7.026583961392975"><ele>780.2857142857143</ele><time>2026-04-17T09:07:02Z</time></trkpt><trkpt lat="48.023461274860416" lon="7.026485098204023"><ele>782.4285714285714</ele><time>2026-04-17T09:07:10Z</time></trkpt><trkpt lat="48.02351495554274" lon="7.026397711425379"><ele>784.5714285714286</ele><time>2026-04-17T09:07:16Z</time></trkpt><trkpt lat="48.023520705052135" lon="7.026285417933661"><ele>786.7142857142858</ele><time>2026-04-17T09:07:22Z</time></trkpt><trkpt lat="48.0235250689392" lon="7.02617626114257"><ele>788.8571428571429</ele><time>2026-04-17T09:07:28Z</time></trkpt><trkpt lat="48.02356270173331" lon="7.026096234271481"><ele>791.0</ele><time>2026-04-17T09:07:33Z</time></trkpt><trkpt lat="48.02359321400875" lon="7.02600859655146"><ele>791.0</ele><time>2026-04-17T09:07:38Z</time></trkpt><trkpt lat="48.0236251190907" lon="7.025927011829161"><ele>791.0</ele><time>2026-04-17T09:07:45Z</time></trkpt><trkpt lat="48.023638672678906" lon="7.025823541278212"><ele>791.0</ele><time>2026-04-17T09:07:52Z</time></trkpt><trkpt lat="48.023604577257636" lon="7.025742471151875"><ele>791.0</ele><time>2026-04-17T09:08:54Z</time></trkpt><trkpt lat="48.023632539543776" lon="7.025650131361089"><ele>791.0</ele><time>2026-04-17T09:09:04Z</time></trkpt><trkpt lat="48.02361312441339" lon="7.025551285583615"><ele>791.0</ele><time>2026-04-17T09:09:09Z</time></trkpt><trkpt lat="48.02360407342889" lon="7.025440349997095"><ele>791.0</ele><time>2026-04-17T09:09:15Z</time></trkpt><trkpt lat="48.023597091754795" lon="7.025330751056843"><ele>792.1428571428571</ele><time>2026-04-17T09:09:21Z</time></trkpt><trkpt lat="48.02357304149999" lon="7.0252289111408786"><ele>793.2857142857142</ele><time>2026-04-17T09:09:27Z</time></trkpt><trkpt lat="48.023554258782156" lon="7.025129521862243"><ele>794.4285714285714</ele><time>2026-04-17T09:09:34Z</time></trkpt><trkpt lat="48.023539109169086" lon="7.025027404077891"><ele>795.5714285714286</ele><time>2026-04-17T09:09:39Z</time></trkpt><trkpt lat="48.0235384735271" lon="7.024930354478431"><ele>796.7142857142857</ele><time>2026-04-17T09:09:44Z</time></trkpt><trkpt lat="48.023536699775406" lon="7.024826108244703"><ele>797.8571428571429</ele><time>2026-04-17T09:09:49Z</time></trkpt><trkpt lat="48.0235142730176" lon="7.024724032502088"><ele>799.0</ele><time>2026-04-17T09:09:55Z</time></trkpt><trkpt lat="48.023467881290706" lon="7.024645954070646"><ele>800.0</ele><time>2026-04-17T09:10:57Z</time></trkpt><trkpt lat="48.02352788380345" lon="7.0245973991254855"><ele>801.0</ele><time>2026-04-17T09:11:13Z</time></trkpt><trkpt lat="48.02352699287963" lon="7.024489897551445"><ele>802.0</ele><time>2026-04-17T09:11:22Z</time></trkpt><trkpt lat="48.023510692138835" lon="7.024392740712895"><ele>803.0</ele><time>2026-04-17T09:11:29Z</time></trkpt><trkpt lat="48.023507541555176" lon="7.024285951948237"><ele>804.0</ele><time>2026-04-17T09:11:36Z</time></trkpt><trkpt lat="48.02347944702265" lon="7.024194667081094"><ele>805.0</ele><time>2026-04-17T09:11:43Z</time></trkpt><trkpt lat="48.0234306493766" lon="7.024126496970526"><ele>806.0</ele><time>2026-04-17T09:11:51Z</time></trkpt><trkpt lat="48.02343613580927" lon="7.024014161377127"><ele>807.7142857142858</ele><time>2026-04-17T09:11:59Z</time></trkpt><trkpt lat="48.02342408257835" lon="7.023911640070861"><ele>809.4285714285713</ele><time>2026-04-17T09:12:08Z</time></trkpt><trkpt lat="48.023402023933976" lon="7.023818794464605"><ele>811.1428571428571</ele><time>2026-04-17T09:12:27Z</time></trkpt><trkpt lat="48.02346448184581" lon="7.023806567198601"><ele>812.8571428571429</ele><time>2026-04-17T09:13:36Z</time></trkpt><trkpt lat="48.023391028354986" lon="7.02379816475837"><ele>814.5714285714287</ele><time>2026-04-17T09:13:58Z</time></trkpt><trkpt lat="48.02345484360328" lon="7.0238531424472805"><ele>816.2857142857142</ele><time>2026-04-17T09:15:37Z</time></trkpt><trkpt lat="48.02351949757134" lon="7.023829867670734"><ele>818.0</ele><time>2026-04-17T09:16:56Z</time></trkpt><trkpt lat="48.02358851475279" lon="7.02385476376942"><ele>818.0</ele><time>2026-04-17T09:17:02Z</time></trkpt><trkpt lat="48.02364627171702" lon="7.023894339209777"><ele>818.0</ele><time>2026-04-17T09:17:08Z</time></trkpt><trkpt lat="48.02369810913813" lon="7.023948875031754"><ele>818.0</ele><time>2026-04-17T09:17:23Z</time></trkpt><trkpt lat="48.023710879840955" lon="7.024042273098858"><ele>818.0</ele><time>2026-04-17T09:17:27Z</time></trkpt><trkpt lat="48.02372616132128" lon="7.024144446547224"><ele>818.0</ele><time>2026-04-17T09:17:33Z</time></trkpt><trkpt lat="48.02374657359937" lon="7.0242376684193895"><ele>818.0</ele><time>2026-04-17T09:18:04Z</time></trkpt><trkpt lat="48.02379703709113" lon="7.024305561189744"><ele>818.0</ele><time>2026-04-17T09:18:16Z</time></trkpt><trkpt lat="48.02382637912932" lon="7.0243940686845265"><ele>816.2857142857142</ele><time>2026-04-17T09:18:31Z</time></trkpt><trkpt lat="48.02387333361322" lon="7.024459188475941"><ele>814.5714285714287</ele><time>2026-04-17T09:18:38Z</time></trkpt><trkpt lat="48.02388355082497" lon="7.0245586555570725"><ele>812.8571428571429</ele><time>2026-04-17T09:18:44Z</time></trkpt><trkpt lat="48.02390095483575" lon="7.024651275134818"><ele>811.1428571428571</ele><time>2026-04-17T09:18:52Z</time></trkpt><trkpt lat="48.02395324913491" lon="7.024728477311428"><ele>809.4285714285713</ele><time>2026-04-17T09:19:02Z</time></trkpt><trkpt lat="48.024011300761266" lon="7.024766450525724"><ele>807.7142857142858</ele><time>2026-04-17T09:19:12Z</time></trkpt><trkpt lat="48.0240617900183" lon="7.024841360097564"><ele>806.0</ele><time>2026-04-17T09:19:21Z</time></trkpt><trkpt lat="48.02408590589338" lon="7.024944204374581"><ele>804.25</ele><time>2026-04-17T09:19:31Z</time></trkpt><trkpt lat="48.02411665897104" lon="7.025028791487223"><ele>802.5</ele><time>2026-04-17T09:19:35Z</time></trkpt><trkpt lat="48.024150997308546" lon="7.025110325358153"><ele>800.75</ele><time>2026-04-17T09:19:40Z</time></trkpt><trkpt lat="48.024195052305735" lon="7.025191537417175"><ele>799.0</ele><time>2026-04-17T09:19:45Z</time></trkpt><trkpt lat="48.010678446799645" lon="7.040844648445212"><ele>767.7142857142858</ele><time>2026-04-17T08:36:17Z</time></trkpt><trkpt lat="48.010734352534335" lon="7.040789980186576"><ele>736.4285714285713</ele><time>2026-04-17T08:36:22Z</time></trkpt><trkpt lat="48.010801262527096" lon="7.040728991996136"><ele>705.1428571428571</ele><time>2026-04-17T08:36:31Z</time></trkpt><trkpt lat="48.01087157821968" lon="7.040675854097431"><ele>673.8571428571429</ele><time>2026-04-17T08:36:44Z</time></trkpt><trkpt lat="48.01093503177679" lon="7.040634781106711"><ele>642.5714285714287</ele><time>2026-04-17T08:36:54Z</time></trkpt><trkpt lat="48.0109969436383" lon="7.0406001157761615"><ele>611.2857142857143</ele><time>2026-04-17T08:36:59Z</time></trkpt><trkpt lat="48.011065780720635" lon="7.040566142446606"><ele>580.0</ele><time>2026-04-17T08:37:56Z</time></trkpt><trkpt lat="48.0111279786378" lon="7.040537143354341"><ele>580.0</ele><time>2026-04-17T08:38:02Z</time></trkpt><trkpt lat="48.01119279633016" lon="7.0405070908115555"><ele>580.0</ele><time>2026-04-17T08:38:08Z</time></trkpt><trkpt lat="48.01126000979064" lon="7.040477145669778"><ele>580.0</ele><time>2026-04-17T08:38:14Z</time></trkpt><trkpt lat="48.01132374395651" lon="7.04045281782012"><ele>580.0</ele><time>2026-04-17T08:38:19Z</time></trkpt><trkpt lat="48.01139518135095" lon="7.040436885207772"><ele>580.0</ele><time>2026-04-17T08:38:25Z</time></trkpt><trkpt lat="48.011466272927436" lon="7.040404321303927"><ele>580.0</ele><time>2026-04-17T08:38:32Z</time></trkpt><trkpt lat="48.011529153423965" lon="7.040387338036862"><ele>580.0</ele><time>2026-04-17T08:38:41Z</time></trkpt><trkpt lat="48.01159382464559" lon="7.040367406577538"><ele>582.5714285714286</ele><time>2026-04-17T08:38:46Z</time></trkpt><trkpt lat="48.01166247186051" lon="7.040340615538524"><ele>585.1428571428572</ele><time>2026-04-17T08:38:52Z</time></trkpt><trkpt lat="48.01173353982363" lon="7.040321776641689"><ele>587.7142857142858</ele><time>2026-04-17T08:38:58Z</time></trkpt><trkpt lat="48.01180028472054" lon="7.040296137322873"><ele>590.2857142857143</ele><time>2026-04-17T08:39:04Z</time></trkpt><trkpt lat="48.0118662483142" lon="7.0402687901676915"><ele>592.8571428571429</ele><time>2026-04-17T08:39:10Z</time></trkpt><trkpt lat="48.01192796980899" lon="7.040240003066194"><ele>595.4285714285714</ele><time>2026-04-17T08:39:16Z</time></trkpt><trkpt lat="48.011990260836775" lon="7.040210516724518"><ele>598.0</ele><time>2026-04-17T08:39:22Z</time></trkpt><trkpt lat="48.012052719302" lon="7.0401794200989585"><ele>598.0</ele><time>2026-04-17T08:39:28Z</time></trkpt><trkpt lat="48.01211229320251" lon="7.040134107221826"><ele>598.0</ele><time>2026-04-17T08:39:34Z</time></trkpt><trkpt lat="48.01217277546737" lon="7.040101594328438"><ele>598.0</ele><time>2026-04-17T08:39:40Z</time></trkpt><trkpt lat="48.01223705494612" lon="7.040065570065791"><ele>598.0</ele><time>2026-04-17T08:39:47Z</time></trkpt><trkpt lat="48.01230492118926" lon="7.0400146149795795"><ele>598.0</ele><time>2026-04-17T08:40:04Z</time></trkpt><trkpt lat="48.012369406228885" lon="7.039989784967539"><ele>598.0</ele><time>2026-04-17T08:40:10Z</time></trkpt><trkpt lat="48.012433485661816" lon="7.03994916957272"><ele>598.0</ele><time>2026-04-17T08:40:16Z</time></trkpt><trkpt lat="48.012500672182924" lon="7.039919813211211"><ele>597.2857142857142</ele><time>2026-04-17T08:40:22Z</time></trkpt><trkpt lat="48.01256899864969" lon="7.039892733527497"><ele>596.5714285714286</ele><time>2026-04-17T08:40:28Z</time></trkpt><trkpt lat="48.01263943706401" lon="7.0398586339026785"><ele>595.8571428571429</ele><time>2026-04-17T08:40:34Z</time></trkpt><trkpt lat="48.01270006342669" lon="7.039821447753861"><ele>595.1428571428571</ele><time>2026-04-17T08:40:40Z</time></trkpt><trkpt lat="48.012764218533746" lon="7.039789446148406"><ele>594.4285714285714</ele><time>2026-04-17T08:40:47Z</time></trkpt><trkpt lat="48.01283287408779" lon="7.039750919281277"><ele>593.7142857142857</ele><time>2026-04-17T08:40:54Z</time></trkpt><trkpt lat="48.012897562977784" lon="7.039714655661022"><ele>593.0</ele><time>2026-04-17T08:41:02Z</time></trkpt><trkpt lat="48.01296229923091" lon="7.039675681487859"><ele>592.9999999999999</ele><time>2026-04-17T08:41:09Z</time></trkpt><trkpt lat="48.01302296519871" lon="7.039638528128275"><ele>593.0</ele><time>2026-04-17T08:41:16Z</time></trkpt><trkpt lat="48.01308323448964" lon="7.0395994826998445"><ele>593.0</ele><time>2026-04-17T08:41:22Z</time></trkpt><trkpt lat="48.01314760200347" lon="7.039556150243964"><ele>593.0</ele><time>2026-04-17T08:41:29Z</time></trkpt><trkpt lat="48.01321236403839" lon="7.03951079805755"><ele>593.0</ele><time>2026-04-17T08:41:35Z</time></trkpt><trkpt lat="48.01327003041775" lon="7.039469872356784"><ele>592.9999999999999</ele><time>2026-04-17T08:41:41Z</time></trkpt><trkpt lat="48.0133293496196" lon="7.039427541918317"><ele>593.0</ele><time>2026-04-17T08:41:47Z</time></trkpt><trkpt lat="48.01339361340356" lon="7.039378668776058"><ele>592.9999999999999</ele><time>2026-04-17T08:41:53Z</time></trkpt><trkpt lat="48.013459060962454" lon="7.039328895361348"><ele>593.0</ele><time>2026-04-17T08:41:59Z</time></trkpt><trkpt lat="48.013520514198696" lon="7.039267232625928"><ele>593.0</ele><time>2026-04-17T08:42:06Z</time></trkpt><trkpt lat="48.01357832135294" lon="7.039221842952902"><ele>593.0</ele><time>2026-04-17T08:42:12Z</time></trkpt><trkpt lat="48.01363846378312" lon="7.039166485879924"><ele>593.0</ele><time>2026-04-17T08:42:19Z</time></trkpt><trkpt lat="48.013695384648635" lon="7.039124655824208"><ele>592.9999999999999</ele><time>2026-04-17T08:42:25Z</time></trkpt><trkpt lat="48.01376121829415" lon="7.039074301075431"><ele>593.0</ele><time>2026-04-17T08:42:31Z</time></trkpt><trkpt lat="48.013830098642735" lon="7.039032718499749"><ele>592.9999999999999</ele><time>2026-04-17T08:42:38Z</time></trkpt><trkpt lat="48.01389461758627" lon="7.038977526486477"><ele>593.0</ele><time>2026-04-17T08:42:44Z</time></trkpt><trkpt lat="48.01395389322004" lon="7.0389258607815615"><ele>593.0</ele><time>2026-04-17T08:42:50Z</time></trkpt><trkpt lat="48.014016869188055" lon="7.03886935261625"><ele>593.0</ele><time>2026-04-17T08:42:57Z</time></trkpt><trkpt lat="48.0140755738698" lon="7.038816413867978"><ele>593.0</ele><time>2026-04-17T08:43:03Z</time></trkpt><trkpt lat="48.01413476469709" lon="7.038760574484082"><ele>592.9999999999999</ele><time>2026-04-17T08:43:09Z</time></trkpt><trkpt lat="48.01418873515303" lon="7.038705047440751"><ele>593.0</ele><time>2026-04-17T08:43:15Z</time></trkpt><trkpt lat="48.01424363739865" lon="7.038648318073608"><ele>592.9999999999999</ele><time>2026-04-17T08:43:21Z</time></trkpt><trkpt lat="48.01430121534991" lon="7.0386014112793145"><ele>593.0</ele><time>2026-04-17T08:43:26Z</time></trkpt><trkpt lat="48.01435445180213" lon="7.0385465481217775"><ele>593.0</ele><time>2026-04-17T08:43:32Z</time></trkpt><trkpt lat="48.01441625628618" lon="7.038489708330938"><ele>593.0</ele><time>2026-04-17T08:43:38Z</time></trkpt><trkpt lat="48.01447271387841" lon="7.038428336336708"><ele>593.0</ele><time>2026-04-17T08:43:44Z</time></trkpt><trkpt lat="48.01453603199646" lon="7.03836929308707"><ele>592.9999999999999</ele><time>2026-04-17T08:43:51Z</time></trkpt><trkpt lat="48.0146007837271" lon="7.038321745128557"><ele>593.0</ele><time>2026-04-17T08:43:57Z</time></trkpt><trkpt lat="48.014666348858405" lon="7.038267306028418"><ele>592.9999999999999</ele><time>2026-04-17T08:44:03Z</time></trkpt><trkpt lat="48.014724732014564" lon="7.038218954745191"><ele>593.0</ele><time>2026-04-17T08:44:08Z</time></trkpt><trkpt lat="48.01478943777404" lon="7.038167397103207"><ele>593.0</ele><time>2026-04-17T08:44:14Z</time></trkpt><trkpt lat="48.014848506091944" lon="7.038114350180741"><ele>593.0</ele><time>2026-04-17T08:44:20Z</time></trkpt><trkpt lat="48.01490702518781" lon="7.038056403799326"><ele>593.0</ele><time>2026-04-17T08:44:26Z</time></trkpt><trkpt lat="48.014961856519584" lon="7.037999886969925"><ele>592.9999999999999</ele><time>2026-04-17T08:44:32Z</time></trkpt><trkpt lat="48.01501068852161" lon="7.037938771589001"><ele>593.0</ele><time>2026-04-17T08:44:38Z</time></trkpt><trkpt lat="48.01506774847576" lon="7.037879762199146"><ele>593.4285714285713</ele><time>2026-04-17T08:44:44Z</time></trkpt><trkpt lat="48.015120506451474" lon="7.037809298197787"><ele>593.8571428571429</ele><time>2026-04-17T08:44:50Z</time></trkpt><trkpt lat="48.01517481165206" lon="7.037751523427714"><ele>594.2857142857142</ele><time>2026-04-17T08:44:56Z</time></trkpt><trkpt lat="48.01522432768709" lon="7.037692527519198"><ele>594.7142857142857</ele><time>2026-04-17T08:45:02Z</time></trkpt><trkpt lat="48.015274936617054" lon="7.03761978656029"><ele>595.1428571428571</ele><time>2026-04-17T08:45:08Z</time></trkpt><trkpt lat="48.01532650857976" lon="7.0375574822920495"><ele>595.5714285714286</ele><time>2026-04-17T08:45:14Z</time></trkpt><trkpt lat="48.01537699571333" lon="7.037486694843179"><ele>596.0</ele><time>2026-04-17T08:45:20Z</time></trkpt><trkpt lat="48.015426802364594" lon="7.037411072685339"><ele>596.0</ele><time>2026-04-17T08:45:26Z</time></trkpt><trkpt lat="48.01548387301089" lon="7.037346232596835"><ele>596.0</ele><time>2026-04-17T08:45:32Z</time></trkpt><trkpt lat="48.015535910036334" lon="7.037286431079278"><ele>596.0</ele><time>2026-04-17T08:45:37Z</time></trkpt><trkpt lat="48.015588296135235" lon="7.037220578103222"><ele>596.0</ele><time>2026-04-17T08:45:43Z</time></trkpt><trkpt lat="48.015640430648375" lon="7.0371550413200925"><ele>596.0</ele><time>2026-04-17T08:45:49Z</time></trkpt><trkpt lat="48.015694039995985" lon="7.037086603257925"><ele>596.0</ele><time>2026-04-17T08:45:55Z</time></trkpt><trkpt lat="48.01574872101512" lon="7.037018912770046"><ele>596.0</ele><time>2026-04-17T08:46:02Z</time></trkpt><trkpt lat="48.01579328452686" lon="7.0369444823958585"><ele>597.5714285714286</ele><time>2026-04-17T08:46:08Z</time></trkpt><trkpt lat="48.015840965085246" lon="7.03688192660168"><ele>599.1428571428571</ele><time>2026-04-17T08:46:14Z</time></trkpt><trkpt lat="48.01589208375974" lon="7.036806710039975"><ele>600.7142857142857</ele><time>2026-04-17T08:46:20Z</time></trkpt><trkpt lat="48.01594198985139" lon="7.036730798068515"><ele>602.2857142857142</ele><time>2026-04-17T08:46:26Z</time></trkpt><trkpt lat="48.015995731521954" lon="7.036657783765933"><ele>603.8571428571429</ele><time>2026-04-17T08:46:32Z</time></trkpt><trkpt lat="48.01605142171077" lon="7.036590298224195"><ele>605.4285714285713</ele><time>2026-04-17T08:46:38Z</time></trkpt><trkpt lat="48.0161084073656" lon="7.03652057658874"><ele>607.0</ele><time>2026-04-17T08:46:44Z</time></trkpt><trkpt lat="48.01616716238813" lon="7.036464155721837"><ele>606.9999999999999</ele><time>2026-04-17T08:46:50Z</time></trkpt><trkpt lat="48.01622356225318" lon="7.036417254177142"><ele>607.0</ele><time>2026-04-17T08:46:56Z</time></trkpt><trkpt lat="48.01628706356623" lon="7.036370418229803"><ele>607.0</ele><time>2026-04-17T08:47:02Z</time></trkpt><trkpt lat="48.016351757541116" lon="7.036371165219417"><ele>607.0</ele><time>2026-04-17T08:50:20Z</time></trkpt><trkpt lat="48.01641221178188" lon="7.036320196098115"><ele>607.0</ele><time>2026-04-17T08:50:36Z</time></trkpt><trkpt lat="48.01647805000721" lon="7.036314255952337"><ele>606.9999999999999</ele><time>2026-04-17T08:50:42Z</time></trkpt><trkpt lat="48.016542776804044" lon="7.036306553917725"><ele>607.0</ele><time>2026-04-17T08:50:47Z</time></trkpt><trkpt lat="48.01660639842325" lon="7.036296928331425"><ele>613.1428571428571</ele><time>2026-04-17T08:50:53Z</time></trkpt><trkpt lat="48.01667660847195" lon="7.036285157980175"><ele>619.2857142857142</ele><time>2026-04-17T08:50:59Z</time></trkpt><trkpt lat="48.01673978125135" lon="7.0362629551938305"><ele>625.4285714285713</ele><time>2026-04-17T08:51:05Z</time></trkpt><trkpt lat="48.01680061737443" lon="7.0362025761010285"><ele>631.5714285714286</ele><time>2026-04-17T08:51:12Z</time></trkpt><trkpt lat="48.01687106901706" lon="7.03619158231723"><ele>637.7142857142858</ele><time>2026-04-17T08:51:19Z</time></trkpt><trkpt lat="48.01693621868397" lon="7.036182257217129"><ele>643.8571428571428</ele><time>2026-04-17T08:51:25Z</time></trkpt><trkpt lat="48.01700757411095" lon="7.036159292845136"><ele>650.0</ele><time>2026-04-17T08:51:31Z</time></trkpt><trkpt lat="48.01707768855428" lon="7.036137339025517"><ele>650.0</ele><time>2026-04-17T08:51:37Z</time></trkpt><trkpt lat="48.0171470610783" lon="7.036113618260516"><ele>650.0</ele><time>2026-04-17T08:51:43Z</time></trkpt><trkpt lat="48.017215584660704" lon="7.03607882659736"><ele>650.0</ele><time>2026-04-17T08:51:50Z</time></trkpt><trkpt lat="48.017282003033955" lon="7.036041851897819"><ele>650.0</ele><time>2026-04-17T08:51:57Z</time></trkpt><trkpt lat="48.01734066624783" lon="7.036005525829348"><ele>650.0</ele><time>2026-04-17T08:52:03Z</time></trkpt><trkpt lat="48.01740123445007" lon="7.035967352896524"><ele>650.0</ele><time>2026-04-17T08:52:08Z</time></trkpt><trkpt lat="48.01746632097485" lon="7.03592627788371"><ele>650.0</ele><time>2026-04-17T08:52:14Z</time></trkpt><trkpt lat="48.01752664652564" lon="7.03588821850929"><ele>652.1428571428571</ele><time>2026-04-17T08:52:20Z</time></trkpt><trkpt lat="48.017590766273926" lon="7.035848875523041"><ele>654.2857142857143</ele><time>2026-04-17T08:52:27Z</time></trkpt><trkpt lat="48.01766220249901" lon="7.035807638661094"><ele>656.4285714285714</ele><time>2026-04-17T08:52:34Z</time></trkpt><trkpt lat="48.01772260188232" lon="7.035772772863581"><ele>658.5714285714286</ele><time>2026-04-17T08:52:40Z</time></trkpt><trkpt lat="48.017787849913105" lon="7.03573510816431"><ele>660.7142857142858</ele><time>2026-04-17T08:52:47Z</time></trkpt><trkpt lat="48.01784478423761" lon="7.035693056107328"><ele>662.8571428571429</ele><time>2026-04-17T08:52:52Z</time></trkpt><trkpt lat="48.01790125626988" lon="7.03564971262103"><ele>665.0</ele><time>2026-04-17T08:52:58Z</time></trkpt><trkpt lat="48.017967920464194" lon="7.035593459351869"><ele>665.0</ele><time>2026-04-17T08:53:06Z</time></trkpt><trkpt lat="48.01801630297625" lon="7.035531065537599"><ele>665.0</ele><time>2026-04-17T08:53:13Z</time></trkpt><trkpt lat="48.01805780628865" lon="7.035443942341661"><ele>665.0</ele><time>2026-04-17T08:53:20Z</time></trkpt><trkpt lat="48.018091351862715" lon="7.035340310604192"><ele>665.0</ele><time>2026-04-17T08:53:26Z</time></trkpt><trkpt lat="48.01812555154057" lon="7.035241776010632"><ele>665.0</ele><time>2026-04-17T08:53:31Z</time></trkpt><trkpt lat="48.018169599601755" lon="7.035165463617173"><ele>665.0</ele><time>2026-04-17T08:53:38Z</time></trkpt><trkpt lat="48.018226764797134" lon="7.0351136884128245"><ele>665.0</ele><time>2026-04-17T08:53:44Z</time></trkpt><trkpt lat="48.01829003604924" lon="7.035096280440402"><ele>666.4285714285714</ele><time>2026-04-17T08:53:51Z</time></trkpt><trkpt lat="48.01835830295279" lon="7.035043731919224"><ele>667.8571428571429</ele><time>2026-04-17T08:53:57Z</time></trkpt><trkpt lat="48.01841885198772" lon="7.035011125851705"><ele>669.2857142857142</ele><time>2026-04-17T08:54:02Z</time></trkpt><trkpt lat="48.01848433749828" lon="7.034972815385826"><ele>670.7142857142858</ele><time>2026-04-17T08:54:09Z</time></trkpt><trkpt lat="48.018539526761224" lon="7.034913330618438"><ele>672.1428571428571</ele><time>2026-04-17T08:54:16Z</time></trkpt><trkpt lat="48.0185933711628" lon="7.034857535837147"><ele>673.5714285714286</ele><time>2026-04-17T08:54:22Z</time></trkpt><trkpt lat="48.01865431005697" lon="7.034821709784833"><ele>675.0</ele><time>2026-04-17T08:54:29Z</time></trkpt><trkpt lat="48.01871177544718" lon="7.034764155352557"><ele>675.0</ele><time>2026-04-17T08:54:35Z</time></trkpt><trkpt lat="48.018771448529904" lon="7.0347177365557645"><ele>675.0</ele><time>2026-04-17T08:54:40Z</time></trkpt><trkpt lat="48.018823229987" lon="7.034663753548493"><ele>675.0</ele><time>2026-04-17T08:54:45Z</time></trkpt><trkpt lat="48.0188801201751" lon="7.034594236865625"><ele>675.0</ele><time>2026-04-17T08:54:52Z</time></trkpt><trkpt lat="48.01892895370497" lon="7.034528760241111"><ele>675.0</ele><time>2026-04-17T08:54:57Z</time></trkpt><trkpt lat="48.01898402304078" lon="7.034447886995987"><ele>675.0</ele><time>2026-04-17T08:55:04Z</time></trkpt><trkpt lat="48.01903350732938" lon="7.034378751695899"><ele>675.0</ele><time>2026-04-17T08:55:09Z</time></trkpt><trkpt lat="48.019078645602505" lon="7.0342957264956745"><ele>675.0</ele><time>2026-04-17T08:55:15Z</time></trkpt><trkpt lat="48.0191246098314" lon="7.034225352518684"><ele>675.0</ele><time>2026-04-17T08:55:23Z</time></trkpt><trkpt lat="48.019194664255934" lon="7.034187874997553"><ele>675.0</ele><time>2026-04-17T08:55:29Z</time></trkpt><trkpt lat="48.01925366271759" lon="7.034146982657601"><ele>675.0</ele><time>2026-04-17T08:55:36Z</time></trkpt><trkpt lat="48.01931603582637" lon="7.034115865848943"><ele>675.0</ele><time>2026-04-17T08:55:43Z</time></trkpt><trkpt lat="48.01937995213146" lon="7.034085429914044"><ele>675.0</ele><time>2026-04-17T08:55:50Z</time></trkpt><trkpt lat="48.0194487318738" lon="7.034034041705309"><ele>675.0</ele><time>2026-04-17T08:55:57Z</time></trkpt><trkpt lat="48.01950722483414" lon="7.0339903391869925"><ele>675.7142857142857</ele><time>2026-04-17T08:56:04Z</time></trkpt><trkpt lat="48.01956425464867" lon="7.033947729838146"><ele>676.4285714285714</ele><time>2026-04-17T08:56:09Z</time></trkpt><trkpt lat="48.01963148518688" lon="7.033897499123898"><ele>677.1428571428571</ele><time>2026-04-17T08:56:16Z</time></trkpt><trkpt lat="48.01968955311926" lon="7.033854114153248"><ele>677.8571428571429</ele><time>2026-04-17T08:56:21Z</time></trkpt><trkpt lat="48.01975279792642" lon="7.033891776911019"><ele>678.5714285714286</ele><time>2026-04-17T08:56:25Z</time></trkpt><trkpt lat="48.01981793368247" lon="7.033849729080032"><ele>679.2857142857143</ele><time>2026-04-17T08:56:33Z</time></trkpt><trkpt lat="48.01988559683914" lon="7.033802463112024"><ele>680.0</ele><time>2026-04-17T08:56:39Z</time></trkpt><trkpt lat="48.01995183667264" lon="7.033757607868638"><ele>680.0</ele><time>2026-04-17T08:56:45Z</time></trkpt><trkpt lat="48.01999698498303" lon="7.033681838469842"><ele>680.0</ele><time>2026-04-17T08:56:51Z</time></trkpt><trkpt lat="48.0200449748143" lon="7.033606742095834"><ele>680.0</ele><time>2026-04-17T08:56:57Z</time></trkpt><trkpt lat="48.020094391040956" lon="7.03352910170589"><ele>680.0</ele><time>2026-04-17T08:57:03Z</time></trkpt><trkpt lat="48.02014490094025" lon="7.033454416237671"><ele>680.0</ele><time>2026-04-17T08:57:09Z</time></trkpt><trkpt lat="48.02018742884914" lon="7.033371919387221"><ele>680.0</ele><time>2026-04-17T08:57:15Z</time></trkpt><trkpt lat="48.0202318797454" lon="7.033304898538748"><ele>680.0</ele><time>2026-04-17T08:57:20Z</time></trkpt><trkpt lat="48.02028237551276" lon="7.03322812863358"><ele>680.0</ele><time>2026-04-17T08:57:27Z</time></trkpt><trkpt lat="48.020333561596" lon="7.033162785282711"><ele>680.0</ele><time>2026-04-17T08:57:33Z</time></trkpt><trkpt lat="48.020396443599" lon="7.033103578766631"><ele>680.0</ele><time>2026-04-17T08:57:39Z</time></trkpt><trkpt lat="48.020455416909684" lon="7.0330513467694225"><ele>680.0</ele><time>2026-04-17T08:57:47Z</time></trkpt><trkpt lat="48.02050611578048" lon="7.032993801371907"><ele>680.0</ele><time>2026-04-17T08:57:53Z</time></trkpt><trkpt lat="48.02055268933828" lon="7.032920193143169"><ele>680.0</ele><time>2026-04-17T08:57:59Z</time></trkpt><trkpt lat="48.020614781322905" lon="7.032854084987456"><ele>680.0</ele><time>2026-04-17T08:58:06Z</time></trkpt><trkpt lat="48.02066396788477" lon="7.032793875897339"><ele>680.0</ele><time>2026-04-17T08:58:11Z</time></trkpt><trkpt lat="48.020706608580106" lon="7.032710457901126"><ele>680.0</ele><time>2026-04-17T08:58:18Z</time></trkpt><trkpt lat="48.020748089721216" lon="7.0326290783251855"><ele>680.0</ele><time>2026-04-17T08:58:24Z</time></trkpt><trkpt lat="48.02078940477705" lon="7.032551791565547"><ele>680.0</ele><time>2026-04-17T08:58:30Z</time></trkpt><trkpt lat="48.02083443056433" lon="7.032466870557152"><ele>680.0</ele><time>2026-04-17T08:58:36Z</time></trkpt><trkpt lat="48.02087590869688" lon="7.032391867595492"><ele>680.0</ele><time>2026-04-17T08:58:41Z</time></trkpt><trkpt lat="48.02091840268284" lon="7.032319762460091"><ele>680.0</ele><time>2026-04-17T08:58:47Z</time></trkpt><trkpt lat="48.020954814530114" lon="7.032238410222405"><ele>680.2857142857143</ele><time>2026-04-17T08:58:53Z</time></trkpt><trkpt lat="48.020995210607175" lon="7.0321530710405415"><ele>680.5714285714286</ele><time>2026-04-17T08:58:59Z</time></trkpt><trkpt lat="48.02103226597475" lon="7.032070385016366"><ele>680.8571428571429</ele><time>2026-04-17T08:59:06Z</time></trkpt><trkpt lat="48.021070936843714" lon="7.031981355956448"><ele>681.1428571428571</ele><time>2026-04-17T08:59:12Z</time></trkpt><trkpt lat="48.021082195512086" lon="7.0318883430517936"><ele>681.4285714285714</ele><time>2026-04-17T08:59:17Z</time></trkpt><trkpt lat="48.0210871408191" lon="7.031787217687892"><ele>681.7142857142857</ele><time>2026-04-17T08:59:23Z</time></trkpt><trkpt lat="48.02111163536606" lon="7.03167726076255"><ele>682.0</ele><time>2026-04-17T08:59:29Z</time></trkpt><trkpt lat="48.02113403732305" lon="7.031588274228683"><ele>682.0</ele><time>2026-04-17T08:59:34Z</time></trkpt><trkpt lat="48.02116203825846" lon="7.031489302984312"><ele>682.0</ele><time>2026-04-17T08:59:40Z</time></trkpt><trkpt lat="48.02121944621091" lon="7.031418909226085"><ele>682.0</ele><time>2026-04-17T08:59:46Z</time></trkpt><trkpt lat="48.02127866685725" lon="7.031366241941191"><ele>682.0</ele><time>2026-04-17T08:59:52Z</time></trkpt><trkpt lat="48.02132936633343" lon="7.031297589393946"><ele>682.0</ele><time>2026-04-17T08:59:58Z</time></trkpt><trkpt lat="48.0213955371692" lon="7.031236605669573"><ele>682.0</ele><time>2026-04-17T09:00:05Z</time></trkpt><trkpt lat="48.02145395900622" lon="7.031184469381519"><ele>682.0</ele><time>2026-04-17T09:00:11Z</time></trkpt><trkpt lat="48.021501236004305" lon="7.0311137666629575"><ele>682.0</ele><time>2026-04-17T09:00:17Z</time></trkpt><trkpt lat="48.02154137915474" lon="7.031040939204482"><ele>682.0</ele><time>2026-04-17T09:00:22Z</time></trkpt><trkpt lat="48.021562810068374" lon="7.030946826182806"><ele>682.0</ele><time>2026-04-17T09:00:27Z</time></trkpt><trkpt lat="48.021576598094185" lon="7.030841481651947"><ele>682.0</ele><time>2026-04-17T09:00:33Z</time></trkpt><trkpt lat="48.02158686885849" lon="7.030733616713714"><ele>682.0</ele><time>2026-04-17T09:00:39Z</time></trkpt><trkpt lat="48.021616023794635" lon="7.0306483407026645"><ele>682.0</ele><time>2026-04-17T09:00:45Z</time></trkpt><trkpt lat="48.02164597298952" lon="7.0305652963355465"><ele>682.0</ele><time>2026-04-17T09:00:53Z</time></trkpt><trkpt lat="48.02169570133046" lon="7.030505772980488"><ele>690.3333333333334</ele><time>2026-04-17T09:01:01Z</time></trkpt><trkpt lat="48.021756350808026" lon="7.030446044429536"><ele>698.6666666666667</ele><time>2026-04-17T09:01:20Z</time></trkpt><trkpt lat="48.02180389017157" lon="7.030373885172691"><ele>707.0</ele><time>2026-04-17T09:02:01Z</time></trkpt><trkpt lat="48.0218446199913" lon="7.030287797878146"><ele>715.3333333333334</ele><time>2026-04-17T09:02:08Z</time></trkpt><trkpt lat="48.02188036618778" lon="7.030381580815879"><ele>723.6666666666666</ele><time>2026-04-17T09:02:17Z</time></trkpt><trkpt lat="48.021872381368375" lon="7.030478246603539"><ele>732.0</ele><time>2026-04-17T09:02:21Z</time></trkpt><trkpt lat="48.02209568371288" lon="7.030138333235824"><ele>732.0</ele><time>2026-04-17T09:02:23Z</time></trkpt><trkpt lat="48.02188642071485" lon="7.029985914613388"><ele>732.0</ele><time>2026-04-17T09:02:24Z</time></trkpt><trkpt lat="48.021878682660926" lon="7.02988344009224"><ele>732.0</ele><time>2026-04-17T09:02:32Z</time></trkpt><trkpt lat="48.02187081673414" lon="7.029783505739072"><ele>732.0</ele><time>2026-04-17T09:02:38Z</time></trkpt><trkpt lat="48.02186889580839" lon="7.029686030492763"><ele>732.0</ele><time>2026-04-17T09:02:43Z</time></trkpt><trkpt lat="48.021880596934444" lon="7.029571521788987"><ele>731.2857142857143</ele><time>2026-04-17T09:02:49Z</time></trkpt><trkpt lat="48.02188854743654" lon="7.029470968065567"><ele>730.5714285714287</ele><time>2026-04-17T09:02:55Z</time></trkpt><trkpt lat="48.02189289025984" lon="7.029361891409541"><ele>729.8571428571429</ele><time>2026-04-17T09:03:01Z</time></trkpt><trkpt lat="48.02190103185821" lon="7.029253340526324"><ele>729.1428571428571</ele><time>2026-04-17T09:03:08Z</time></trkpt><trkpt lat="48.021931443950386" lon="7.029162988320098"><ele>728.4285714285714</ele><time>2026-04-17T09:03:14Z</time></trkpt><trkpt lat="48.021973740126974" lon="7.029071616740376"><ele>727.7142857142857</ele><time>2026-04-17T09:03:20Z</time></trkpt><trkpt lat="48.022010147477054" lon="7.028994176137807"><ele>727.0</ele><time>2026-04-17T09:03:26Z</time></trkpt><trkpt lat="48.02207037666638" lon="7.028943193559188"><ele>727.0</ele><time>2026-04-17T09:03:33Z</time></trkpt><trkpt lat="48.02213992928958" lon="7.0289001431907145"><ele>727.0</ele><time>2026-04-17T09:03:40Z</time></trkpt><trkpt lat="48.02219934419102" lon="7.028859532271601"><ele>727.0</ele><time>2026-04-17T09:03:46Z</time></trkpt><trkpt lat="48.022260923638996" lon="7.028819439410082"><ele>727.0</ele><time>2026-04-17T09:03:52Z</time></trkpt><trkpt lat="48.02231975091682" lon="7.028763564096802"><ele>727.0</ele><time>2026-04-17T09:03:59Z</time></trkpt><trkpt lat="48.022381064361824" lon="7.028717639454627"><ele>727.0</ele><time>2026-04-17T09:04:06Z</time></trkpt><trkpt lat="48.02245341138007" lon="7.028693628324748"><ele>727.0</ele><time>2026-04-17T09:04:12Z</time></trkpt><trkpt lat="48.02251563372336" lon="7.028627058142943"><ele>732.5714285714286</ele><time>2026-04-17T09:04:20Z</time></trkpt><trkpt lat="48.022567595938085" lon="7.028566089423473"><ele>738.1428571428572</ele><time>2026-04-17T09:04:26Z</time></trkpt><trkpt lat="48.0226125851287" lon="7.028482515983788"><ele>743.7142857142858</ele><time>2026-04-17T09:04:34Z</time></trkpt><trkpt lat="48.02265921862308" lon="7.028410503479365"><ele>749.2857142857142</ele><time>2026-04-17T09:04:41Z</time></trkpt><trkpt lat="48.02270362060882" lon="7.028323295197375"><ele>754.8571428571429</ele><time>2026-04-17T09:04:47Z</time></trkpt><trkpt lat="48.0227553741126" lon="7.028253550032712"><ele>760.4285714285714</ele><time>2026-04-17T09:04:54Z</time></trkpt><trkpt lat="48.02278776983403" lon="7.028157400950525"><ele>766.0</ele><time>2026-04-17T09:04:59Z</time></trkpt><trkpt lat="48.02282485915842" lon="7.0280748962417885"><ele>766.2857142857142</ele><time>2026-04-17T09:05:07Z</time></trkpt><trkpt lat="48.022844235568066" lon="7.027980579788504"><ele>766.5714285714286</ele><time>2026-04-17T09:05:12Z</time></trkpt><trkpt lat="48.022851225713886" lon="7.02786842209251"><ele>766.8571428571429</ele><time>2026-04-17T09:05:19Z</time></trkpt><trkpt lat="48.022867889908824" lon="7.027771583354893"><ele>767.1428571428571</ele><time>2026-04-17T09:05:25Z</time></trkpt><trkpt lat="48.02288714858315" lon="7.027681019984542"><ele>767.4285714285714</ele><time>2026-04-17T09:05:33Z</time></trkpt><trkpt lat="48.02289882023918" lon="7.027558680590737"><ele>767.7142857142857</ele><time>2026-04-17T09:05:40Z</time></trkpt><trkpt lat="48.02290321199568" lon="7.02744863311578"><ele>768.0</ele><time>2026-04-17T09:05:49Z</time></trkpt><trkpt lat="48.02291113338237" lon="7.027340821965742"><ele>769.1428571428571</ele><time>2026-04-17T09:05:54Z</time></trkpt><trkpt lat="48.02294740149283" lon="7.0272395284939195"><ele>770.2857142857142</ele><time>2026-04-17T09:06:00Z</time></trkpt><trkpt lat="48.023009685679725" lon="7.0271779046232234"><ele>771.4285714285713</ele><time>2026-04-17T09:06:06Z</time></trkpt><trkpt lat="48.023074984052066" lon="7.027124823215863"><ele>772.5714285714286</ele><time>2026-04-17T09:06:14Z</time></trkpt><trkpt lat="48.02312759956978" lon="7.027056874642486"><ele>773.7142857142858</ele><time>2026-04-17T09:06:21Z</time></trkpt><trkpt lat="48.023185933670256" lon="7.027017915079555"><ele>774.8571428571428</ele><time>2026-04-17T09:06:27Z</time></trkpt><trkpt lat="48.023227395903724" lon="7.026938239254557"><ele>776.0</ele><time>2026-04-17T09:06:32Z</time></trkpt><trkpt lat="48.02328254653955" lon="7.026883329834555"><ele>778.1428571428571</ele><time>2026-04-17T09:06:38Z</time></trkpt><trkpt lat="48.02334916016741" lon="7.026843670169055"><ele>780.2857142857143</ele><time>2026-04-17T09:06:45Z</time></trkpt><trkpt lat="48.02338794163902" lon="7.026766786749249"><ele>782.4285714285714</ele><time>2026-04-17T09:06:50Z</time></trkpt><trkpt lat="48.023430416348724" lon="7.0266882351037925"><ele>784.5714285714286</ele><time>2026-04-17T09:06:56Z</time></trkpt><trkpt lat="48.02346221600247" lon="7.026583961392975"><ele>786.7142857142858</ele><time>2026-04-17T09:07:02Z</time></trkpt><trkpt lat="48.023461274860416" lon="7.026485098204023"><ele>788.8571428571429</ele><time>2026-04-17T09:07:10Z</time></trkpt><trkpt lat="48.02351495554274" lon="7.026397711425379"><ele>791.0</ele><time>2026-04-17T09:07:16Z</time></trkpt><trkpt lat="48.023520705052135" lon="7.026285417933661"><ele>791.0</ele><time>2026-04-17T09:07:22Z</time></trkpt><trkpt lat="48.0235250689392" lon="7.02617626114257"><ele>791.0</ele><time>2026-04-17T09:07:28Z</time></trkpt><trkpt lat="48.02356270173331" lon="7.026096234271481"><ele>791.0</ele><time>2026-04-17T09:07:33Z</time></trkpt><trkpt lat="48.02359321400875" lon="7.02600859655146"><ele>791.0</ele><time>2026-04-17T09:07:38Z</time></trkpt><trkpt lat="48.0236251190907" lon="7.025927011829161"><ele>791.0</ele><time>2026-04-17T09:07:45Z</time></trkpt><trkpt lat="48.023638672678906" lon="7.025823541278212"><ele>791.0</ele><time>2026-04-17T09:07:52Z</time></trkpt><trkpt lat="48.023604577257636" lon="7.025742471151875"><ele>791.0</ele><time>2026-04-17T09:08:54Z</time></trkpt><trkpt lat="48.023632539543776" lon="7.025650131361089"><ele>792.1428571428571</ele><time>2026-04-17T09:09:04Z</time></trkpt><trkpt lat="48.02361312441339" lon="7.025551285583615"><ele>793.2857142857142</ele><time>2026-04-17T09:09:09Z</time></trkpt><trkpt lat="48.02360407342889" lon="7.025440349997095"><ele>794.4285714285714</ele><time>2026-04-17T09:09:15Z</time></trkpt><trkpt lat="48.023597091754795" lon="7.025330751056843"><ele>795.5714285714286</ele><time>2026-04-17T09:09:21Z</time></trkpt><trkpt lat="48.02357304149999" lon="7.0252289111408786"><ele>796.7142857142857</ele><time>2026-04-17T09:09:27Z</time></trkpt><trkpt lat="48.023554258782156" lon="7.025129521862243"><ele>797.8571428571429</ele><time>2026-04-17T09:09:34Z</time></trkpt><trkpt lat="48.023539109169086" lon="7.025027404077891"><ele>799.0</ele><time>2026-04-17T09:09:39Z</time></trkpt><trkpt lat="48.0235384735271" lon="7.024930354478431"><ele>800.0</ele><time>2026-04-17T09:09:44Z</time></trkpt><trkpt lat="48.023536699775406" lon="7.024826108244703"><ele>801.0</ele><time>2026-04-17T09:09:49Z</time></trkpt><trkpt lat="48.0235142730176" lon="7.024724032502088"><ele>802.0</ele><time>2026-04-17T09:09:55Z</time></trkpt><trkpt lat="48.023467881290706" lon="7.024645954070646"><ele>803.0</ele><time>2026-04-17T09:10:57Z</time></trkpt><trkpt lat="48.02352788380345" lon="7.0245973991254855"><ele>804.0</ele><time>2026-04-17T09:11:13Z</time></trkpt><trkpt lat="48.02352699287963" lon="7.024489897551445"><ele>805.0</ele><time>2026-04-17T09:11:22Z</time></trkpt><trkpt lat="48.023510692138835" lon="7.024392740712895"><ele>806.0</ele><time>2026-04-17T09:11:29Z</time></trkpt><trkpt lat="48.023507541555176" lon="7.024285951948237"><ele>806.0</ele><time>2026-04-17T09:11:36Z</time></trkpt><trkpt lat="48.02347944702265" lon="7.024194667081094"><ele>806.0</ele><time>2026-04-17T09:11:43Z</time></trkpt><trkpt lat="48.0234306493766" lon="7.024126496970526"><ele>806.0</ele><time>2026-04-17T09:11:51Z</time></trkpt><trkpt lat="48.02343613580927" lon="7.024014161377127"><ele>806.0</ele><time>2026-04-17T09:11:59Z</time></trkpt><trkpt lat="48.02342408257835" lon="7.023911640070861"><ele>806.0</ele><time>2026-04-17T09:12:08Z</time></trkpt><trkpt lat="48.023402023933976" lon="7.023818794464605"><ele>806.0</ele><time>2026-04-17T09:12:27Z</time></trkpt><trkpt lat="48.02346448184581" lon="7.023806567198601"><ele>806.0</ele><time>2026-04-17T09:13:36Z</time></trkpt><trkpt lat="48.023391028354986" lon="7.02379816475837"><ele>807.7142857142858</ele><time>2026-04-17T09:13:58Z</time></trkpt><trkpt lat="48.02345484360328" lon="7.0238531424472805"><ele>809.4285714285713</ele><time>2026-04-17T09:15:37Z</time></trkpt><trkpt lat="48.02351949757134" lon="7.023829867670734"><ele>811.1428571428571</ele><time>2026-04-17T09:16:56Z</time></trkpt><trkpt lat="48.02358851475279" lon="7.02385476376942"><ele>812.8571428571429</ele><time>2026-04-17T09:17:02Z</time></trkpt><trkpt lat="48.02364627171702" lon="7.023894339209777"><ele>814.5714285714287</ele><time>2026-04-17T09:17:08Z</time></trkpt><trkpt lat="48.02369810913813" lon="7.023948875031754"><ele>816.2857142857142</ele><time>2026-04-17T09:17:23Z</time></trkpt><trkpt lat="48.023710879840955" lon="7.024042273098858"><ele>818.0</ele><time>2026-04-17T09:17:27Z</time></trkpt><trkpt lat="48.02372616132128" lon="7.024144446547224"><ele>816.2857142857142</ele><time>2026-04-17T09:17:33Z</time></trkpt><trkpt lat="48.02374657359937" lon="7.0242376684193895"><ele>814.5714285714287</ele><time>2026-04-17T09:18:04Z</time></trkpt><trkpt lat="48.02379703709113" lon="7.024305561189744"><ele>812.8571428571429</ele><time>2026-04-17T09:18:16Z</time></trkpt><trkpt lat="48.02382637912932" lon="7.0243940686845265"><ele>811.1428571428571</ele><time>2026-04-17T09:18:31Z</time></trkpt><trkpt lat="48.02387333361322" lon="7.024459188475941"><ele>809.4285714285713</ele><time>2026-04-17T09:18:38Z</time></trkpt><trkpt lat="48.02388355082497" lon="7.0245586555570725"><ele>807.7142857142858</ele><time>2026-04-17T09:18:44Z</time></trkpt><trkpt lat="48.02390095483575" lon="7.024651275134818"><ele>806.0</ele><time>2026-04-17T09:18:52Z</time></trkpt><trkpt lat="48.02395324913491" lon="7.024728477311428"><ele>806.0</ele><time>2026-04-17T09:19:02Z</time></trkpt><trkpt lat="48.024011300761266" lon="7.024766450525724"><ele>806.0</ele><time>2026-04-17T09:19:12Z</time></trkpt><trkpt lat="48.0240617900183" lon="7.024841360097564"><ele>806.0</ele><time>2026-04-17T09:19:21Z</time></trkpt><trkpt lat="48.02408590589338" lon="7.024944204374581"><ele>806.0</ele><time>2026-04-17T09:19:31Z</time></trkpt><trkpt lat="48.02411665897104" lon="7.025028791487223"><ele>806.0</ele><time>2026-04-17T09:19:35Z</time></trkpt><trkpt lat="48.024150997308546" lon="7.025110325358153"><ele>806.0</ele><time>2026-04-17T09:19:40Z</time></trkpt><trkpt lat="48.024195052305735" lon="7.025191537417175"><ele>806.0</ele><time>2026-04-17T09:19:45Z</time></trkpt><trkpt lat="48.02424327758605" lon="7.025286349983385"><ele>809.7142857142858</ele><time>2026-04-17T09:19:59Z</time></trkpt><trkpt lat="48.02423592662301" lon="7.02515918803237"><ele>813.4285714285713</ele><time>2026-04-17T09:20:11Z</time></trkpt><trkpt lat="48.024288004550776" lon="7.025229129952778"><ele>817.1428571428571</ele><time>2026-04-17T09:20:28Z</time></trkpt><trkpt lat="48.02431087192811" lon="7.025322101875888"><ele>820.8571428571429</ele><time>2026-04-17T09:20:35Z</time></trkpt><trkpt lat="48.024323741374" lon="7.0254205689479186"><ele>824.5714285714287</ele><time>2026-04-17T09:20:41Z</time></trkpt><trkpt lat="48.02434730867706" lon="7.025508017388799"><ele>828.2857142857142</ele><time>2026-04-17T09:20:51Z</time></trkpt><trkpt lat="48.024368225824674" lon="7.025602984104016"><ele>832.0</ele><time>2026-04-17T09:20:56Z</time></trkpt><trkpt lat="48.02437000943053" lon="7.025713776688257"><ele>831.5714285714286</ele><time>2026-04-17T09:21:07Z</time></trkpt><trkpt lat="48.02436999737802" lon="7.025824903366936"><ele>831.1428571428572</ele><time>2026-04-17T09:21:17Z</time></trkpt><trkpt lat="48.02441247341993" lon="7.025902437779598"><ele>830.7142857142858</ele><time>2026-04-17T09:21:32Z</time></trkpt><trkpt lat="48.02440654576085" lon="7.026014413576084"><ele>830.2857142857142</ele><time>2026-04-17T09:21:40Z</time></trkpt><trkpt lat="48.024428593805396" lon="7.026114158806926"><ele>829.8571428571429</ele><time>2026-04-17T09:21:48Z</time></trkpt><trkpt lat="48.02446039923425" lon="7.026207355430532"><ele>829.4285714285714</ele><time>2026-04-17T09:21:55Z</time></trkpt><trkpt lat="48.02450442630013" lon="7.026293784798384"><ele>829.0</ele><time>2026-04-17T09:22:01Z</time></trkpt><trkpt lat="48.02455632801832" lon="7.026366369399199"><ele>829.0</ele><time>2026-04-17T09:22:09Z</time></trkpt><trkpt lat="48.02458292705923" lon="7.026280367843943"><ele>829.0</ele><time>2026-04-17T09:22:20Z</time></trkpt><trkpt lat="48.024545238071234" lon="7.026201398604382"><ele>829.0</ele><time>2026-04-17T09:22:29Z</time></trkpt><trkpt lat="48.02448614611447" lon="7.026166956778837"><ele>829.0</ele><time>2026-04-17T09:22:45Z</time></trkpt><trkpt lat="48.024505520256" lon="7.026065022891475"><ele>829.0</ele><time>2026-04-17T09:22:58Z</time></trkpt><trkpt lat="48.024518814385296" lon="7.0259724835318345"><ele>829.0</ele><time>2026-04-17T09:23:06Z</time></trkpt><trkpt lat="48.02456062048907" lon="7.025888693842538"><ele>829.0</ele><time>2026-04-17T09:23:20Z</time></trkpt><trkpt lat="48.024593150273546" lon="7.02580734199902"><ele>829.0</ele><time>2026-04-17T09:23:27Z</time></trkpt><trkpt lat="48.02462192453497" lon="7.025701381049598"><ele>829.0</ele><time>2026-04-17T09:23:38Z</time></trkpt><trkpt lat="48.02458589514041" lon="7.025787799895085"><ele>829.0</ele><time>2026-04-17T09:23:58Z</time></trkpt><trkpt lat="48.02462184630783" lon="7.025875928725616"><ele>829.0</ele><time>2026-04-17T09:24:08Z</time></trkpt><trkpt lat="48.024639345827744" lon="7.025967362783063"><ele>829.0</ele><time>2026-04-17T09:24:31Z</time></trkpt><trkpt lat="48.024696143969436" lon="7.02591728964558"><ele>829.0</ele><time>2026-04-17T09:25:03Z</time></trkpt><trkpt lat="48.024740782141045" lon="7.025836513306171"><ele>829.0</ele><time>2026-04-17T09:26:38Z</time></trkpt><trkpt lat="48.02477417699817" lon="7.025749588972265"><ele>829.4999999999999</ele><time>2026-04-17T09:26:47Z</time></trkpt><trkpt lat="48.02477108988991" lon="7.0256374110338236"><ele>830.0</ele><time>2026-04-17T09:27:01Z</time></trkpt><trkpt lat="48.02478679148898" lon="7.025536448875832"><ele>830.5</ele><time>2026-04-17T09:27:08Z</time></trkpt><trkpt lat="48.02483996194648" lon="7.02541342493436"><ele>831.0</ele><time>2026-04-17T09:27:35Z</time></trkpt><trkpt lat="48.024884777686324" lon="7.0255023593050545"><ele>831.4999999999999</ele><time>2026-04-17T09:28:21Z</time></trkpt><trkpt lat="48.02488107761896" lon="7.025603055280234"><ele>832.0</ele><time>2026-04-17T09:28:32Z</time></trkpt><trkpt lat="48.024857905597024" lon="7.025695825469045"><ele>831.9999999999999</ele><time>2026-04-17T09:28:43Z</time></trkpt><trkpt lat="48.024869099900656" lon="7.02581343233264"><ele>832.0</ele><time>2026-04-17T09:28:56Z</time></trkpt><trkpt lat="48.02486413259995" lon="7.025909736289984"><ele>832.0</ele><time>2026-04-17T09:29:05Z</time></trkpt><trkpt lat="48.02495916967998" lon="7.0259846615138635"><ele>832.0</ele><time>2026-04-17T09:29:32Z</time></trkpt><trkpt lat="48.02496910244019" lon="7.025872708583102"><ele>831.9999999999999</ele><time>2026-04-17T09:30:14Z</time></trkpt><trkpt lat="48.02496592885135" lon="7.025774374046741"><ele>832.0</ele><time>2026-04-17T09:30:20Z</time></trkpt><trkpt lat="48.02495922932558" lon="7.025677097306955"><ele>837.4285714285714</ele><time>2026-04-17T09:30:27Z</time></trkpt><trkpt lat="48.024985166753254" lon="7.025766520685678"><ele>842.8571428571429</ele><time>2026-04-17T09:30:48Z</time></trkpt><trkpt lat="48.02498663803973" lon="7.025861248939983"><ele>848.2857142857143</ele><time>2026-04-17T09:31:00Z</time></trkpt><trkpt lat="48.02500592872643" lon="7.025959090822186"><ele>853.7142857142858</ele><time>2026-04-17T09:31:11Z</time></trkpt><trkpt lat="48.0250358947976" lon="7.026045810526528"><ele>859.1428571428571</ele><time>2026-04-17T09:31:19Z</time></trkpt><trkpt lat="48.0250720849646" lon="7.026126247233472"><ele>864.5714285714287</ele><time>2026-04-17T09:31:41Z</time></trkpt><trkpt lat="48.02513944574245" lon="7.026157353962683"><ele>870.0</ele><time>2026-04-17T09:32:15Z</time></trkpt><trkpt lat="48.02518664196976" lon="7.026222461977016"><ele>870.0000000000001</ele><time>2026-04-17T09:32:21Z</time></trkpt><trkpt lat="48.02523219133136" lon="7.026293789600902"><ele>870.0</ele><time>2026-04-17T09:32:28Z</time></trkpt><trkpt lat="48.02529138342512" lon="7.026341474488365"><ele>870.0</ele><time>2026-04-17T09:32:37Z</time></trkpt><trkpt lat="48.02536815857011" lon="7.026368601848398"><ele>870.0</ele><time>2026-04-17T09:32:56Z</time></trkpt><trkpt lat="48.02543552388452" lon="7.026419177324494"><ele>870.0</ele><time>2026-04-17T09:33:08Z</time></trkpt><trkpt lat="48.02547691703474" lon="7.02649190768215"><ele>870.0000000000001</ele><time>2026-04-17T09:33:15Z</time></trkpt><trkpt lat="48.02552231845991" lon="7.0265585473741465"><ele>870.0</ele><time>2026-04-17T09:33:25Z</time></trkpt><trkpt lat="48.025568285271206" lon="7.026628030599643"><ele>869.8571428571429</ele><time>2026-04-17T09:33:33Z</time></trkpt><trkpt lat="48.02561174374178" lon="7.026709554720007"><ele>869.7142857142858</ele><time>2026-04-17T09:33:40Z</time></trkpt><trkpt lat="48.025698207438616" lon="7.0267203360739945"><ele>869.5714285714287</ele><time>2026-04-17T09:33:47Z</time></trkpt><trkpt lat="48.02576261207859" lon="7.026691850683987"><ele>869.4285714285714</ele><time>2026-04-17T09:33:55Z</time></trkpt><trkpt lat="48.02583262758393" lon="7.026693480367688"><ele>869.2857142857142</ele><time>2026-04-17T09:34:01Z</time></trkpt><trkpt lat="48.02588831689073" lon="7.0266379677687185"><ele>869.1428571428572</ele><time>2026-04-17T09:34:07Z</time></trkpt><trkpt lat="48.02595232177805" lon="7.026609576875357"><ele>869.0</ele><time>2026-04-17T09:34:12Z</time></trkpt><trkpt lat="48.02599965293395" lon="7.0265446560112625"><ele>873.2857142857143</ele><time>2026-04-17T09:34:19Z</time></trkpt><trkpt lat="48.026048506232065" lon="7.026485217073081"><ele>877.5714285714284</ele><time>2026-04-17T09:34:24Z</time></trkpt><trkpt lat="48.026127789926896" lon="7.02648130956021"><ele>881.8571428571428</ele><time>2026-04-17T09:34:34Z</time></trkpt><trkpt lat="48.02618832882336" lon="7.026446224121023"><ele>886.1428571428571</ele><time>2026-04-17T09:34:43Z</time></trkpt><trkpt lat="48.026242615834164" lon="7.026391726894328"><ele>890.4285714285713</ele><time>2026-04-17T09:34:47Z</time></trkpt><trkpt lat="48.026299589322925" lon="7.026445420390118"><ele>894.7142857142856</ele><time>2026-04-17T09:35:03Z</time></trkpt><trkpt lat="48.0263504006064" lon="7.026514513709764"><ele>898.9999999999999</ele><time>2026-04-17T09:35:06Z</time></trkpt><trkpt lat="48.02637222356812" lon="7.026617831704239"><ele>898.6666666666667</ele><time>2026-04-17T09:35:09Z</time></trkpt><trkpt lat="48.02641363887381" lon="7.0267127253936525"><ele>898.3333333333334</ele><time>2026-04-17T09:35:13Z</time></trkpt><trkpt lat="48.026498440337434" lon="7.0267840713286"><ele>898.0</ele><time>2026-04-17T09:35:33Z</time></trkpt><trkpt lat="48.026574012092205" lon="7.0267386325557295"><ele>897.6666666666667</ele><time>2026-04-17T09:35:37Z</time></trkpt><trkpt lat="48.02663899653196" lon="7.026700786910941"><ele>897.3333333333334</ele><time>2026-04-17T09:35:43Z</time></trkpt><trkpt lat="48.02671119850803" lon="7.026722285797274"><ele>897.0</ele><time>2026-04-17T09:35:51Z</time></trkpt><trkpt lat="48.02677205372767" lon="7.026747429832767"><ele>897.0</ele><time>2026-04-17T09:35:59Z</time></trkpt><trkpt lat="48.02682450495307" lon="7.026808094231636"><ele>897.0</ele><time>2026-04-17T09:36:06Z</time></trkpt><trkpt lat="48.02687529192902" lon="7.026890135733338"><ele>897.0</ele><time>2026-04-17T09:36:14Z</time></trkpt><trkpt lat="48.026938824027255" lon="7.026919822241985"><ele>897.0</ele><time>2026-04-17T09:36:21Z</time></trkpt><trkpt lat="48.027007939746824" lon="7.026866529078802"><ele>897.0</ele><time>2026-04-17T09:36:33Z</time></trkpt><trkpt lat="48.02708083594643" lon="7.026869235685915"><ele>897.0</ele><time>2026-04-17T09:36:52Z</time></trkpt><trkpt lat="48.02714203292121" lon="7.0268405109854655"><ele>897.0</ele><time>2026-04-17T09:36:58Z</time></trkpt><trkpt lat="48.027214177955535" lon="7.026858831190318"><ele>897.0</ele><time>2026-04-17T09:37:04Z</time></trkpt><trkpt lat="48.02730015200281" lon="7.0268216048929375"><ele>897.0</ele><time>2026-04-17T09:37:13Z</time></trkpt><trkpt lat="48.027364451988475" lon="7.026858720528345"><ele>897.0</ele><time>2026-04-17T09:37:25Z</time></trkpt><trkpt lat="48.02743557890163" lon="7.026852706379509"><ele>897.0</ele><time>2026-04-17T09:37:35Z</time></trkpt><trkpt lat="48.027500584578654" lon="7.026864428567141"><ele>897.0</ele><time>2026-04-17T09:37:42Z</time></trkpt><trkpt lat="48.02756658465063" lon="7.026838113652028"><ele>897.0</ele><time>2026-04-17T09:37:50Z</time></trkpt><trkpt lat="48.027629035715755" lon="7.026864561494644"><ele>897.0</ele><time>2026-04-17T09:37:58Z</time></trkpt><trkpt lat="48.02769747019281" lon="7.026884603803103"><ele>899.8333333333334</ele><time>2026-04-17T09:38:05Z</time></trkpt><trkpt lat="48.027760705817094" lon="7.026848103394776"><ele>902.6666666666667</ele><time>2026-04-17T09:38:18Z</time></trkpt><trkpt lat="48.02782959781944" lon="7.026750317913114"><ele>905.5</ele><time>2026-04-17T09:38:42Z</time></trkpt><trkpt lat="48.02789301990164" lon="7.026717594635161"><ele>908.3333333333334</ele><time>2026-04-17T09:38:53Z</time></trkpt><trkpt lat="48.02795488977683" lon="7.026684940551017"><ele>911.1666666666667</ele><time>2026-04-17T09:39:01Z</time></trkpt><trkpt lat="48.02801527242175" lon="7.026628985218093"><ele>914.0</ele><time>2026-04-17T09:39:23Z</time></trkpt><trkpt lat="48.0280976493401" lon="7.026540733826729"><ele>916.4285714285716</ele><time>2026-04-17T09:39:35Z</time></trkpt><trkpt lat="48.028112477319716" lon="7.0264020882477665"><ele>918.8571428571429</ele><time>2026-04-17T09:40:00Z</time></trkpt><trkpt lat="48.028045753468895" lon="7.026417006907215"><ele>921.2857142857143</ele><time>2026-04-17T09:40:05Z</time></trkpt><trkpt lat="48.02799413631201" lon="7.02648342498327"><ele>923.7142857142858</ele><time>2026-04-17T09:40:21Z</time></trkpt><trkpt lat="48.028037974974005" lon="7.026371220932374"><ele>926.1428571428571</ele><time>2026-04-17T09:40:34Z</time></trkpt><trkpt lat="48.02805645516498" lon="7.026276383582514"><ele>928.5714285714286</ele><time>2026-04-17T09:41:08Z</time></trkpt><trkpt lat="48.028107342763974" lon="7.0262149046519635"><ele>931.0</ele><time>2026-04-17T09:41:13Z</time></trkpt><trkpt lat="48.02816419112877" lon="7.026168781129644"><ele>931.0</ele><time>2026-04-17T09:41:22Z</time></trkpt><trkpt lat="48.02822381588424" lon="7.026132145967316"><ele>931.0</ele><time>2026-04-17T09:41:32Z</time></trkpt><trkpt lat="48.02827164661264" lon="7.0260347150907965"><ele>931.0</ele><time>2026-04-17T09:41:39Z</time></trkpt><trkpt lat="48.02828257516382" lon="7.025940845472982"><ele>931.0</ele><time>2026-04-17T09:41:48Z</time></trkpt><trkpt lat="48.02831440306272" lon="7.025855450177913"><ele>931.0</ele><time>2026-04-17T09:41:56Z</time></trkpt><trkpt lat="48.02833669001728" lon="7.025760749684321"><ele>931.0</ele><time>2026-04-17T09:42:07Z</time></trkpt><trkpt lat="48.028374726835146" lon="7.025674432841185"><ele>931.0</ele><time>2026-04-17T09:42:18Z</time></trkpt><trkpt lat="48.028416601579124" lon="7.025589667342329"><ele>933.4999999999999</ele><time>2026-04-17T09:42:26Z</time></trkpt><trkpt lat="48.028407088818824" lon="7.025482316995453"><ele>936.0</ele><time>2026-04-17T09:42:39Z</time></trkpt><trkpt lat="48.028435250429226" lon="7.025390065206083"><ele>938.5</ele><time>2026-04-17T09:42:44Z</time></trkpt><trkpt lat="48.02854945458507" lon="7.025429882244455"><ele>941.0</ele><time>2026-04-17T09:43:16Z</time></trkpt><trkpt lat="48.02861769386675" lon="7.025491141605835"><ele>943.4999999999999</ele><time>2026-04-17T09:44:28Z</time></trkpt><trkpt lat="48.028593848431406" lon="7.025588264343826"><ele>946.0</ele><time>2026-04-17T09:50:52Z</time></trkpt><trkpt lat="48.028595352938815" lon="7.02568976208436"><ele>946.0</ele><time>2026-04-17T09:51:07Z</time></trkpt><trkpt lat="48.028623450257484" lon="7.025777426288085"><ele>946.0</ele><time>2026-04-17T09:51:14Z</time></trkpt><trkpt lat="48.028649517725874" lon="7.025865175929645"><ele>946.0</ele><time>2026-04-17T09:51:20Z</time></trkpt><trkpt lat="48.02867695681471" lon="7.025950220684657"><ele>946.0</ele><time>2026-04-17T09:51:26Z</time></trkpt><trkpt lat="48.028712714166126" lon="7.026040565412436"><ele>946.0</ele><time>2026-04-17T09:51:33Z</time></trkpt><trkpt lat="48.02874837182497" lon="7.026134531873284"><ele>946.0</ele><time>2026-04-17T09:51:40Z</time></trkpt><trkpt lat="48.0287868881986" lon="7.026217043206402"><ele>946.0</ele><time>2026-04-17T09:51:46Z</time></trkpt><trkpt lat="48.02882695284816" lon="7.026304976218918"><ele>943.7142857142858</ele><time>2026-04-17T09:51:52Z</time></trkpt><trkpt lat="48.02886814595403" lon="7.026385378050626"><ele>941.4285714285713</ele><time>2026-04-17T09:51:58Z</time></trkpt><trkpt lat="48.028908761953325" lon="7.026477136622394"><ele>939.1428571428571</ele><time>2026-04-17T09:52:04Z</time></trkpt><trkpt lat="48.02894759361095" lon="7.026568769776969"><ele>936.8571428571429</ele><time>2026-04-17T09:52:10Z</time></trkpt><trkpt lat="48.02899515065151" lon="7.026645002778628"><ele>934.5714285714287</ele><time>2026-04-17T09:52:16Z</time></trkpt><trkpt lat="48.02903444426047" lon="7.026723013288864"><ele>932.2857142857142</ele><time>2026-04-17T09:52:22Z</time></trkpt><trkpt lat="48.02907327088378" lon="7.0268095109011055"><ele>930.0</ele><time>2026-04-17T09:52:28Z</time></trkpt><trkpt lat="48.02912779482516" lon="7.026876848736233"><ele>929.8571428571429</ele><time>2026-04-17T09:52:35Z</time></trkpt><trkpt lat="48.029182049568014" lon="7.026931832441901"><ele>929.7142857142858</ele><time>2026-04-17T09:52:42Z</time></trkpt><trkpt lat="48.029250069595754" lon="7.0269727304275245"><ele>929.5714285714287</ele><time>2026-04-17T09:52:49Z</time></trkpt><trkpt lat="48.02930990512977" lon="7.027016783204616"><ele>929.4285714285714</ele><time>2026-04-17T09:52:56Z</time></trkpt><trkpt lat="48.029334584333924" lon="7.027106414294935"><ele>929.2857142857144</ele><time>2026-04-17T09:53:05Z</time></trkpt><trkpt lat="48.02931406338984" lon="7.027197373878409"><ele>929.1428571428572</ele><time>2026-04-17T09:53:13Z</time></trkpt><trkpt lat="48.029285574839314" lon="7.0272933283720524"><ele>929.0</ele><time>2026-04-17T09:53:28Z</time></trkpt><trkpt lat="48.02924401148093" lon="7.027369849727143"><ele>929.0</ele><time>2026-04-17T09:53:35Z</time></trkpt><trkpt lat="48.0292094330635" lon="7.027455229442854"><ele>929.0000000000001</ele><time>2026-04-17T09:53:41Z</time></trkpt><trkpt lat="48.02915917010987" lon="7.027518111713644"><ele>929.0</ele><time>2026-04-17T09:53:46Z</time></trkpt><trkpt lat="48.02910354872085" lon="7.0275755555019"><ele>929.0</ele><time>2026-04-17T09:53:51Z</time></trkpt><trkpt lat="48.02903750703442" lon="7.027636317330741"><ele>929.0000000000001</ele><time>2026-04-17T09:54:00Z</time></trkpt><trkpt lat="48.028981929549296" lon="7.027701978062325"><ele>929.0</ele><time>2026-04-17T09:54:08Z</time></trkpt><trkpt lat="48.02894422308827" lon="7.027784797222866"><ele>929.0</ele><time>2026-04-17T09:54:14Z</time></trkpt><trkpt lat="48.028889459991206" lon="7.027837228569115"><ele>929.2857142857143</ele><time>2026-04-17T09:54:18Z</time></trkpt><trkpt lat="48.028835183635465" lon="7.027893520876016"><ele>929.5714285714287</ele><time>2026-04-17T09:54:25Z</time></trkpt><trkpt lat="48.028769933097486" lon="7.027931849046238"><ele>929.8571428571429</ele><time>2026-04-17T09:54:33Z</time></trkpt><trkpt lat="48.02870743603133" lon="7.027956359829118"><ele>930.1428571428571</ele><time>2026-04-17T09:54:45Z</time></trkpt><trkpt lat="48.028661814404174" lon="7.0280487520816575"><ele>930.4285714285714</ele><time>2026-04-17T09:56:26Z</time></trkpt><trkpt lat="48.02867277910799" lon="7.027954757303418"><ele>930.7142857142858</ele><time>2026-04-17T09:56:32Z</time></trkpt><trkpt lat="48.02873702651046" lon="7.027952548631963"><ele>931.0</ele><time>2026-04-17T09:57:13Z</time></trkpt><trkpt lat="48.02879292808104" lon="7.028021906355902"><ele>931.0</ele><time>2026-04-17T09:57:15Z</time></trkpt><trkpt lat="48.02884732247215" lon="7.027956126674308"><ele>931.0</ele><time>2026-04-17T09:57:21Z</time></trkpt><trkpt lat="48.02890141293287" lon="7.0278966372566645"><ele>931.0</ele><time>2026-04-17T09:57:24Z</time></trkpt><trkpt lat="48.02895028742093" lon="7.027831410024101"><ele>931.0</ele><time>2026-04-17T09:57:27Z</time></trkpt><trkpt lat="48.02900401606185" lon="7.027771527307862"><ele>931.0</ele><time>2026-04-17T09:57:30Z</time></trkpt><trkpt lat="48.029079289053726" lon="7.0277140111798495"><ele>931.0</ele><time>2026-04-17T09:57:33Z</time></trkpt><trkpt lat="48.029121296879026" lon="7.027627794419457"><ele>931.0</ele><time>2026-04-17T09:57:37Z</time></trkpt><trkpt lat="48.02915862878091" lon="7.027511810183981"><ele>930.6666666666666</ele><time>2026-04-17T09:57:40Z</time></trkpt><trkpt lat="48.02924203591553" lon="7.027466418514961"><ele>930.3333333333333</ele><time>2026-04-17T09:57:42Z</time></trkpt><trkpt lat="48.02928962958788" lon="7.027396605033181"><ele>930.0</ele><time>2026-04-17T09:57:44Z</time></trkpt><trkpt lat="48.02933485827549" lon="7.027286832195126"><ele>929.6666666666667</ele><time>2026-04-17T09:57:46Z</time></trkpt><trkpt lat="48.0293730390415" lon="7.027151167420548"><ele>929.3333333333334</ele><time>2026-04-17T09:57:49Z</time></trkpt><trkpt lat="48.02936363949059" lon="7.0270209358398645"><ele>929.0</ele><time>2026-04-17T09:57:52Z</time></trkpt><trkpt lat="48.02930226771452" lon="7.026922401925911"><ele>929.0000000000001</ele><time>2026-04-17T09:57:56Z</time></trkpt><trkpt lat="48.02920426254875" lon="7.026917707812641"><ele>929.0</ele><time>2026-04-17T09:57:58Z</time></trkpt><trkpt lat="48.02912630117789" lon="7.026879046588656"><ele>929.0</ele><time>2026-04-17T09:58:00Z</time></trkpt><trkpt lat="48.029068527579625" lon="7.026777974599199"><ele>929.0</ele><time>2026-04-17T09:58:02Z</time></trkpt><trkpt lat="48.029029471182426" lon="7.026672199941164"><ele>929.0000000000001</ele><time>2026-04-17T09:58:04Z</time></trkpt><trkpt lat="48.02898775470271" lon="7.026588156084016"><ele>929.0</ele><time>2026-04-17T09:58:06Z</time></trkpt><trkpt lat="48.028944672446606" lon="7.026504507143569"><ele>929.1666666666667</ele><time>2026-04-17T09:58:09Z</time></trkpt><trkpt lat="48.02889765836546" lon="7.026407650367165"><ele>929.3333333333334</ele><time>2026-04-17T09:58:14Z</time></trkpt><trkpt lat="48.02884576864832" lon="7.026323448366738"><ele>929.5</ele><time>2026-04-17T09:58:18Z</time></trkpt><trkpt lat="48.02879572362648" lon="7.026215800249386"><ele>929.6666666666667</ele><time>2026-04-17T09:58:22Z</time></trkpt><trkpt lat="48.02875195110946" lon="7.026104478375542"><ele>929.8333333333334</ele><time>2026-04-17T09:58:26Z</time></trkpt><trkpt lat="48.0287189019088" lon="7.025979869263915"><ele>930.0</ele><time>2026-04-17T09:58:30Z</time></trkpt><trkpt lat="48.028677296083806" lon="7.025861824511725"><ele>932.6666666666666</ele><time>2026-04-17T09:58:34Z</time></trkpt><trkpt lat="48.02863200420665" lon="7.025735507151888"><ele>935.3333333333333</ele><time>2026-04-17T09:58:38Z</time></trkpt><trkpt lat="48.02859493573877" lon="7.025597071367372"><ele>938.0</ele><time>2026-04-17T09:58:42Z</time></trkpt><trkpt lat="48.02858085749067" lon="7.025495506620671"><ele>940.6666666666666</ele><time>2026-04-17T09:58:45Z</time></trkpt><trkpt lat="48.02854559275561" lon="7.025387864571956"><ele>943.3333333333333</ele><time>2026-04-17T09:58:48Z</time></trkpt><trkpt lat="48.02854220046604" lon="7.0252837410387885"><ele>946.0</ele><time>2026-04-17T09:59:02Z</time></trkpt><trkpt lat="48.02857018079513" lon="7.0251849129211195"><ele>946.0</ele><time>2026-04-17T09:59:12Z</time></trkpt><trkpt lat="48.028613550711924" lon="7.025109085215328"><ele>946.0</ele><time>2026-04-17T09:59:18Z</time></trkpt><trkpt lat="48.02865397479262" lon="7.025014041837316"><ele>946.0</ele><time>2026-04-17T09:59:25Z</time></trkpt><trkpt lat="48.02863842779122" lon="7.02491925375847"><ele>946.0</ele><time>2026-04-17T09:59:32Z</time></trkpt><trkpt lat="48.02863087380159" lon="7.02480808410915"><ele>946.0</ele><time>2026-04-17T09:59:37Z</time></trkpt><trkpt lat="48.0286532377422" lon="7.024707109029556"><ele>946.0</ele><time>2026-04-17T09:59:51Z</time></trkpt><trkpt lat="48.02859199730135" lon="7.024667060464261"><ele>946.0</ele><time>2026-04-17T09:59:59Z</time></trkpt><trkpt lat="48.02852459010558" lon="7.024591397428892"><ele>945.8571428571429</ele><time>2026-04-17T10:00:04Z</time></trkpt><trkpt lat="48.02846421927284" lon="7.024507172817942"><ele>945.7142857142857</ele><time>2026-04-17T10:00:10Z</time></trkpt><trkpt lat="48.02839878921669" lon="7.024457146722504"><ele>945.5714285714286</ele><time>2026-04-17T10:00:14Z</time></trkpt><trkpt lat="48.028337266447345" lon="7.02442948973246"><ele>945.4285714285714</ele><time>2026-04-17T10:00:21Z</time></trkpt><trkpt lat="48.02827043009492" lon="7.024384447698024"><ele>945.2857142857142</ele><time>2026-04-17T10:00:25Z</time></trkpt><trkpt lat="48.028206520700095" lon="7.024355569764885"><ele>945.1428571428571</ele><time>2026-04-17T10:00:29Z</time></trkpt><trkpt lat="48.028135655669885" lon="7.024307398883613"><ele>945.0</ele><time>2026-04-17T10:00:34Z</time></trkpt><trkpt lat="48.028072636560154" lon="7.024280183550817"><ele>947.7142857142858</ele><time>2026-04-17T10:00:39Z</time></trkpt><trkpt lat="48.02799555848126" lon="7.024268500886769"><ele>950.4285714285714</ele><time>2026-04-17T10:00:48Z</time></trkpt><trkpt lat="48.02793631284275" lon="7.024227153142888"><ele>953.1428571428571</ele><time>2026-04-17T10:00:57Z</time></trkpt><trkpt lat="48.02787941449641" lon="7.0241778235347345"><ele>955.8571428571429</ele><time>2026-04-17T10:01:02Z</time></trkpt><trkpt lat="48.02782521381416" lon="7.024121604169101"><ele>958.5714285714287</ele><time>2026-04-17T10:01:10Z</time></trkpt><trkpt lat="48.02778197839024" lon="7.024052641718377"><ele>961.2857142857143</ele><time>2026-04-17T10:01:17Z</time></trkpt><trkpt lat="48.02773536143443" lon="7.023984551323021"><ele>964.0</ele><time>2026-04-17T10:01:23Z</time></trkpt><trkpt lat="48.02769583378499" lon="7.023902818440311"><ele>968.0</ele><time>2026-04-17T10:01:32Z</time></trkpt><trkpt lat="48.02767537504416" lon="7.023813140167336"><ele>972.0000000000001</ele><time>2026-04-17T10:01:37Z</time></trkpt><trkpt lat="48.02768592303793" lon="7.023712972155611"><ele>976.0</ele><time>2026-04-17T10:01:44Z</time></trkpt><trkpt lat="48.027722650658525" lon="7.023591681128427"><ele>980.0</ele><time>2026-04-17T10:01:53Z</time></trkpt><trkpt lat="48.02776766091229" lon="7.02350352494798"><ele>984.0000000000001</ele><time>2026-04-17T10:01:59Z</time></trkpt><trkpt lat="48.02780564079482" lon="7.023405978660093"><ele>988.0</ele><time>2026-04-17T10:02:12Z</time></trkpt><trkpt lat="48.02784389505929" lon="7.023331087933266"><ele>992.0</ele><time>2026-04-17T10:03:03Z</time></trkpt><trkpt lat="48.02788258049969" lon="7.0232553366435635"><ele>995.8571428571429</ele><time>2026-04-17T10:03:08Z</time></trkpt><trkpt lat="48.02791954687038" lon="7.023176840154153"><ele>999.7142857142858</ele><time>2026-04-17T10:03:18Z</time></trkpt><trkpt lat="48.02796925085508" lon="7.0231034382257445"><ele>1003.5714285714287</ele><time>2026-04-17T10:03:34Z</time></trkpt><trkpt lat="48.02801108915702" lon="7.023029104460638"><ele>1007.4285714285716</ele><time>2026-04-17T10:03:56Z</time></trkpt><trkpt lat="48.02805462255177" lon="7.022957207510845"><ele>1011.2857142857143</ele><time>2026-04-17T10:04:05Z</time></trkpt><trkpt lat="48.02810230005112" lon="7.022884219300766"><ele>1015.1428571428573</ele><time>2026-04-17T10:04:10Z</time></trkpt><trkpt lat="48.02815406834512" lon="7.022808358761042"><ele>1019.0000000000001</ele><time>2026-04-17T10:04:19Z</time></trkpt><trkpt lat="48.028201703495384" lon="7.022739319792043"><ele>1019.0000000000001</ele><time>2026-04-17T10:04:24Z</time></trkpt><trkpt lat="48.02824844811083" lon="7.022675038632199"><ele>1019.0</ele><time>2026-04-17T10:04:32Z</time></trkpt><trkpt lat="48.02829846105177" lon="7.022615896718373"><ele>1019.0000000000001</ele><time>2026-04-17T10:04:41Z</time></trkpt><trkpt lat="48.02835343408814" lon="7.022564150472056"><ele>1019.0000000000001</ele><time>2026-04-17T10:04:47Z</time></trkpt><trkpt lat="48.028408022743626" lon="7.0225157176133255"><ele>1019.0</ele><time>2026-04-17T10:04:57Z</time></trkpt><trkpt lat="48.02846828879003" lon="7.022455084351535"><ele>1019.0000000000001</ele><time>2026-04-17T10:05:07Z</time></trkpt><trkpt lat="48.028535511982355" lon="7.02241835305345"><ele>1019.0000000000001</ele><time>2026-04-17T10:05:19Z</time></trkpt><trkpt lat="48.0286036265213" lon="7.022343200158669"><ele>1021.4285714285716</ele><time>2026-04-17T10:05:49Z</time></trkpt><trkpt lat="48.02867050993241" lon="7.022287156758356"><ele>1023.8571428571429</ele><time>2026-04-17T10:05:59Z</time></trkpt><trkpt lat="48.028735298917624" lon="7.022276099040144"><ele>1026.2857142857142</ele><time>2026-04-17T10:06:06Z</time></trkpt><trkpt lat="48.028795771657556" lon="7.022224512267627"><ele>1028.7142857142858</ele><time>2026-04-17T10:06:14Z</time></trkpt><trkpt lat="48.02887899789951" lon="7.022173813155947"><ele>1031.142857142857</ele><time>2026-04-17T10:06:40Z</time></trkpt><trkpt lat="48.028940226709324" lon="7.022203232269473"><ele>1033.5714285714287</ele><time>2026-04-17T10:06:49Z</time></trkpt><trkpt lat="48.029009220599924" lon="7.022193751666719"><ele>1036.0</ele><time>2026-04-17T10:06:58Z</time></trkpt><trkpt lat="48.02907316417302" lon="7.022225768449136"><ele>1036.0</ele><time>2026-04-17T10:07:07Z</time></trkpt><trkpt lat="48.02912898811058" lon="7.022157366854294"><ele>1036.0</ele><time>2026-04-17T10:07:17Z</time></trkpt><trkpt lat="48.02917311051789" lon="7.02208601859564"><ele>1036.0</ele><time>2026-04-17T10:07:25Z</time></trkpt><trkpt lat="48.02926383406065" lon="7.021980359293415"><ele>1036.0</ele><time>2026-04-17T10:08:23Z</time></trkpt><trkpt lat="48.02933660186208" lon="7.021950621870464"><ele>1036.0</ele><time>2026-04-17T10:09:02Z</time></trkpt><trkpt lat="48.02936375634037" lon="7.021842723636892"><ele>1036.0</ele><time>2026-04-17T10:09:41Z</time></trkpt><trkpt lat="48.02929899118325" lon="7.021888531368358"><ele>1032.6</ele><time>2026-04-17T10:09:45Z</time></trkpt><trkpt lat="48.029369740838206" lon="7.0217787500001645"><ele>1029.1999999999998</ele><time>2026-04-17T10:09:55Z</time></trkpt><trkpt lat="48.02936636991386" lon="7.021886006553358"><ele>1025.8000000000002</ele><time>2026-04-17T10:10:17Z</time></trkpt><trkpt lat="48.02950598655976" lon="7.021905399261711"><ele>1022.4000000000001</ele><time>2026-04-17T10:10:58Z</time></trkpt><trkpt lat="48.02940351829215" lon="7.021926318919864"><ele>1019.0</ele><time>2026-04-17T10:11:09Z</time></trkpt><trkpt lat="48.02935123153201" lon="7.022001649567163"><ele>1019.0000000000001</ele><time>2026-04-17T10:11:16Z</time></trkpt><trkpt lat="48.029276197408834" lon="7.0219800004125075"><ele>1019.0</ele><time>2026-04-17T10:11:30Z</time></trkpt><trkpt lat="48.029299309755196" lon="7.0218912057675755"><ele>1019.0</ele><time>2026-04-17T10:11:37Z</time></trkpt><trkpt lat="48.029415826427716" lon="7.021833678203148"><ele>1019.0</ele><time>2026-04-17T10:12:00Z</time></trkpt><trkpt lat="48.029523476999685" lon="7.021789481283174"><ele>1019.0000000000001</ele><time>2026-04-17T10:12:19Z</time></trkpt><trkpt lat="48.029583306553704" lon="7.021736977683509"><ele>1019.0</ele><time>2026-04-17T10:12:27Z</time></trkpt><trkpt lat="48.029658576955704" lon="7.021706083197496"><ele>1019.0000000000001</ele><time>2026-04-17T10:12:38Z</time></trkpt><trkpt lat="48.02972914761849" lon="7.021704023594157"><ele>1019.0</ele><time>2026-04-17T10:12:47Z</time></trkpt><trkpt lat="48.02979385080493" lon="7.021713678438376"><ele>1019.0000000000001</ele><time>2026-04-17T10:12:57Z</time></trkpt><trkpt lat="48.02986264946749" lon="7.021710073841003"><ele>1019.0000000000001</ele><time>2026-04-17T10:13:06Z</time></trkpt><trkpt lat="48.02993083169846" lon="7.021667288166154"><ele>1019.0</ele><time>2026-04-17T10:13:19Z</time></trkpt><trkpt lat="48.02999331246458" lon="7.021600596044086"><ele>1019.0000000000001</ele><time>2026-04-17T10:13:31Z</time></trkpt><trkpt lat="48.03004967151796" lon="7.021539399374151"><ele>1019.0000000000001</ele><time>2026-04-17T10:13:45Z</time></trkpt><trkpt lat="48.030090006820316" lon="7.021464573935"><ele>1022.8333333333334</ele><time>2026-04-17T10:13:51Z</time></trkpt><trkpt lat="48.030134247928444" lon="7.021385912242914"><ele>1026.6666666666667</ele><time>2026-04-17T10:14:07Z</time></trkpt><trkpt lat="48.030221777781605" lon="7.0212495339614165"><ele>1030.5</ele><time>2026-04-17T10:15:15Z</time></trkpt><trkpt lat="48.030271720112246" lon="7.021168501110011"><ele>1034.3333333333333</ele><time>2026-04-17T10:16:15Z</time></trkpt><trkpt lat="48.03033915752987" lon="7.021141073619996"><ele>1038.1666666666665</ele><time>2026-04-17T10:16:32Z</time></trkpt><trkpt lat="48.030420281857396" lon="7.0210924758306374"><ele>1042.0</ele><time>2026-04-17T10:16:53Z</time></trkpt><trkpt lat="48.03047382661591" lon="7.021002572880146"><ele>1042.0</ele><time>2026-04-17T10:17:27Z</time></trkpt><trkpt lat="48.03053315764399" lon="7.020953329650469"><ele>1042.0</ele><time>2026-04-17T10:17:39Z</time></trkpt><trkpt lat="48.030583404260085" lon="7.020854379212591"><ele>1042.0</ele><time>2026-04-17T10:18:16Z</time></trkpt><trkpt lat="48.030622460978506" lon="7.020773715782219"><ele>1042.0</ele><time>2026-04-17T10:18:32Z</time></trkpt><trkpt lat="48.030675306990396" lon="7.020718178976754"><ele>1042.0</ele><time>2026-04-17T10:18:40Z</time></trkpt><trkpt lat="48.03072017428493" lon="7.0206493445020515"><ele>1042.0</ele><time>2026-04-17T10:18:58Z</time></trkpt><trkpt lat="48.030785875125844" lon="7.020599384866482"><ele>1042.0</ele><time>2026-04-17T10:19:09Z</time></trkpt><trkpt lat="48.03084966691146" lon="7.020533823734735"><ele>1044.857142857143</ele><time>2026-04-17T10:19:22Z</time></trkpt><trkpt lat="48.03090947592859" lon="7.020499261956465"><ele>1047.7142857142858</ele><time>2026-04-17T10:19:37Z</time></trkpt><trkpt lat="48.03097881954824" lon="7.020473159005571"><ele>1050.5714285714287</ele><time>2026-04-17T10:19:49Z</time></trkpt><trkpt lat="48.03103388362686" lon="7.020412044917149"><ele>1053.4285714285716</ele><time>2026-04-17T10:19:58Z</time></trkpt><trkpt lat="48.03106762779361" lon="7.020330782704712"><ele>1056.2857142857144</ele><time>2026-04-17T10:20:34Z</time></trkpt><trkpt lat="48.031153893210494" lon="7.020307867317643"><ele>1059.142857142857</ele><time>2026-04-17T10:20:54Z</time></trkpt><trkpt lat="48.03122317427949" lon="7.0202946595799185"><ele>1062.0</ele><time>2026-04-17T10:21:00Z</time></trkpt><trkpt lat="48.03129092411321" lon="7.020251716416198"><ele>1062.0</ele><time>2026-04-17T10:21:11Z</time></trkpt><trkpt lat="48.03135859703186" lon="7.020243651012208"><ele>1062.0</ele><time>2026-04-17T10:21:32Z</time></trkpt><trkpt lat="48.03141688461946" lon="7.02020790666391"><ele>1062.0</ele><time>2026-04-17T10:22:01Z</time></trkpt><trkpt lat="48.03147215017962" lon="7.020161816324523"><ele>1062.0</ele><time>2026-04-17T10:22:11Z</time></trkpt><trkpt lat="48.031548823803355" lon="7.020125214339441"><ele>1062.0</ele><time>2026-04-17T10:22:17Z</time></trkpt><trkpt lat="48.03160833733628" lon="7.02006563457468"><ele>1062.0</ele><time>2026-04-17T10:22:24Z</time></trkpt><trkpt lat="48.031676921489726" lon="7.020024638831947"><ele>1062.0</ele><time>2026-04-17T10:22:32Z</time></trkpt><trkpt lat="48.03169364073309" lon="7.019928513910338"><ele>1061.2857142857142</ele><time>2026-04-17T10:22:37Z</time></trkpt><trkpt lat="48.031719780551995" lon="7.019834789699306"><ele>1060.5714285714287</ele><time>2026-04-17T10:22:44Z</time></trkpt><trkpt lat="48.031718821941965" lon="7.0197319561724365"><ele>1059.857142857143</ele><time>2026-04-17T10:22:51Z</time></trkpt><trkpt lat="48.031727720672876" lon="7.019631393358399"><ele>1059.142857142857</ele><time>2026-04-17T10:23:00Z</time></trkpt><trkpt lat="48.03174042712087" lon="7.019529656069295"><ele>1058.4285714285716</ele><time>2026-04-17T10:23:07Z</time></trkpt><trkpt lat="48.03180645588026" lon="7.019479029893945"><ele>1057.7142857142858</ele><time>2026-04-17T10:23:18Z</time></trkpt><trkpt lat="48.031772229363604" lon="7.019393241186117"><ele>1057.0</ele><time>2026-04-17T10:23:25Z</time></trkpt><trkpt lat="48.031814591733344" lon="7.019305731023258"><ele>1057.0</ele><time>2026-04-17T10:23:34Z</time></trkpt><trkpt lat="48.03185532702874" lon="7.019220661038526"><ele>1057.0</ele><time>2026-04-17T10:23:43Z</time></trkpt><trkpt lat="48.03191750985387" lon="7.019157187050973"><ele>1057.0</ele><time>2026-04-17T10:23:57Z</time></trkpt><trkpt lat="48.03196860215507" lon="7.01906507228768"><ele>1057.0</ele><time>2026-04-17T10:24:17Z</time></trkpt><trkpt lat="48.03203257106306" lon="7.019065904744594"><ele>1057.0</ele><time>2026-04-17T10:25:04Z</time></trkpt><trkpt lat="48.03207614387751" lon="7.018977847823536"><ele>1057.0</ele><time>2026-04-17T10:25:52Z</time></trkpt><trkpt lat="48.03213694364269" lon="7.018918415681069"><ele>1057.0</ele><time>2026-04-17T10:26:08Z</time></trkpt><trkpt lat="48.03219834786028" lon="7.018879910190029"><ele>1057.6666666666665</ele><time>2026-04-17T10:26:22Z</time></trkpt><trkpt lat="48.03226516798885" lon="7.018849679284655"><ele>1058.3333333333333</ele><time>2026-04-17T10:26:34Z</time></trkpt><trkpt lat="48.03232088650515" lon="7.018801914287619"><ele>1059.0</ele><time>2026-04-17T10:26:50Z</time></trkpt><trkpt lat="48.032371390644876" lon="7.018733905614481"><ele>1059.6666666666667</ele><time>2026-04-17T10:27:00Z</time></trkpt><trkpt lat="48.032437911611304" lon="7.018748317440846"><ele>1060.3333333333335</ele><time>2026-04-17T10:27:19Z</time></trkpt><trkpt lat="48.03246996816925" lon="7.018667295168624"><ele>1061.0</ele><time>2026-04-17T10:27:41Z</time></trkpt><trkpt lat="48.03248771832379" lon="7.018471263895327"><ele>1062.1428571428573</ele><time>2026-04-17T10:28:32Z</time></trkpt><trkpt lat="48.032453067923655" lon="7.0183890987263595"><ele>1063.2857142857142</ele><time>2026-04-17T10:28:41Z</time></trkpt><trkpt lat="48.03238909124712" lon="7.018355304919006"><ele>1064.4285714285716</ele><time>2026-04-17T10:28:55Z</time></trkpt><trkpt lat="48.032334074237895" lon="7.018285223642481"><ele>1065.5714285714287</ele><time>2026-04-17T10:29:21Z</time></trkpt><trkpt lat="48.03228863790755" lon="7.018219781852386"><ele>1066.7142857142858</ele><time>2026-04-17T10:30:15Z</time></trkpt><trkpt lat="48.03232504298457" lon="7.018140381372716"><ele>1067.857142857143</ele><time>2026-04-17T10:30:43Z</time></trkpt><trkpt lat="48.03239543657568" lon="7.018135635731889"><ele>1069.0</ele><time>2026-04-17T10:30:52Z</time></trkpt><trkpt lat="48.03246698135118" lon="7.018121463445368"><ele>1070.6666666666665</ele><time>2026-04-17T10:31:15Z</time></trkpt><trkpt lat="48.032542890753376" lon="7.018090401731175"><ele>1072.3333333333333</ele><time>2026-04-17T10:31:39Z</time></trkpt><trkpt lat="48.03262243270014" lon="7.018102555039873"><ele>1074.0</ele><time>2026-04-17T10:32:06Z</time></trkpt><trkpt lat="48.03265330221416" lon="7.018003380332815"><ele>1075.6666666666667</ele><time>2026-04-17T10:32:33Z</time></trkpt><trkpt lat="48.03265366394717" lon="7.017893825182564"><ele>1077.3333333333335</ele><time>2026-04-17T10:32:44Z</time></trkpt><trkpt lat="48.03268431331539" lon="7.0177945665595765"><ele>1079.0</ele><time>2026-04-17T10:32:56Z</time></trkpt><trkpt lat="48.03273609004576" lon="7.017684703713176"><ele>1079.0</ele><time>2026-04-17T10:33:15Z</time></trkpt><trkpt lat="48.032781723607776" lon="7.017577904957326"><ele>1079.0</ele><time>2026-04-17T10:34:09Z</time></trkpt><trkpt lat="48.032835781143085" lon="7.0175177149011265"><ele>1079.0</ele><time>2026-04-17T10:34:19Z</time></trkpt><trkpt lat="48.03287326528613" lon="7.0174216039043324"><ele>1079.0</ele><time>2026-04-17T10:34:35Z</time></trkpt><trkpt lat="48.03288705421555" lon="7.017326940355119"><ele>1079.0</ele><time>2026-04-17T10:35:00Z</time></trkpt><trkpt lat="48.032948049015054" lon="7.017284938958469"><ele>1079.0</ele><time>2026-04-17T10:35:12Z</time></trkpt><trkpt lat="48.03300135547296" lon="7.017225756326595"><ele>1079.0</ele><time>2026-04-17T10:35:24Z</time></trkpt><trkpt lat="48.033019200371136" lon="7.017126783309745"><ele>1082.857142857143</ele><time>2026-04-17T10:35:37Z</time></trkpt><trkpt lat="48.03306774868366" lon="7.017059624002965"><ele>1086.7142857142858</ele><time>2026-04-17T10:35:48Z</time></trkpt><trkpt lat="48.03311903904672" lon="7.017004353367075"><ele>1090.5714285714284</ele><time>2026-04-17T10:36:10Z</time></trkpt><trkpt lat="48.03316267402023" lon="7.016934984800504"><ele>1094.4285714285716</ele><time>2026-04-17T10:36:18Z</time></trkpt><trkpt lat="48.03322525413625" lon="7.016917675451735"><ele>1098.2857142857142</ele><time>2026-04-17T10:36:29Z</time></trkpt><trkpt lat="48.03325054133469" lon="7.016821865891933"><ele>1102.142857142857</ele><time>2026-04-17T10:37:00Z</time></trkpt><trkpt lat="48.033310437979466" lon="7.016758247714643"><ele>1106.0</ele><time>2026-04-17T10:37:24Z</time></trkpt><trkpt lat="48.03335319935376" lon="7.01668366879289"><ele>1109.857142857143</ele><time>2026-04-17T10:37:35Z</time></trkpt><trkpt lat="48.03341517772964" lon="7.016641211233687"><ele>1113.7142857142858</ele><time>2026-04-17T10:37:46Z</time></trkpt><trkpt lat="48.033470951259446" lon="7.016591009579195"><ele>1117.5714285714284</ele><time>2026-04-17T10:37:58Z</time></trkpt><trkpt lat="48.033530778710535" lon="7.016626672205581"><ele>1121.4285714285716</ele><time>2026-04-17T10:38:18Z</time></trkpt><trkpt lat="48.033460376091895" lon="7.0166292186891654"><ele>1125.2857142857142</ele><time>2026-04-17T10:41:21Z</time></trkpt><trkpt lat="48.03348451816188" lon="7.016532302075149"><ele>1129.142857142857</ele><time>2026-04-17T10:47:51.608Z</time></trkpt><trkpt lat="48.033562061764464" lon="7.016624114506083"><ele>1133.0</ele><time>2026-04-17T10:47:56Z</time></trkpt><trkpt lat="48.03348368038273" lon="7.01660220511911"><ele>1133.0</ele><time>2026-04-17T10:48:15Z</time></trkpt><trkpt lat="48.03385096068845" lon="7.016270216568327"><ele>1133.0</ele><time>2026-04-17T10:51:51Z</time></trkpt><trkpt lat="48.033894294307494" lon="7.016198337485072"><ele>1133.0</ele><time>2026-04-17T10:52:02Z</time></trkpt><trkpt lat="48.03393765626052" lon="7.016124766388958"><ele>1133.0</ele><time>2026-04-17T10:52:34Z</time></trkpt><trkpt lat="48.03389879877419" lon="7.015610841306371"><ele>1133.0</ele><time>2026-04-17T10:54:51Z</time></trkpt><trkpt lat="48.033913289272476" lon="7.015510199648754"><ele>1139.75</ele><time>2026-04-17T10:55:05Z</time></trkpt><trkpt lat="48.03390952136776" lon="7.015411297233468"><ele>1146.5</ele><time>2026-04-17T10:55:19Z</time></trkpt><trkpt lat="48.03388642033987" lon="7.015319614761684"><ele>1153.25</ele><time>2026-04-17T10:55:34Z</time></trkpt><trkpt lat="48.033787270028995" lon="7.014868612742358"><ele>1160.0</ele><time>2026-04-17T10:57:51Z</time></trkpt><trkpt lat="48.03380571289958" lon="7.014776391938414"><ele>1171.0</ele><time>2026-04-17T10:58:01Z</time></trkpt><trkpt lat="48.033798814144355" lon="7.014190112420426"><ele>1182.0</ele><time>2026-04-17T11:00:51Z</time></trkpt><trkpt lat="48.033819187406294" lon="7.014097643617622"><ele>1183.0</ele><time>2026-04-17T11:01:02Z</time></trkpt><trkpt lat="48.0338500834696" lon="7.014009210196523"><ele>1184.0</ele><time>2026-04-17T11:01:13Z</time></trkpt><trkpt lat="48.033873986004814" lon="7.013920672074091"><ele>1185.0</ele><time>2026-04-17T11:01:33Z</time></trkpt><trkpt lat="48.03420287429758" lon="7.013853902868848"><ele>1185.0</ele><time>2026-04-17T11:03:51Z</time></trkpt><trkpt lat="48.03419734770009" lon="7.013757621858325"><ele>1185.0</ele><time>2026-04-17T11:04:46Z</time></trkpt><trkpt lat="48.034113247331" lon="7.013291432382649"><ele>1185.0</ele><time>2026-04-17T11:07:14Z</time></trkpt><trkpt lat="48.034183920119006" lon="7.013274081996511"><ele>1198.5</ele><time>2026-04-17T11:07:30Z</time></trkpt><trkpt lat="48.034176553198876" lon="7.0131757973173485"><ele>1212.0</ele><time>2026-04-17T11:07:41Z</time></trkpt><trkpt lat="48.034365540068606" lon="7.012538959958421"><ele>1212.0</ele><time>2026-04-17T11:09:51Z</time></trkpt><trkpt lat="48.03441373725503" lon="7.0124294119423665"><ele>1238.0</ele><time>2026-04-17T11:11:33Z</time></trkpt><trkpt lat="48.03445134765815" lon="7.0123517049515565"><ele>1238.0</ele><time>2026-04-17T11:11:49Z</time></trkpt></trkseg><trkseg><trkpt lat="48.03457071947504" lon="7.012251002322444"><ele>1238.0</ele><time>2026-04-17T11:23:25Z</time></trkpt><trkpt lat="48.034481147115834" lon="7.012164984308027"><ele>1238.0</ele><time>2026-04-17T11:23:31Z</time></trkpt><trkpt lat="48.03448049302437" lon="7.012260474679222"><ele>1238.0</ele><time>2026-04-17T11:25:45Z</time></trkpt><trkpt lat="48.03443804364322" lon="7.012331920222598"><ele>1238.0</ele><time>2026-04-17T11:26:19Z</time></trkpt><trkpt lat="48.034406052718126" lon="7.012413814618526"><ele>1238.0</ele><time>2026-04-17T11:26:56Z</time></trkpt><trkpt lat="48.03437922674913" lon="7.012501364518179"><ele>1238.0</ele><time>2026-04-17T11:27:19Z</time></trkpt><trkpt lat="48.03435510007852" lon="7.012593113808007"><ele>1238.0</ele><time>2026-04-17T11:27:34Z</time></trkpt><trkpt lat="48.03434222959287" lon="7.0126874577272025"><ele>1234.2857142857142</ele><time>2026-04-17T11:27:57Z</time></trkpt><trkpt lat="48.034316373956536" lon="7.012773520195353"><ele>1230.5714285714287</ele><time>2026-04-17T11:28:12Z</time></trkpt><trkpt lat="48.03425723038555" lon="7.012862173089395"><ele>1226.857142857143</ele><time>2026-04-17T11:28:32Z</time></trkpt><trkpt lat="48.03419994678703" lon="7.012915726804757"><ele>1223.142857142857</ele><time>2026-04-17T11:28:45Z</time></trkpt><trkpt lat="48.03415944738288" lon="7.013000493854657"><ele>1219.4285714285713</ele><time>2026-04-17T11:28:56Z</time></trkpt><trkpt lat="48.03414086740836" lon="7.013091201885053"><ele>1215.7142857142858</ele><time>2026-04-17T11:30:42Z</time></trkpt><trkpt lat="48.03415644730356" lon="7.013199576065392"><ele>1212.0</ele><time>2026-04-17T11:30:57Z</time></trkpt><trkpt lat="48.03416083719167" lon="7.013300537507194"><ele>1211.8333333333333</ele><time>2026-04-17T11:31:07Z</time></trkpt><trkpt lat="48.03405069911917" lon="7.013231840615268"><ele>1211.6666666666667</ele><time>2026-04-17T11:32:36Z</time></trkpt><trkpt lat="48.034029257974844" lon="7.013325384572617"><ele>1211.5</ele><time>2026-04-17T11:33:02Z</time></trkpt><trkpt lat="48.034065400331784" lon="7.013406767434973"><ele>1211.3333333333335</ele><time>2026-04-17T11:33:17Z</time></trkpt><trkpt lat="48.03409434048085" lon="7.013492899729358"><ele>1211.1666666666667</ele><time>2026-04-17T11:33:31Z</time></trkpt><trkpt lat="48.03410717542282" lon="7.013612879805269"><ele>1211.0</ele><time>2026-04-17T11:33:54Z</time></trkpt><trkpt lat="48.034163503331634" lon="7.013659875683574"><ele>1209.5714285714287</ele><time>2026-04-17T11:34:05Z</time></trkpt><trkpt lat="48.034199695400325" lon="7.013749620436236"><ele>1208.142857142857</ele><time>2026-04-17T11:34:16Z</time></trkpt><trkpt lat="48.03414365626316" lon="7.013847805364127"><ele>1206.7142857142858</ele><time>2026-04-17T11:35:01Z</time></trkpt><trkpt lat="48.03406948266655" lon="7.013808456937982"><ele>1205.2857142857142</ele><time>2026-04-17T11:35:27Z</time></trkpt><trkpt lat="48.03399911761649" lon="7.013818559838728"><ele>1203.857142857143</ele><time>2026-04-17T11:35:41Z</time></trkpt><trkpt lat="48.033925790099254" lon="7.013798927155467"><ele>1202.4285714285716</ele><time>2026-04-17T11:36:39Z</time></trkpt><trkpt lat="48.03387099286493" lon="7.013857102032338"><ele>1201.0</ele><time>2026-04-17T11:37:13Z</time></trkpt><trkpt lat="48.0338560985304" lon="7.013949809790397"><ele>1201.0000000000002</ele><time>2026-04-17T11:37:56Z</time></trkpt><trkpt lat="48.03381928668712" lon="7.0140316839500105"><ele>1201.0</ele><time>2026-04-17T11:38:05Z</time></trkpt><trkpt lat="48.03379126681258" lon="7.014119255578669"><ele>1201.0</ele><time>2026-04-17T11:38:12Z</time></trkpt><trkpt lat="48.0337666453004" lon="7.014209380802256"><ele>1201.0</ele><time>2026-04-17T11:38:21Z</time></trkpt><trkpt lat="48.033783154766795" lon="7.0143683944126645"><ele>1201.0</ele><time>2026-04-17T11:38:48Z</time></trkpt><trkpt lat="48.03376991416707" lon="7.01446759644133"><ele>1201.0000000000002</ele><time>2026-04-17T11:39:01Z</time></trkpt><trkpt lat="48.03374850564445" lon="7.014562799321134"><ele>1201.0</ele><time>2026-04-17T11:39:10Z</time></trkpt><trkpt lat="48.03376648377234" lon="7.014658359044368"><ele>1197.2</ele><time>2026-04-17T11:39:21Z</time></trkpt><trkpt lat="48.033778754837286" lon="7.01475427487755"><ele>1193.3999999999999</ele><time>2026-04-17T11:39:33Z</time></trkpt><trkpt lat="48.03375185913033" lon="7.014978861011361"><ele>1189.6</ele><time>2026-04-17T11:40:17Z</time></trkpt><trkpt lat="48.03375654778074" lon="7.015075484971597"><ele>1185.8</ele><time>2026-04-17T11:40:58Z</time></trkpt><trkpt lat="48.03379508172493" lon="7.0151537707365605"><ele>1182.0</ele><time>2026-04-17T11:41:14Z</time></trkpt><trkpt lat="48.03385709159678" lon="7.015296599975607"><ele>1178.857142857143</ele><time>2026-04-17T11:41:42Z</time></trkpt><trkpt lat="48.033892345656604" lon="7.015380770633532"><ele>1175.7142857142858</ele><time>2026-04-17T11:41:54Z</time></trkpt><trkpt lat="48.03389273087727" lon="7.015479133855902"><ele>1172.5714285714287</ele><time>2026-04-17T11:42:06Z</time></trkpt><trkpt lat="48.03387440071357" lon="7.015616573260442"><ele>1169.4285714285716</ele><time>2026-04-17T11:42:29Z</time></trkpt><trkpt lat="48.033842027198645" lon="7.015701411795708"><ele>1166.2857142857144</ele><time>2026-04-17T11:42:39Z</time></trkpt><trkpt lat="48.033792847155375" lon="7.0158084815954895"><ele>1163.142857142857</ele><time>2026-04-17T11:42:43Z</time></trkpt><trkpt lat="48.03376814605852" lon="7.0158995914621975"><ele>1160.0</ele><time>2026-04-17T11:42:46Z</time></trkpt><trkpt lat="48.03391140556999" lon="7.015971477271931"><ele>1156.142857142857</ele><time>2026-04-17T11:43:20Z</time></trkpt><trkpt lat="48.03394443077418" lon="7.016062420379833"><ele>1152.2857142857144</ele><time>2026-04-17T11:43:40Z</time></trkpt><trkpt lat="48.03389462685154" lon="7.016162149907367"><ele>1148.4285714285716</ele><time>2026-04-17T11:44:08Z</time></trkpt><trkpt lat="48.03383667450106" lon="7.016230631183606"><ele>1144.5714285714287</ele><time>2026-04-17T11:44:29Z</time></trkpt><trkpt lat="48.03381423657487" lon="7.016319009036285"><ele>1140.7142857142858</ele><time>2026-04-17T11:44:44Z</time></trkpt><trkpt lat="48.033764462542415" lon="7.016388345640778"><ele>1136.857142857143</ele><time>2026-04-17T11:45:00Z</time></trkpt><trkpt lat="48.033704969980086" lon="7.0164415871220704"><ele>1133.0</ele><time>2026-04-17T11:45:26Z</time></trkpt><trkpt lat="48.03365585902733" lon="7.016544614530544"><ele>1133.0</ele><time>2026-04-17T11:45:48Z</time></trkpt><trkpt lat="48.03359214203829" lon="7.016560480289313"><ele>1133.0</ele><time>2026-04-17T11:45:57Z</time></trkpt><trkpt lat="48.033526111662745" lon="7.016587839683674"><ele>1133.0</ele><time>2026-04-17T11:46:09Z</time></trkpt><trkpt lat="48.03346345044926" lon="7.01659770148651"><ele>1133.0</ele><time>2026-04-17T11:46:18Z</time></trkpt><trkpt lat="48.03339147588419" lon="7.016621721958412"><ele>1133.0</ele><time>2026-04-17T11:46:24Z</time></trkpt><trkpt lat="48.03332291663781" lon="7.0166554365748635"><ele>1133.0</ele><time>2026-04-17T11:46:28Z</time></trkpt><trkpt lat="48.03328151615898" lon="7.016732755755165"><ele>1133.0</ele><time>2026-04-17T11:46:37Z</time></trkpt><trkpt lat="48.03324225536968" lon="7.016830423943871"><ele>1129.2857142857142</ele><time>2026-04-17T11:47:02Z</time></trkpt><trkpt lat="48.033165865218415" lon="7.016872318754211"><ele>1125.5714285714287</ele><time>2026-04-17T11:47:08Z</time></trkpt><trkpt lat="48.03311098006389" lon="7.016921151816261"><ele>1121.857142857143</ele><time>2026-04-17T11:47:13Z</time></trkpt><trkpt lat="48.033047243620416" lon="7.016992024630887"><ele>1118.142857142857</ele><time>2026-04-17T11:47:22Z</time></trkpt><trkpt lat="48.0330039818633" lon="7.017074517501514"><ele>1114.4285714285713</ele><time>2026-04-17T11:47:27Z</time></trkpt><trkpt lat="48.03297579638218" lon="7.017170360728528"><ele>1110.7142857142858</ele><time>2026-04-17T11:47:33Z</time></trkpt><trkpt lat="48.03292800528658" lon="7.017239800593855"><ele>1107.0</ele><time>2026-04-17T11:47:38Z</time></trkpt><trkpt lat="48.03286664409258" lon="7.017296676219031"><ele>1107.0</ele><time>2026-04-17T11:47:42Z</time></trkpt><trkpt lat="48.03283093044732" lon="7.017389623009809"><ele>1107.0</ele><time>2026-04-17T11:47:47Z</time></trkpt><trkpt lat="48.032806045986824" lon="7.017485497429104"><ele>1107.0</ele><time>2026-04-17T11:48:07Z</time></trkpt><trkpt lat="48.03277182289548" lon="7.017573288357381"><ele>1107.0</ele><time>2026-04-17T11:48:16Z</time></trkpt><trkpt lat="48.032717683198435" lon="7.0176375686233525"><ele>1107.0</ele><time>2026-04-17T11:48:23Z</time></trkpt><trkpt lat="48.03267636295414" lon="7.017718124091527"><ele>1107.0</ele><time>2026-04-17T11:48:30Z</time></trkpt><trkpt lat="48.03264739906311" lon="7.017801950058818"><ele>1107.0</ele><time>2026-04-17T11:48:42Z</time></trkpt><trkpt lat="48.03263546725032" lon="7.017900292946209"><ele>1104.7142857142858</ele><time>2026-04-17T11:48:51Z</time></trkpt><trkpt lat="48.03264008941437" lon="7.0180017622380335"><ele>1102.4285714285713</ele><time>2026-04-17T11:49:03Z</time></trkpt><trkpt lat="48.03259541189337" lon="7.018078441557581"><ele>1100.142857142857</ele><time>2026-04-17T11:49:32Z</time></trkpt><trkpt lat="48.03253142476743" lon="7.018110943371099"><ele>1097.857142857143</ele><time>2026-04-17T11:49:49Z</time></trkpt><trkpt lat="48.032450819235585" lon="7.018116368184131"><ele>1095.5714285714287</ele><time>2026-04-17T11:50:07Z</time></trkpt><trkpt lat="48.03237851530634" lon="7.01812996494794"><ele>1093.2857142857142</ele><time>2026-04-17T11:50:18Z</time></trkpt><trkpt lat="48.03231319378905" lon="7.018129845951675"><ele>1091.0</ele><time>2026-04-17T11:50:27Z</time></trkpt><trkpt lat="48.03226946233174" lon="7.018237279204746"><ele>1087.3333333333335</ele><time>2026-04-17T11:53:00Z</time></trkpt><trkpt lat="48.0323227337232" lon="7.01833043168089"><ele>1083.6666666666667</ele><time>2026-04-17T11:53:50Z</time></trkpt><trkpt lat="48.03241692639893" lon="7.0183367340100595"><ele>1080.0</ele><time>2026-04-17T11:55:17Z</time></trkpt><trkpt lat="48.03249298972421" lon="7.018424638146008"><ele>1076.3333333333333</ele><time>2026-04-17T11:56:15Z</time></trkpt><trkpt lat="48.03249290527894" lon="7.018522241029571"><ele>1072.6666666666665</ele><time>2026-04-17T11:56:29Z</time></trkpt><trkpt lat="48.03247647907726" lon="7.01861862214303"><ele>1069.0</ele><time>2026-04-17T11:56:57Z</time></trkpt><trkpt lat="48.03241678119779" lon="7.0186785150403965"><ele>1069.0</ele><time>2026-04-17T11:57:03Z</time></trkpt><trkpt lat="48.032345870391175" lon="7.018705270479838"><ele>1069.0</ele><time>2026-04-17T11:57:09Z</time></trkpt><trkpt lat="48.03229404350355" lon="7.018766047219563"><ele>1069.0</ele><time>2026-04-17T11:57:47Z</time></trkpt><trkpt lat="48.032244687713316" lon="7.018857809378031"><ele>1069.0</ele><time>2026-04-17T11:58:00Z</time></trkpt><trkpt lat="48.03218202237978" lon="7.018845149228318"><ele>1069.0</ele><time>2026-04-17T11:58:13Z</time></trkpt><trkpt lat="48.032124372800375" lon="7.018890976802186"><ele>1069.0</ele><time>2026-04-17T12:00:16Z</time></trkpt><trkpt lat="48.032081382317486" lon="7.018972068009955"><ele>1069.0</ele><time>2026-04-17T12:00:31Z</time></trkpt><trkpt lat="48.032035248108265" lon="7.019041944014734"><ele>1069.0</ele><time>2026-04-17T12:00:43Z</time></trkpt><trkpt lat="48.03199143743604" lon="7.019111308288722"><ele>1069.0</ele><time>2026-04-17T12:00:51Z</time></trkpt><trkpt lat="48.03193139130558" lon="7.019179276521322"><ele>1069.0</ele><time>2026-04-17T12:01:01Z</time></trkpt><trkpt lat="48.03187468211755" lon="7.019244718048853"><ele>1069.0</ele><time>2026-04-17T12:01:09Z</time></trkpt><trkpt lat="48.031843601622185" lon="7.019329792119874"><ele>1069.0</ele><time>2026-04-17T12:01:21Z</time></trkpt><trkpt lat="48.03182988568951" lon="7.01942514552272"><ele>1069.0</ele><time>2026-04-17T12:01:35Z</time></trkpt><trkpt lat="48.03178975401669" lon="7.0195009468860725"><ele>1069.0</ele><time>2026-04-17T12:01:44Z</time></trkpt><trkpt lat="48.031774183825675" lon="7.019600281466666"><ele>1068.0</ele><time>2026-04-17T12:01:53Z</time></trkpt><trkpt lat="48.031745397266874" lon="7.019684811277595"><ele>1067.0</ele><time>2026-04-17T12:02:00Z</time></trkpt><trkpt lat="48.03174165384422" lon="7.01978284444331"><ele>1066.0</ele><time>2026-04-17T12:02:09Z</time></trkpt><trkpt lat="48.0317059094522" lon="7.019886279784261"><ele>1065.0</ele><time>2026-04-17T12:02:16Z</time></trkpt><trkpt lat="48.03168248117953" lon="7.01997366103859"><ele>1064.0</ele><time>2026-04-17T12:02:20Z</time></trkpt><trkpt lat="48.031629126933936" lon="7.020043793698312"><ele>1063.0</ele><time>2026-04-17T12:02:27Z</time></trkpt><trkpt lat="48.03157500010938" lon="7.020117436769973"><ele>1062.0</ele><time>2026-04-17T12:02:34Z</time></trkpt><trkpt lat="48.03151426114272" lon="7.020147669399998"><ele>1062.0</ele><time>2026-04-17T12:02:40Z</time></trkpt><trkpt lat="48.03145740605456" lon="7.020189108243778"><ele>1062.0</ele><time>2026-04-17T12:02:45Z</time></trkpt><trkpt lat="48.03139164591545" lon="7.020196527979251"><ele>1062.0</ele><time>2026-04-17T12:02:53Z</time></trkpt><trkpt lat="48.03133070432697" lon="7.020223997968315"><ele>1062.0</ele><time>2026-04-17T12:03:01Z</time></trkpt><trkpt lat="48.03126967283156" lon="7.0202612419215376"><ele>1062.0</ele><time>2026-04-17T12:03:10Z</time></trkpt><trkpt lat="48.0312058598827" lon="7.020286288876571"><ele>1062.0</ele><time>2026-04-17T12:03:16Z</time></trkpt><trkpt lat="48.03114165728388" lon="7.020326096772929"><ele>1062.0</ele><time>2026-04-17T12:03:29Z</time></trkpt><trkpt lat="48.03108035296112" lon="7.0203641799719385"><ele>1062.0</ele><time>2026-04-17T12:03:37Z</time></trkpt><trkpt lat="48.03101516989046" lon="7.020409689801636"><ele>1062.0</ele><time>2026-04-17T12:03:44Z</time></trkpt><trkpt lat="48.03095722607477" lon="7.020446821115648"><ele>1062.0</ele><time>2026-04-17T12:03:54Z</time></trkpt><trkpt lat="48.03089046388759" lon="7.02049379019922"><ele>1062.0</ele><time>2026-04-17T12:04:07Z</time></trkpt><trkpt lat="48.030833310443946" lon="7.020542094690012"><ele>1062.0</ele><time>2026-04-17T12:04:22Z</time></trkpt><trkpt lat="48.03077446625193" lon="7.0205889760630384"><ele>1062.0</ele><time>2026-04-17T12:04:33Z</time></trkpt><trkpt lat="48.03068751810074" lon="7.0206609395319255"><ele>1062.0</ele><time>2026-04-17T12:04:53Z</time></trkpt><trkpt lat="48.0306239625591" lon="7.020711480714968"><ele>1063.857142857143</ele><time>2026-04-17T12:05:05Z</time></trkpt><trkpt lat="48.03053119686135" lon="7.020787450893713"><ele>1065.7142857142858</ele><time>2026-04-17T12:06:08Z</time></trkpt><trkpt lat="48.03052292903135" lon="7.020880865205422"><ele>1067.5714285714287</ele><time>2026-04-17T12:06:59Z</time></trkpt><trkpt lat="48.03046582221543" lon="7.0209413663344815"><ele>1069.4285714285716</ele><time>2026-04-17T12:07:12Z</time></trkpt><trkpt lat="48.03041046266093" lon="7.0209892341397"><ele>1071.2857142857142</ele><time>2026-04-17T12:07:24Z</time></trkpt><trkpt lat="48.03037092257422" lon="7.021069054189709"><ele>1073.1428571428573</ele><time>2026-04-17T12:07:38Z</time></trkpt><trkpt lat="48.030305904752254" lon="7.02113078357778"><ele>1075.0</ele><time>2026-04-17T12:07:46Z</time></trkpt><trkpt lat="48.030246132366365" lon="7.021183615008005"><ele>1072.1428571428573</ele><time>2026-04-17T12:08:08Z</time></trkpt><trkpt lat="48.0301948648439" lon="7.021238716213607"><ele>1069.2857142857142</ele><time>2026-04-17T12:08:15Z</time></trkpt><trkpt lat="48.0301687328399" lon="7.021332764302707"><ele>1066.4285714285716</ele><time>2026-04-17T12:08:32Z</time></trkpt><trkpt lat="48.030114598936976" lon="7.021384114429692"><ele>1063.5714285714287</ele><time>2026-04-17T12:08:41Z</time></trkpt><trkpt lat="48.03007814767384" lon="7.021461224041883"><ele>1060.7142857142858</ele><time>2026-04-17T12:08:54Z</time></trkpt><trkpt lat="48.03003305019372" lon="7.021542673011357"><ele>1057.857142857143</ele><time>2026-04-17T12:09:02Z</time></trkpt><trkpt lat="48.02997078989069" lon="7.021588734141592"><ele>1055.0</ele><time>2026-04-17T12:09:16Z</time></trkpt><trkpt lat="48.02989799107047" lon="7.021625951358434"><ele>1049.857142857143</ele><time>2026-04-17T12:09:26Z</time></trkpt><trkpt lat="48.029834469634075" lon="7.021655193336123"><ele>1044.7142857142858</ele><time>2026-04-17T12:10:25Z</time></trkpt><trkpt lat="48.029764993172954" lon="7.021697578541875"><ele>1039.5714285714287</ele><time>2026-04-17T12:10:39Z</time></trkpt><trkpt lat="48.029695428911694" lon="7.02170808779112"><ele>1034.4285714285716</ele><time>2026-04-17T12:10:50Z</time></trkpt><trkpt lat="48.02961888108322" lon="7.021729666667308"><ele>1029.2857142857142</ele><time>2026-04-17T12:11:03Z</time></trkpt><trkpt lat="48.02955197328097" lon="7.021767238449471"><ele>1024.1428571428573</ele><time>2026-04-17T12:11:16Z</time></trkpt><trkpt lat="48.02948855451364" lon="7.021793612698524"><ele>1019.0000000000001</ele><time>2026-04-17T12:11:27Z</time></trkpt><trkpt lat="48.029425083477065" lon="7.021827231911365"><ele>1019.0000000000001</ele><time>2026-04-17T12:11:38Z</time></trkpt><trkpt lat="48.02936100842529" lon="7.021879719599923"><ele>1019.0</ele><time>2026-04-17T12:11:46Z</time></trkpt><trkpt lat="48.02930245307843" lon="7.021926139967294"><ele>1019.0000000000001</ele><time>2026-04-17T12:11:56Z</time></trkpt><trkpt lat="48.029249378158255" lon="7.021977950419766"><ele>1019.0000000000001</ele><time>2026-04-17T12:12:07Z</time></trkpt><trkpt lat="48.02918832667421" lon="7.022018458079345"><ele>1019.0</ele><time>2026-04-17T12:12:15Z</time></trkpt><trkpt lat="48.02912515165411" lon="7.022060374703076"><ele>1019.0000000000001</ele><time>2026-04-17T12:12:22Z</time></trkpt><trkpt lat="48.0290574144504" lon="7.022102388000853"><ele>1019.0000000000001</ele><time>2026-04-17T12:12:34Z</time></trkpt><trkpt lat="48.02899678174617" lon="7.022134274737789"><ele>1021.4285714285716</ele><time>2026-04-17T12:12:45Z</time></trkpt><trkpt lat="48.02893346993955" lon="7.022168059897703"><ele>1023.8571428571429</ele><time>2026-04-17T12:12:56Z</time></trkpt><trkpt lat="48.02887414576101" lon="7.022202945918809"><ele>1026.2857142857142</ele><time>2026-04-17T12:13:08Z</time></trkpt><trkpt lat="48.02881127443701" lon="7.022239917866122"><ele>1028.7142857142858</ele><time>2026-04-17T12:13:17Z</time></trkpt><trkpt lat="48.02874886056944" lon="7.022276620800726"><ele>1031.142857142857</ele><time>2026-04-17T12:13:36Z</time></trkpt><trkpt lat="48.02868990555114" lon="7.022314596227187"><ele>1033.5714285714287</ele><time>2026-04-17T12:13:45Z</time></trkpt><trkpt lat="48.02862480669094" lon="7.022351378885443"><ele>1036.0</ele><time>2026-04-17T12:13:53Z</time></trkpt><trkpt lat="48.028565755891805" lon="7.022387624114264"><ele>1036.0</ele><time>2026-04-17T12:14:04Z</time></trkpt><trkpt lat="48.0285035252326" lon="7.022427522768511"><ele>1036.0</ele><time>2026-04-17T12:14:16Z</time></trkpt><trkpt lat="48.02844334679503" lon="7.022470270943593"><ele>1036.0</ele><time>2026-04-17T12:14:32Z</time></trkpt><trkpt lat="48.02838493250995" lon="7.0225161521460855"><ele>1036.0</ele><time>2026-04-17T12:14:39Z</time></trkpt><trkpt lat="48.028333958489505" lon="7.022580470373719"><ele>1036.0</ele><time>2026-04-17T12:14:53Z</time></trkpt><trkpt lat="48.02825969365126" lon="7.022643777969305"><ele>1036.0</ele><time>2026-04-17T12:15:10Z</time></trkpt><trkpt lat="48.02821708584329" lon="7.02271702638553"><ele>1036.0</ele><time>2026-04-17T12:15:56Z</time></trkpt><trkpt lat="48.028164479528655" lon="7.022793270093473"><ele>1033.5714285714287</ele><time>2026-04-17T12:16:07Z</time></trkpt><trkpt lat="48.02811559359444" lon="7.0228643441353205"><ele>1031.142857142857</ele><time>2026-04-17T12:16:16Z</time></trkpt><trkpt lat="48.02806877328228" lon="7.022935102669526"><ele>1028.7142857142858</ele><time>2026-04-17T12:16:22Z</time></trkpt><trkpt lat="48.02802288570214" lon="7.023001961871698"><ele>1026.2857142857142</ele><time>2026-04-17T12:16:29Z</time></trkpt><trkpt lat="48.02798179236345" lon="7.023081407313637"><ele>1023.8571428571429</ele><time>2026-04-17T12:16:39Z</time></trkpt><trkpt lat="48.02793275639573" lon="7.023148037289302"><ele>1021.4285714285716</ele><time>2026-04-17T12:16:49Z</time></trkpt><trkpt lat="48.02789507880082" lon="7.023226010647842"><ele>1019.0000000000001</ele><time>2026-04-17T12:17:00Z</time></trkpt><trkpt lat="48.02785784131999" lon="7.023302456692896"><ele>1015.1428571428573</ele><time>2026-04-17T12:17:07Z</time></trkpt><trkpt lat="48.02781965957582" lon="7.023378607228551"><ele>1011.2857142857143</ele><time>2026-04-17T12:17:20Z</time></trkpt><trkpt lat="48.02777786092747" lon="7.023459916023161"><ele>1007.4285714285716</ele><time>2026-04-17T12:17:30Z</time></trkpt><trkpt lat="48.02774839192298" lon="7.023544072660129"><ele>1003.5714285714287</ele><time>2026-04-17T12:17:40Z</time></trkpt><trkpt lat="48.02770708311371" lon="7.023640794508122"><ele>999.7142857142858</ele><time>2026-04-17T12:17:53Z</time></trkpt><trkpt lat="48.0276810293683" lon="7.023732938597659"><ele>995.8571428571429</ele><time>2026-04-17T12:18:01Z</time></trkpt><trkpt lat="48.02767650238797" lon="7.023827419927393"><ele>992.0</ele><time>2026-04-17T12:18:09Z</time></trkpt><trkpt lat="48.02770102219066" lon="7.023915629595928"><ele>992.0</ele><time>2026-04-17T12:18:17Z</time></trkpt><trkpt lat="48.0277415330854" lon="7.023994094934282"><ele>992.0000000000001</ele><time>2026-04-17T12:18:26Z</time></trkpt><trkpt lat="48.027787822890964" lon="7.024077675863029"><ele>992.0</ele><time>2026-04-17T12:18:35Z</time></trkpt><trkpt lat="48.02784397443309" lon="7.0241418194639405"><ele>992.0</ele><time>2026-04-17T12:18:44Z</time></trkpt><trkpt lat="48.02789890126254" lon="7.024196177496153"><ele>992.0000000000001</ele><time>2026-04-17T12:18:52Z</time></trkpt><trkpt lat="48.027956013962424" lon="7.024239079550819"><ele>992.0</ele><time>2026-04-17T12:18:59Z</time></trkpt><trkpt lat="48.028015908497714" lon="7.024279197102582"><ele>992.0</ele><time>2026-04-17T12:19:05Z</time></trkpt><trkpt lat="48.02808523124272" lon="7.024310644878409"><ele>987.3333333333334</ele><time>2026-04-17T12:19:12Z</time></trkpt><trkpt lat="48.02815098462134" lon="7.024336313472491"><ele>982.6666666666667</ele><time>2026-04-17T12:19:19Z</time></trkpt><trkpt lat="48.02822922519459" lon="7.024367547525142"><ele>978.0</ele><time>2026-04-17T12:19:27Z</time></trkpt><trkpt lat="48.028303825990825" lon="7.024407125953614"><ele>973.3333333333333</ele><time>2026-04-17T12:19:30Z</time></trkpt><trkpt lat="48.028371035498665" lon="7.024452074978937"><ele>968.6666666666666</ele><time>2026-04-17T12:19:34Z</time></trkpt><trkpt lat="48.02844576869732" lon="7.024508260042798"><ele>964.0</ele><time>2026-04-17T12:19:38Z</time></trkpt><trkpt lat="48.02851054873664" lon="7.024570228728011"><ele>945.0</ele><time>2026-04-17T12:19:41Z</time></trkpt><trkpt lat="48.02856456597565" lon="7.024662712415709"><ele>945.0</ele><time>2026-04-17T12:19:44Z</time></trkpt><trkpt lat="48.02858101783697" lon="7.024755232233897"><ele>945.0</ele><time>2026-04-17T12:19:47Z</time></trkpt><trkpt lat="48.02858098876216" lon="7.0248523548896005"><ele>945.0</ele><time>2026-04-17T12:19:50Z</time></trkpt><trkpt lat="48.02858029107676" lon="7.024962347933508"><ele>945.0</ele><time>2026-04-17T12:20:02Z</time></trkpt></trkseg><trkseg><trkpt lat="48.02859792421663" lon="7.025632116377045"><ele>946.0</ele><time>2026-04-17T12:40:28Z</time></trkpt><trkpt lat="48.02863513080853" lon="7.025714750271348"><ele>946.0</ele><time>2026-04-17T12:40:33Z</time></trkpt><trkpt lat="48.02863781385857" lon="7.025815159032678"><ele>946.0</ele><time>2026-04-17T12:40:37Z</time></trkpt><trkpt lat="48.02866983997237" lon="7.025906823410894"><ele>946.0</ele><time>2026-04-17T12:40:41Z</time></trkpt><trkpt lat="48.02869451158161" lon="7.025997429463378"><ele>946.0</ele><time>2026-04-17T12:40:45Z</time></trkpt><trkpt lat="48.028728932643205" lon="7.026081312569329"><ele>946.0</ele><time>2026-04-17T12:40:49Z</time></trkpt><trkpt lat="48.02876204311589" lon="7.026175796925411"><ele>946.0</ele><time>2026-04-17T12:40:53Z</time></trkpt><trkpt lat="48.02879660705046" lon="7.026283243152717"><ele>943.7142857142858</ele><time>2026-04-17T12:40:57Z</time></trkpt><trkpt lat="48.0288379814461" lon="7.026369672615599"><ele>941.4285714285713</ele><time>2026-04-17T12:41:00Z</time></trkpt><trkpt lat="48.02887710585675" lon="7.026453465661572"><ele>939.1428571428571</ele><time>2026-04-17T12:41:03Z</time></trkpt><trkpt lat="48.02892926511207" lon="7.0265421985914"><ele>936.8571428571429</ele><time>2026-04-17T12:41:06Z</time></trkpt><trkpt lat="48.02897355608164" lon="7.026617749777827"><ele>934.5714285714287</ele><time>2026-04-17T12:41:09Z</time></trkpt><trkpt lat="48.02902049361721" lon="7.026685120447558"><ele>932.2857142857142</ele><time>2026-04-17T12:41:12Z</time></trkpt><trkpt lat="48.02906462660889" lon="7.026788790588325"><ele>930.0</ele><time>2026-04-17T12:41:16Z</time></trkpt><trkpt lat="48.02911195193695" lon="7.026858128292118"><ele>929.8571428571429</ele><time>2026-04-17T12:41:19Z</time></trkpt><trkpt lat="48.029175172907436" lon="7.026933307853021"><ele>929.7142857142858</ele><time>2026-04-17T12:41:23Z</time></trkpt><trkpt lat="48.029241835383495" lon="7.02696534121439"><ele>929.5714285714287</ele><time>2026-04-17T12:41:27Z</time></trkpt><trkpt lat="48.02930941367921" lon="7.0269658414297576"><ele>929.4285714285714</ele><time>2026-04-17T12:41:30Z</time></trkpt><trkpt lat="48.02935355266358" lon="7.0270524831116346"><ele>929.2857142857144</ele><time>2026-04-17T12:41:35Z</time></trkpt><trkpt lat="48.02933935371141" lon="7.0271654468147124"><ele>929.1428571428572</ele><time>2026-04-17T12:41:40Z</time></trkpt><trkpt lat="48.029296842934095" lon="7.0272369316061"><ele>929.0</ele><time>2026-04-17T12:41:45Z</time></trkpt><trkpt lat="48.02926416186164" lon="7.027324954172039"><ele>929.0</ele><time>2026-04-17T12:41:49Z</time></trkpt><trkpt lat="48.02923471587877" lon="7.027416265282135"><ele>929.0000000000001</ele><time>2026-04-17T12:41:54Z</time></trkpt><trkpt lat="48.02918348426248" lon="7.027481969145633"><ele>929.0</ele><time>2026-04-17T12:41:58Z</time></trkpt><trkpt lat="48.02913160666135" lon="7.027558305535662"><ele>929.0</ele><time>2026-04-17T12:42:02Z</time></trkpt><trkpt lat="48.0290646792021" lon="7.027615143700246"><ele>929.0000000000001</ele><time>2026-04-17T12:42:06Z</time></trkpt><trkpt lat="48.02900127292039" lon="7.027691696498986"><ele>929.0</ele><time>2026-04-17T12:42:10Z</time></trkpt><trkpt lat="48.028950117211416" lon="7.027762430645076"><ele>929.0</ele><time>2026-04-17T12:42:14Z</time></trkpt><trkpt lat="48.028895321123954" lon="7.027822866418261"><ele>929.2857142857143</ele><time>2026-04-17T12:42:18Z</time></trkpt><trkpt lat="48.02884003925304" lon="7.027870450838373"><ele>929.5714285714287</ele><time>2026-04-17T12:42:22Z</time></trkpt><trkpt lat="48.02877868903763" lon="7.02792002262994"><ele>929.8571428571429</ele><time>2026-04-17T12:42:27Z</time></trkpt><trkpt lat="48.02870395520515" lon="7.027958748578229"><ele>930.1428571428571</ele><time>2026-04-17T12:42:38Z</time></trkpt><trkpt lat="48.02866917870155" lon="7.028042823718377"><ele>930.4285714285714</ele><time>2026-04-17T12:42:49Z</time></trkpt><trkpt lat="48.028606241712055" lon="7.028088544771181"><ele>930.7142857142858</ele><time>2026-04-17T12:42:58Z</time></trkpt><trkpt lat="48.02854165557023" lon="7.028102255040119"><ele>931.0</ele><time>2026-04-17T12:43:03Z</time></trkpt><trkpt lat="48.028508380889726" lon="7.028016243234803"><ele>930.9999999999999</ele><time>2026-04-17T12:43:10Z</time></trkpt><trkpt lat="48.028524900524594" lon="7.028142868728949"><ele>931.0</ele><time>2026-04-17T12:43:49Z</time></trkpt><trkpt lat="48.028452509822166" lon="7.028179166015669"><ele>931.0</ele><time>2026-04-17T12:43:52Z</time></trkpt><trkpt lat="48.02838988656315" lon="7.02819285638042"><ele>931.0</ele><time>2026-04-17T12:43:55Z</time></trkpt><trkpt lat="48.02832092904557" lon="7.028166162485164"><ele>930.9999999999999</ele><time>2026-04-17T12:43:57Z</time></trkpt><trkpt lat="48.02825146324748" lon="7.028117693464401"><ele>931.0</ele><time>2026-04-17T12:44:00Z</time></trkpt><trkpt lat="48.028167447197916" lon="7.028069157762294"><ele>929.5714285714286</ele><time>2026-04-17T12:44:03Z</time></trkpt><trkpt lat="48.02809539601972" lon="7.028096814858006"><ele>928.1428571428571</ele><time>2026-04-17T12:44:07Z</time></trkpt><trkpt lat="48.028023224287416" lon="7.028151738549754"><ele>926.7142857142858</ele><time>2026-04-17T12:44:11Z</time></trkpt><trkpt lat="48.02795083206957" lon="7.028215174164201"><ele>925.2857142857143</ele><time>2026-04-17T12:44:15Z</time></trkpt><trkpt lat="48.027886969651995" lon="7.028259311832712"><ele>923.8571428571429</ele><time>2026-04-17T12:44:22Z</time></trkpt><trkpt lat="48.027814022982" lon="7.028267915879099"><ele>922.4285714285716</ele><time>2026-04-17T12:44:28Z</time></trkpt><trkpt lat="48.027749615813775" lon="7.0282738132778055"><ele>921.0000000000001</ele><time>2026-04-17T12:44:36Z</time></trkpt><trkpt lat="48.02769823519781" lon="7.028332790144096"><ele>922.857142857143</ele><time>2026-04-17T12:44:43Z</time></trkpt><trkpt lat="48.02763558946791" lon="7.028379329181803"><ele>924.7142857142858</ele><time>2026-04-17T12:44:49Z</time></trkpt><trkpt lat="48.0275820146802" lon="7.028445693497668"><ele>926.5714285714286</ele><time>2026-04-17T12:44:55Z</time></trkpt><trkpt lat="48.027517851000354" lon="7.028477560739044"><ele>928.4285714285714</ele><time>2026-04-17T12:45:01Z</time></trkpt><trkpt lat="48.027444084084834" lon="7.028506442577779"><ele>930.2857142857142</ele><time>2026-04-17T12:45:08Z</time></trkpt><trkpt lat="48.027388843401255" lon="7.028569883537766"><ele>932.142857142857</ele><time>2026-04-17T12:45:15Z</time></trkpt><trkpt lat="48.02734022542584" lon="7.0286481942295636"><ele>933.9999999999999</ele><time>2026-04-17T12:45:23Z</time></trkpt><trkpt lat="48.02730273988196" lon="7.0287276644512975"><ele>933.9999999999999</ele><time>2026-04-17T12:45:30Z</time></trkpt><trkpt lat="48.027243887569604" lon="7.028774073330895"><ele>934.0</ele><time>2026-04-17T12:45:42Z</time></trkpt><trkpt lat="48.02718464975084" lon="7.028814912840061"><ele>933.9999999999999</ele><time>2026-04-17T12:45:47Z</time></trkpt><trkpt lat="48.027121666848174" lon="7.028858334370785"><ele>933.9999999999999</ele><time>2026-04-17T12:45:52Z</time></trkpt><trkpt lat="48.02706546921404" lon="7.028913521457548"><ele>934.0</ele><time>2026-04-17T12:45:57Z</time></trkpt><trkpt lat="48.02701116743727" lon="7.028969047242216"><ele>933.9999999999999</ele><time>2026-04-17T12:46:02Z</time></trkpt><trkpt lat="48.02695028426068" lon="7.029031303007953"><ele>933.9999999999999</ele><time>2026-04-17T12:46:07Z</time></trkpt><trkpt lat="48.026883396972245" lon="7.029087526229306"><ele>933.9999999999999</ele><time>2026-04-17T12:46:12Z</time></trkpt><trkpt lat="48.02682512995411" lon="7.029127203119893"><ele>934.0</ele><time>2026-04-17T12:46:16Z</time></trkpt><trkpt lat="48.02676083412801" lon="7.029168317182219"><ele>933.9999999999999</ele><time>2026-04-17T12:46:20Z</time></trkpt><trkpt lat="48.0266924460789" lon="7.029204851541683"><ele>933.9999999999999</ele><time>2026-04-17T12:46:24Z</time></trkpt><trkpt lat="48.02662427731553" lon="7.0292292811040795"><ele>934.0</ele><time>2026-04-17T12:46:27Z</time></trkpt><trkpt lat="48.02656609676139" lon="7.0291877802679785"><ele>933.9999999999999</ele><time>2026-04-17T12:46:31Z</time></trkpt><trkpt lat="48.02648734349733" lon="7.029178499518496"><ele>933.9999999999999</ele><time>2026-04-17T12:46:36Z</time></trkpt><trkpt lat="48.0264037488139" lon="7.029169016690001"><ele>938.4285714285713</ele><time>2026-04-17T12:46:41Z</time></trkpt><trkpt lat="48.02633206007911" lon="7.029197220968566"><ele>942.8571428571429</ele><time>2026-04-17T12:46:46Z</time></trkpt><trkpt lat="48.02626898226727" lon="7.029208260572345"><ele>947.2857142857142</ele><time>2026-04-17T12:46:53Z</time></trkpt><trkpt lat="48.02619752588947" lon="7.029202510465788"><ele>951.7142857142857</ele><time>2026-04-17T12:47:00Z</time></trkpt><trkpt lat="48.02616435815239" lon="7.029291525130969"><ele>956.1428571428571</ele><time>2026-04-17T12:47:09Z</time></trkpt><trkpt lat="48.02617389334901" lon="7.029385698637805"><ele>960.5714285714286</ele><time>2026-04-17T12:48:10Z</time></trkpt><trkpt lat="48.02621968852624" lon="7.029456229203138"><ele>965.0</ele><time>2026-04-17T12:48:16Z</time></trkpt><trkpt lat="48.02629163955293" lon="7.029492573267415"><ele>965.0</ele><time>2026-04-17T12:48:23Z</time></trkpt><trkpt lat="48.026354546773646" lon="7.02950301723025"><ele>965.0</ele><time>2026-04-17T12:48:26Z</time></trkpt><trkpt lat="48.0264308909303" lon="7.029515692012304"><ele>965.0</ele><time>2026-04-17T12:48:34Z</time></trkpt><trkpt lat="48.026514840194345" lon="7.029529678708327"><ele>965.0</ele><time>2026-04-17T12:48:40Z</time></trkpt><trkpt lat="48.02658607428824" lon="7.029541573782915"><ele>965.0</ele><time>2026-04-17T12:48:47Z</time></trkpt><trkpt lat="48.02665140044053" lon="7.029552482314643"><ele>965.0</ele><time>2026-04-17T12:48:53Z</time></trkpt><trkpt lat="48.02671718413698" lon="7.029576879004038"><ele>965.0</ele><time>2026-04-17T12:49:00Z</time></trkpt><trkpt lat="48.026793769612695" lon="7.0295686941560795"><ele>965.5714285714286</ele><time>2026-04-17T12:49:06Z</time></trkpt><trkpt lat="48.026858821220046" lon="7.029560932894835"><ele>966.1428571428571</ele><time>2026-04-17T12:49:11Z</time></trkpt><trkpt lat="48.02692256645159" lon="7.029546542389976"><ele>966.7142857142857</ele><time>2026-04-17T12:49:18Z</time></trkpt><trkpt lat="48.02697902131367" lon="7.029499620781431"><ele>967.2857142857142</ele><time>2026-04-17T12:49:23Z</time></trkpt><trkpt lat="48.027043740936314" lon="7.029445830050387"><ele>967.8571428571429</ele><time>2026-04-17T12:49:30Z</time></trkpt><trkpt lat="48.02710723042362" lon="7.029398842784164"><ele>968.4285714285713</ele><time>2026-04-17T12:49:35Z</time></trkpt><trkpt lat="48.02717013851262" lon="7.029418873754183"><ele>968.9999999999999</ele><time>2026-04-17T12:49:40Z</time></trkpt><trkpt lat="48.02722563322657" lon="7.029358325746058"><ele>969.0</ele><time>2026-04-17T12:49:43Z</time></trkpt><trkpt lat="48.027314122302705" lon="7.029294583701973"><ele>969.0</ele><time>2026-04-17T12:49:48Z</time></trkpt><trkpt lat="48.02739256005877" lon="7.029362022627358"><ele>969.0</ele><time>2026-04-17T12:49:53Z</time></trkpt><trkpt lat="48.027446962825195" lon="7.029417261081763"><ele>969.0</ele><time>2026-04-17T12:49:59Z</time></trkpt><trkpt lat="48.02740866473224" lon="7.029511061356044"><ele>969.0</ele><time>2026-04-17T12:50:12Z</time></trkpt><trkpt lat="48.02735841899695" lon="7.029568666472367"><ele>969.0</ele><time>2026-04-17T12:50:16Z</time></trkpt><trkpt lat="48.02730043170874" lon="7.029615118146638"><ele>968.9999999999999</ele><time>2026-04-17T12:50:20Z</time></trkpt><trkpt lat="48.02722523619749" lon="7.029675354765043"><ele>969.0</ele><time>2026-04-17T12:50:24Z</time></trkpt><trkpt lat="48.02716641624728" lon="7.0297149217436825"><ele>968.9999999999999</ele><time>2026-04-17T12:50:28Z</time></trkpt><trkpt lat="48.02708996176769" lon="7.029757586665422"><ele>968.9999999999999</ele><time>2026-04-17T12:50:33Z</time></trkpt><trkpt lat="48.027022166516005" lon="7.029794733865082"><ele>969.0</ele><time>2026-04-17T12:50:37Z</time></trkpt><trkpt lat="48.02694680267802" lon="7.02983602811689"><ele>968.9999999999999</ele><time>2026-04-17T12:50:41Z</time></trkpt><trkpt lat="48.02688581070171" lon="7.029867256499857"><ele>968.9999999999999</ele><time>2026-04-17T12:50:44Z</time></trkpt><trkpt lat="48.026818285245646" lon="7.02989092028885"><ele>968.9999999999999</ele><time>2026-04-17T12:50:47Z</time></trkpt><trkpt lat="48.02675309373211" lon="7.029913766164167"><ele>969.0</ele><time>2026-04-17T12:50:50Z</time></trkpt><trkpt lat="48.02666848590721" lon="7.02994342533088"><ele>968.9999999999999</ele><time>2026-04-17T12:50:54Z</time></trkpt><trkpt lat="48.02659921418873" lon="7.029967933423715"><ele>968.9999999999999</ele><time>2026-04-17T12:50:57Z</time></trkpt><trkpt lat="48.02653011941442" lon="7.029992378909965"><ele>969.0</ele><time>2026-04-17T12:51:00Z</time></trkpt><trkpt lat="48.02645672592417" lon="7.03000961943273"><ele>968.9999999999999</ele><time>2026-04-17T12:51:02Z</time></trkpt><trkpt lat="48.02639103765405" lon="7.030013207756099"><ele>968.9999999999999</ele><time>2026-04-17T12:51:05Z</time></trkpt><trkpt lat="48.02631545801149" lon="7.030017336410843"><ele>972.4285714285713</ele><time>2026-04-17T12:51:09Z</time></trkpt><trkpt lat="48.02625071344764" lon="7.030020873182484"><ele>975.8571428571429</ele><time>2026-04-17T12:51:13Z</time></trkpt><trkpt lat="48.026182852261655" lon="7.030026575762174"><ele>979.2857142857142</ele><time>2026-04-17T12:51:21Z</time></trkpt><trkpt lat="48.02611911863192" lon="7.030034680118866"><ele>982.7142857142857</ele><time>2026-04-17T12:51:26Z</time></trkpt><trkpt lat="48.026049352198584" lon="7.030044995787057"><ele>986.1428571428571</ele><time>2026-04-17T12:51:34Z</time></trkpt><trkpt lat="48.025983952783264" lon="7.03005596533761"><ele>989.5714285714286</ele><time>2026-04-17T12:51:41Z</time></trkpt><trkpt lat="48.02591524863857" lon="7.030079409122415"><ele>993.0</ele><time>2026-04-17T12:51:46Z</time></trkpt><trkpt lat="48.025845595088214" lon="7.030109642146605"><ele>988.2857142857142</ele><time>2026-04-17T12:52:46Z</time></trkpt><trkpt lat="48.0257857168718" lon="7.030142760427232"><ele>983.5714285714287</ele><time>2026-04-17T12:52:51Z</time></trkpt><trkpt lat="48.02572393442923" lon="7.030178290777124"><ele>978.8571428571429</ele><time>2026-04-17T12:52:56Z</time></trkpt><trkpt lat="48.02565802742039" lon="7.030222189558144"><ele>974.1428571428571</ele><time>2026-04-17T12:53:02Z</time></trkpt><trkpt lat="48.02559172196362" lon="7.0302799918492855"><ele>969.4285714285713</ele><time>2026-04-17T12:53:07Z</time></trkpt><trkpt lat="48.02552823788136" lon="7.030358295711764"><ele>964.7142857142858</ele><time>2026-04-17T12:53:11Z</time></trkpt><trkpt lat="48.02547176473929" lon="7.030447048027487"><ele>960.0</ele><time>2026-04-17T12:53:14Z</time></trkpt><trkpt lat="48.02542086613034" lon="7.030537574065189"><ele>960.0</ele><time>2026-04-17T12:53:16Z</time></trkpt><trkpt lat="48.025370189708035" lon="7.0306308617547275"><ele>960.0</ele><time>2026-04-17T12:53:18Z</time></trkpt><trkpt lat="48.02532914827858" lon="7.030706412891487"><ele>960.0</ele><time>2026-04-17T12:53:19Z</time></trkpt><trkpt lat="48.025276695866026" lon="7.030807114615005"><ele>960.0</ele><time>2026-04-17T12:53:21Z</time></trkpt><trkpt lat="48.025219890247726" lon="7.030913067516672"><ele>960.0</ele><time>2026-04-17T12:53:23Z</time></trkpt><trkpt lat="48.025161464649585" lon="7.031013876648743"><ele>960.0</ele><time>2026-04-17T12:53:25Z</time></trkpt><trkpt lat="48.025097449679976" lon="7.031141067169204"><ele>960.6666666666666</ele><time>2026-04-17T12:53:27Z</time></trkpt><trkpt lat="48.025033391570624" lon="7.031250785971988"><ele>961.3333333333333</ele><time>2026-04-17T12:53:29Z</time></trkpt><trkpt lat="48.02497536506391" lon="7.031378730940584"><ele>962.0</ele><time>2026-04-17T12:53:31Z</time></trkpt><trkpt lat="48.024907380334945" lon="7.031488805814774"><ele>962.6666666666666</ele><time>2026-04-17T12:53:33Z</time></trkpt><trkpt lat="48.02486003293366" lon="7.031567434866099"><ele>963.3333333333333</ele><time>2026-04-17T12:53:36Z</time></trkpt><trkpt lat="48.02481513277627" lon="7.031646774073342"><ele>964.0</ele><time>2026-04-17T12:53:38Z</time></trkpt><trkpt lat="48.02477223164352" lon="7.031742535459168"><ele>963.9999999999999</ele><time>2026-04-17T12:53:40Z</time></trkpt><trkpt lat="48.02472514268266" lon="7.031807893251458"><ele>964.0</ele><time>2026-04-17T12:53:42Z</time></trkpt><trkpt lat="48.024670620128965" lon="7.03188282632935"><ele>964.0</ele><time>2026-04-17T12:53:45Z</time></trkpt><trkpt lat="48.02460783823133" lon="7.031968695090587"><ele>964.0</ele><time>2026-04-17T12:53:48Z</time></trkpt><trkpt lat="48.024551578893345" lon="7.0320364626576355"><ele>963.9999999999999</ele><time>2026-04-17T12:53:51Z</time></trkpt><trkpt lat="48.02449106463876" lon="7.032147981338117"><ele>964.0</ele><time>2026-04-17T12:53:54Z</time></trkpt><trkpt lat="48.024440378907634" lon="7.032207303136855"><ele>963.9999999999999</ele><time>2026-04-17T12:53:55Z</time></trkpt><trkpt lat="48.02438266255943" lon="7.032281137649268"><ele>964.0</ele><time>2026-04-17T12:53:57Z</time></trkpt><trkpt lat="48.024329280786745" lon="7.0323441047051185"><ele>964.0</ele><time>2026-04-17T12:53:59Z</time></trkpt><trkpt lat="48.0242610780127" lon="7.032390583626139"><ele>964.0</ele><time>2026-04-17T12:54:01Z</time></trkpt><trkpt lat="48.02420462339581" lon="7.032471448197366"><ele>963.9999999999999</ele><time>2026-04-17T12:54:03Z</time></trkpt><trkpt lat="48.024128662461095" lon="7.03260256282238"><ele>964.0</ele><time>2026-04-17T12:54:05Z</time></trkpt><trkpt lat="48.02404898066585" lon="7.032721926294122"><ele>964.0</ele><time>2026-04-17T12:54:07Z</time></trkpt><trkpt lat="48.023974061562754" lon="7.032852316916635"><ele>964.0000000000001</ele><time>2026-04-17T12:54:09Z</time></trkpt><trkpt lat="48.023919650133614" lon="7.032966697129404"><ele>964.0000000000001</ele><time>2026-04-17T12:54:11Z</time></trkpt><trkpt lat="48.02387403816475" lon="7.033085497806306"><ele>964.0</ele><time>2026-04-17T12:54:14Z</time></trkpt><trkpt lat="48.02384603949103" lon="7.033190818170098"><ele>964.0</ele><time>2026-04-17T12:54:16Z</time></trkpt><trkpt lat="48.023811279408896" lon="7.033326130831326"><ele>964.0</ele><time>2026-04-17T12:54:17Z</time></trkpt><trkpt lat="48.023764580967" lon="7.033463657806694"><ele>964.0000000000001</ele><time>2026-04-17T12:54:19Z</time></trkpt><trkpt lat="48.02371665497997" lon="7.033590784258626"><ele>964.0000000000001</ele><time>2026-04-17T12:54:21Z</time></trkpt><trkpt lat="48.02367350897953" lon="7.033719488408841"><ele>964.0</ele><time>2026-04-17T12:54:23Z</time></trkpt><trkpt lat="48.0236364473719" lon="7.0338517186778855"><ele>964.0</ele><time>2026-04-17T12:54:25Z</time></trkpt><trkpt lat="48.023595349132755" lon="7.033926667354229"><ele>964.0</ele><time>2026-04-17T12:54:27Z</time></trkpt><trkpt lat="48.0235723434481" lon="7.0340214693300736"><ele>964.0000000000001</ele><time>2026-04-17T12:55:13Z</time></trkpt><trkpt lat="48.02355491444346" lon="7.034115792336246"><ele>964.0</ele><time>2026-04-17T12:55:19Z</time></trkpt><trkpt lat="48.0235565278769" lon="7.03421715181982"><ele>964.0</ele><time>2026-04-17T12:55:23Z</time></trkpt><trkpt lat="48.02356056275729" lon="7.034315039124029"><ele>964.0000000000001</ele><time>2026-04-17T12:55:27Z</time></trkpt><trkpt lat="48.02356127189988" lon="7.034429072933787"><ele>964.0</ele><time>2026-04-17T12:55:32Z</time></trkpt><trkpt lat="48.023566632301694" lon="7.034539790040219"><ele>964.0</ele><time>2026-04-17T12:55:37Z</time></trkpt><trkpt lat="48.023571924566596" lon="7.034652018660272"><ele>966.6666666666666</ele><time>2026-04-17T12:55:42Z</time></trkpt><trkpt lat="48.02357902693066" lon="7.034769098165227"><ele>969.3333333333333</ele><time>2026-04-17T12:55:46Z</time></trkpt><trkpt lat="48.02357995108335" lon="7.03492357998283"><ele>972.0</ele><time>2026-04-17T12:55:49Z</time></trkpt><trkpt lat="48.02358889971244" lon="7.035051902798014"><ele>974.6666666666667</ele><time>2026-04-17T12:55:52Z</time></trkpt><trkpt lat="48.0235957926121" lon="7.035155781215477"><ele>977.3333333333334</ele><time>2026-04-17T12:55:54Z</time></trkpt><trkpt lat="48.023603029637556" lon="7.035249464437508"><ele>980.0</ele><time>2026-04-17T12:55:56Z</time></trkpt><trkpt lat="48.02361532988706" lon="7.035343778280353"><ele>980.4285714285714</ele><time>2026-04-17T12:55:58Z</time></trkpt><trkpt lat="48.023633241105145" lon="7.035443418084913"><ele>980.8571428571429</ele><time>2026-04-17T12:56:01Z</time></trkpt><trkpt lat="48.02364258325362" lon="7.035575842258533"><ele>981.2857142857142</ele><time>2026-04-17T12:56:04Z</time></trkpt><trkpt lat="48.02364931021466" lon="7.035709506025177"><ele>981.7142857142857</ele><time>2026-04-17T12:56:07Z</time></trkpt><trkpt lat="48.02364365406149" lon="7.035809067635852"><ele>982.1428571428571</ele><time>2026-04-17T12:56:09Z</time></trkpt><trkpt lat="48.02364079273819" lon="7.035903248427851"><ele>982.5714285714284</ele><time>2026-04-17T12:56:11Z</time></trkpt><trkpt lat="48.02364054347145" lon="7.036008381173839"><ele>982.9999999999999</ele><time>2026-04-17T12:56:13Z</time></trkpt><trkpt lat="48.0236393397143" lon="7.036121106088835"><ele>981.8333333333334</ele><time>2026-04-17T12:56:15Z</time></trkpt><trkpt lat="48.023649396765656" lon="7.036233260429186"><ele>980.6666666666667</ele><time>2026-04-17T12:56:17Z</time></trkpt><trkpt lat="48.02364588477573" lon="7.036355436835408"><ele>979.5</ele><time>2026-04-17T12:56:19Z</time></trkpt><trkpt lat="48.02365567503638" lon="7.036478102022169"><ele>978.3333333333333</ele><time>2026-04-17T12:56:21Z</time></trkpt><trkpt lat="48.023664939022325" lon="7.036607865938274"><ele>977.1666666666666</ele><time>2026-04-17T12:56:23Z</time></trkpt><trkpt lat="48.02366374898545" lon="7.0367362066798975"><ele>976.0</ele><time>2026-04-17T12:56:25Z</time></trkpt><trkpt lat="48.02368016463856" lon="7.036865836937575"><ele>975.0</ele><time>2026-04-17T12:56:27Z</time></trkpt><trkpt lat="48.02369582903933" lon="7.036988576876158"><ele>973.9999999999999</ele><time>2026-04-17T12:56:29Z</time></trkpt><trkpt lat="48.023713517600264" lon="7.037112631560539"><ele>972.9999999999999</ele><time>2026-04-17T12:56:31Z</time></trkpt><trkpt lat="48.02375654777294" lon="7.037244041472807"><ele>972.0</ele><time>2026-04-17T12:56:33Z</time></trkpt><trkpt lat="48.023791654774726" lon="7.03738931686976"><ele>971.0</ele><time>2026-04-17T12:56:35Z</time></trkpt><trkpt lat="48.02383359961072" lon="7.037530722350175"><ele>968.4</ele><time>2026-04-17T12:56:37Z</time></trkpt><trkpt lat="48.02387855698043" lon="7.037664169335785"><ele>965.8</ele><time>2026-04-17T12:56:39Z</time></trkpt><trkpt lat="48.02392123234859" lon="7.037791883810812"><ele>963.1999999999999</ele><time>2026-04-17T12:56:41Z</time></trkpt><trkpt lat="48.023966930308525" lon="7.037920235067659"><ele>960.5999999999999</ele><time>2026-04-17T12:56:43Z</time></trkpt><trkpt lat="48.02402114053729" lon="7.038047746330576"><ele>958.0</ele><time>2026-04-17T12:56:45Z</time></trkpt><trkpt lat="48.02409338888105" lon="7.038181178269495"><ele>962.75</ele><time>2026-04-17T12:56:47Z</time></trkpt><trkpt lat="48.02417023963749" lon="7.038316141947023"><ele>967.5</ele><time>2026-04-17T12:56:49Z</time></trkpt><trkpt lat="48.0242516294429" lon="7.038436423038358"><ele>972.25</ele><time>2026-04-17T12:56:51Z</time></trkpt><trkpt lat="48.02435034598416" lon="7.038531886667981"><ele>977.0</ele><time>2026-04-17T12:56:53Z</time></trkpt><trkpt lat="48.02443120790105" lon="7.038665711341499"><ele>977.0000000000001</ele><time>2026-04-17T12:56:55Z</time></trkpt><trkpt lat="48.024468324200555" lon="7.038745445210287"><ele>977.0</ele><time>2026-04-17T12:56:56Z</time></trkpt><trkpt lat="48.024506179869434" lon="7.038827203509618"><ele>977.0000000000001</ele><time>2026-04-17T12:56:57Z</time></trkpt><trkpt lat="48.02453376408906" lon="7.038917465516882"><ele>977.0000000000001</ele><time>2026-04-17T12:56:58Z</time></trkpt><trkpt lat="48.024562866214865" lon="7.039007905660615"><ele>977.0</ele><time>2026-04-17T12:56:59Z</time></trkpt><trkpt lat="48.02460155386523" lon="7.039086030712691"><ele>977.0000000000001</ele><time>2026-04-17T12:57:00Z</time></trkpt><trkpt lat="48.02463226861678" lon="7.039178410249811"><ele>977.0000000000001</ele><time>2026-04-17T12:57:01Z</time></trkpt><trkpt lat="48.024652752647285" lon="7.039271043076284"><ele>975.6</ele><time>2026-04-17T12:57:02Z</time></trkpt><trkpt lat="48.024702513823215" lon="7.039440487564512"><ele>974.2</ele><time>2026-04-17T12:57:04Z</time></trkpt><trkpt lat="48.024736490935204" lon="7.039605164132051"><ele>972.8</ele><time>2026-04-17T12:57:06Z</time></trkpt><trkpt lat="48.024736700434595" lon="7.039785259618726"><ele>971.4</ele><time>2026-04-17T12:57:08Z</time></trkpt><trkpt lat="48.024729580015745" lon="7.039884262601621"><ele>970.0</ele><time>2026-04-17T12:57:09Z</time></trkpt><trkpt lat="48.0247216256739" lon="7.039977936534818"><ele>970.0</ele><time>2026-04-17T12:57:10Z</time></trkpt><trkpt lat="48.024706195684516" lon="7.04014961712398"><ele>970.0</ele><time>2026-04-17T12:57:12Z</time></trkpt><trkpt lat="48.024717887184394" lon="7.040324626608105"><ele>970.0</ele><time>2026-04-17T12:57:14Z</time></trkpt><trkpt lat="48.02475615056857" lon="7.040477753657105"><ele>970.0</ele><time>2026-04-17T12:57:16Z</time></trkpt><trkpt lat="48.02480744131924" lon="7.040542444444946"><ele>970.0</ele><time>2026-04-17T12:58:11Z</time></trkpt><trkpt lat="48.02486448045492" lon="7.040624964346017"><ele>970.0</ele><time>2026-04-17T12:58:14Z</time></trkpt><trkpt lat="48.024920188272745" lon="7.0406811723662"><ele>970.0</ele><time>2026-04-17T12:58:16Z</time></trkpt><trkpt lat="48.024973489887735" lon="7.040746931384896"><ele>970.0</ele><time>2026-04-17T12:58:18Z</time></trkpt><trkpt lat="48.025066648701" lon="7.0407657038147216"><ele>970.0</ele><time>2026-04-17T12:58:21Z</time></trkpt><trkpt lat="48.0251899221939" lon="7.040756225916859"><ele>970.0</ele><time>2026-04-17T12:58:23Z</time></trkpt><trkpt lat="48.02530406183531" lon="7.040724217764799"><ele>970.6</ele><time>2026-04-17T12:58:25Z</time></trkpt><trkpt lat="48.02540382217373" lon="7.040706499623513"><ele>971.2</ele><time>2026-04-17T12:58:27Z</time></trkpt><trkpt lat="48.02550520428984" lon="7.040684266732412"><ele>971.8</ele><time>2026-04-17T12:58:29Z</time></trkpt><trkpt lat="48.025600299962996" lon="7.040680885122701"><ele>972.4</ele><time>2026-04-17T12:58:31Z</time></trkpt><trkpt lat="48.02569121755349" lon="7.040677446917093"><ele>973.0</ele><time>2026-04-17T12:58:33Z</time></trkpt><trkpt lat="48.025764641445924" lon="7.040675217094752"><ele>973.4999999999999</ele><time>2026-04-17T12:58:35Z</time></trkpt><trkpt lat="48.0258426519951" lon="7.040670038928165"><ele>974.0</ele><time>2026-04-17T12:58:37Z</time></trkpt><trkpt lat="48.02594595223859" lon="7.040684022436651"><ele>974.5</ele><time>2026-04-17T12:58:39Z</time></trkpt><trkpt lat="48.02606230319014" lon="7.040663303367036"><ele>975.0</ele><time>2026-04-17T12:58:41Z</time></trkpt><trkpt lat="48.02613289530185" lon="7.040665903630431"><ele>975.4999999999999</ele><time>2026-04-17T12:58:42Z</time></trkpt><trkpt lat="48.026197517967" lon="7.0406692892690526"><ele>976.0</ele><time>2026-04-17T12:58:43Z</time></trkpt><trkpt lat="48.026299784132995" lon="7.040675116867487"><ele>976.0</ele><time>2026-04-17T12:58:45Z</time></trkpt><trkpt lat="48.026428733469274" lon="7.0406792097059085"><ele>975.9999999999999</ele><time>2026-04-17T12:58:47Z</time></trkpt><trkpt lat="48.02653685389622" lon="7.040684949102337"><ele>975.9999999999999</ele><time>2026-04-17T12:58:49Z</time></trkpt><trkpt lat="48.02660452086002" lon="7.040653236615978"><ele>976.0</ele><time>2026-04-17T12:58:51Z</time></trkpt><trkpt lat="48.02670472003858" lon="7.040618471886869"><ele>976.0</ele><time>2026-04-17T12:58:52Z</time></trkpt><trkpt lat="48.02676616752029" lon="7.040592922056297"><ele>975.4</ele><time>2026-04-17T12:58:53Z</time></trkpt><trkpt lat="48.02686907592095" lon="7.0405866196884315"><ele>974.8</ele><time>2026-04-17T12:58:55Z</time></trkpt><trkpt lat="48.02694560081183" lon="7.040539498822239"><ele>974.1999999999999</ele><time>2026-04-17T12:58:59Z</time></trkpt><trkpt lat="48.027015783274365" lon="7.040543809602272"><ele>973.5999999999999</ele><time>2026-04-17T12:59:01Z</time></trkpt><trkpt lat="48.027136276772545" lon="7.040506939859455"><ele>973.0</ele><time>2026-04-17T12:59:03Z</time></trkpt><trkpt lat="48.027229247275876" lon="7.04047825267536"><ele>972.9999999999999</ele><time>2026-04-17T12:59:05Z</time></trkpt><trkpt lat="48.02731752487628" lon="7.040451013538929"><ele>973.0</ele><time>2026-04-17T12:59:07Z</time></trkpt><trkpt lat="48.02736986765556" lon="7.040393023880386"><ele>973.0</ele><time>2026-04-17T12:59:09Z</time></trkpt><trkpt lat="48.02744696292926" lon="7.040334369258652"><ele>973.0</ele><time>2026-04-17T12:59:12Z</time></trkpt><trkpt lat="48.02751376293472" lon="7.0402861040223"><ele>972.9999999999999</ele><time>2026-04-17T12:59:16Z</time></trkpt><trkpt lat="48.02758892827494" lon="7.040232745542532"><ele>973.0</ele><time>2026-04-17T12:59:19Z</time></trkpt><trkpt lat="48.027660232779475" lon="7.0401844259335675"><ele>971.7142857142858</ele><time>2026-04-17T12:59:23Z</time></trkpt><trkpt lat="48.02769903405511" lon="7.04009491898782"><ele>970.4285714285714</ele><time>2026-04-17T12:59:26Z</time></trkpt><trkpt lat="48.02776320253673" lon="7.040055319387654"><ele>969.1428571428571</ele><time>2026-04-17T12:59:29Z</time></trkpt><trkpt lat="48.02782683755621" lon="7.040026889506796"><ele>967.8571428571429</ele><time>2026-04-17T12:59:32Z</time></trkpt><trkpt lat="48.02789200765076" lon="7.0400036147135765"><ele>966.5714285714287</ele><time>2026-04-17T12:59:35Z</time></trkpt><trkpt lat="48.027964056854344" lon="7.040026264700563"><ele>965.2857142857143</ele><time>2026-04-17T12:59:38Z</time></trkpt><trkpt lat="48.028051016187625" lon="7.040032242680165"><ele>964.0</ele><time>2026-04-17T12:59:40Z</time></trkpt><trkpt lat="48.02812420564194" lon="7.040040176391131"><ele>964.0</ele><time>2026-04-17T12:59:42Z</time></trkpt><trkpt lat="48.02819548665294" lon="7.040047354998573"><ele>964.0</ele><time>2026-04-17T12:59:44Z</time></trkpt><trkpt lat="48.0282833075163" lon="7.040088935305523"><ele>964.0</ele><time>2026-04-17T12:59:47Z</time></trkpt><trkpt lat="48.02834667019087" lon="7.040160710601808"><ele>964.0</ele><time>2026-04-17T12:59:51Z</time></trkpt><trkpt lat="48.02858859531166" lon="7.040208738186743"><ele>964.2</ele><time>2026-04-17T12:59:52Z</time></trkpt><trkpt lat="48.02867990235118" lon="7.040274866027988"><ele>964.4000000000001</ele><time>2026-04-17T12:59:54Z</time></trkpt><trkpt lat="48.02877211201949" lon="7.040321155807083"><ele>964.6</ele><time>2026-04-17T12:59:56Z</time></trkpt><trkpt lat="48.028853844453906" lon="7.040388416646707"><ele>964.8</ele><time>2026-04-17T12:59:58Z</time></trkpt><trkpt lat="48.02893899035283" lon="7.040457767938084"><ele>965.0</ele><time>2026-04-17T13:00:00Z</time></trkpt><trkpt lat="48.029018656628324" lon="7.040517531769614"><ele>965.0000000000001</ele><time>2026-04-17T13:00:02Z</time></trkpt><trkpt lat="48.02908679166048" lon="7.040604290999589"><ele>965.0</ele><time>2026-04-17T13:00:04Z</time></trkpt><trkpt lat="48.02916991110146" lon="7.040667982803178"><ele>965.0</ele><time>2026-04-17T13:00:06Z</time></trkpt><trkpt lat="48.02921528899198" lon="7.0407981676309666"><ele>965.0</ele><time>2026-04-17T13:00:08Z</time></trkpt><trkpt lat="48.02926764199327" lon="7.040881114544132"><ele>965.0000000000001</ele><time>2026-04-17T13:00:10Z</time></trkpt><trkpt lat="48.02932035633513" lon="7.040985036190413"><ele>965.0</ele><time>2026-04-17T13:00:13Z</time></trkpt><trkpt lat="48.02937449233413" lon="7.041053035050078"><ele>963.7142857142857</ele><time>2026-04-17T13:00:15Z</time></trkpt><trkpt lat="48.02942627798696" lon="7.04113758476827"><ele>962.4285714285716</ele><time>2026-04-17T13:00:18Z</time></trkpt><trkpt lat="48.029489516862" lon="7.04118390525449"><ele>961.1428571428572</ele><time>2026-04-17T13:00:21Z</time></trkpt><trkpt lat="48.02955711748155" lon="7.041259143810861"><ele>959.8571428571429</ele><time>2026-04-17T13:00:25Z</time></trkpt><trkpt lat="48.02962266669641" lon="7.041332737066781"><ele>958.5714285714287</ele><time>2026-04-17T13:00:29Z</time></trkpt><trkpt lat="48.02967519998595" lon="7.041398084973585"><ele>957.2857142857144</ele><time>2026-04-17T13:00:33Z</time></trkpt><trkpt lat="48.02972651404627" lon="7.041460007698167"><ele>956.0000000000001</ele><time>2026-04-17T13:00:36Z</time></trkpt><trkpt lat="48.029779234032915" lon="7.041522594753839"><ele>956.0000000000001</ele><time>2026-04-17T13:00:40Z</time></trkpt><trkpt lat="48.02982184546714" lon="7.041598059775461"><ele>956.0</ele><time>2026-04-17T13:00:44Z</time></trkpt><trkpt lat="48.029885825757326" lon="7.041649365318601"><ele>956.0000000000001</ele><time>2026-04-17T13:00:48Z</time></trkpt><trkpt lat="48.029938864285214" lon="7.041721561017116"><ele>956.0000000000001</ele><time>2026-04-17T13:00:52Z</time></trkpt><trkpt lat="48.02998961044365" lon="7.041796684500752"><ele>956.0</ele><time>2026-04-17T13:00:56Z</time></trkpt><trkpt lat="48.030052121194984" lon="7.0418410759520285"><ele>956.0000000000001</ele><time>2026-04-17T13:01:00Z</time></trkpt><trkpt lat="48.030110623911796" lon="7.0418923547118135"><ele>956.0000000000001</ele><time>2026-04-17T13:01:04Z</time></trkpt><trkpt lat="48.03015871120459" lon="7.041961975675832"><ele>957.857142857143</ele><time>2026-04-17T13:01:08Z</time></trkpt><trkpt lat="48.03021637170798" lon="7.0420116895728695"><ele>959.7142857142858</ele><time>2026-04-17T13:01:15Z</time></trkpt><trkpt lat="48.03027397528609" lon="7.042077275836897"><ele>961.5714285714286</ele><time>2026-04-17T13:01:21Z</time></trkpt><trkpt lat="48.03033073697244" lon="7.042152402857793"><ele>963.4285714285714</ele><time>2026-04-17T13:01:28Z</time></trkpt><trkpt lat="48.03040081835483" lon="7.042165607802112"><ele>965.2857142857142</ele><time>2026-04-17T13:01:34Z</time></trkpt><trkpt lat="48.03046541968602" lon="7.042206446369152"><ele>967.142857142857</ele><time>2026-04-17T13:01:40Z</time></trkpt><trkpt lat="48.0305281846755" lon="7.042264428422584"><ele>968.9999999999999</ele><time>2026-04-17T13:01:46Z</time></trkpt><trkpt lat="48.030584039487664" lon="7.042315248931483"><ele>968.9999999999999</ele><time>2026-04-17T13:01:55Z</time></trkpt><trkpt lat="48.03064885261073" lon="7.042374220198359"><ele>969.0</ele><time>2026-04-17T13:02:00Z</time></trkpt><trkpt lat="48.03071105622052" lon="7.04243081726859"><ele>968.9999999999999</ele><time>2026-04-17T13:02:05Z</time></trkpt><trkpt lat="48.03076915138821" lon="7.042481673633575"><ele>968.9999999999999</ele><time>2026-04-17T13:02:09Z</time></trkpt><trkpt lat="48.03082627108824" lon="7.042531555796221"><ele>969.0</ele><time>2026-04-17T13:02:13Z</time></trkpt><trkpt lat="48.03089428577045" lon="7.0425909526342485"><ele>968.9999999999999</ele><time>2026-04-17T13:02:18Z</time></trkpt><trkpt lat="48.030953889610316" lon="7.042628210760539"><ele>968.9999999999999</ele><time>2026-04-17T13:02:22Z</time></trkpt><trkpt lat="48.03100747757052" lon="7.042682222737873"><ele>969.8571428571427</ele><time>2026-04-17T13:02:26Z</time></trkpt><trkpt lat="48.03106572609899" lon="7.0427394289638015"><ele>970.7142857142857</ele><time>2026-04-17T13:02:30Z</time></trkpt><trkpt lat="48.031128789985125" lon="7.042793676080783"><ele>971.5714285714284</ele><time>2026-04-17T13:02:34Z</time></trkpt><trkpt lat="48.03119169825245" lon="7.0428355626808345"><ele>972.4285714285713</ele><time>2026-04-17T13:02:38Z</time></trkpt><trkpt lat="48.03125237798482" lon="7.042893245482081"><ele>973.2857142857142</ele><time>2026-04-17T13:02:42Z</time></trkpt><trkpt lat="48.03132225156265" lon="7.042941310017053"><ele>974.1428571428571</ele><time>2026-04-17T13:02:46Z</time></trkpt><trkpt lat="48.03138798789914" lon="7.043000443850173"><ele>975.0</ele><time>2026-04-17T13:02:50Z</time></trkpt><trkpt lat="48.03145096317523" lon="7.04305577805951"><ele>975.0</ele><time>2026-04-17T13:02:54Z</time></trkpt><trkpt lat="48.031528536297344" lon="7.043115960107854"><ele>975.0</ele><time>2026-04-17T13:02:58Z</time></trkpt><trkpt lat="48.0316031942342" lon="7.04316882072745"><ele>975.0</ele><time>2026-04-17T13:03:02Z</time></trkpt><trkpt lat="48.031671636613595" lon="7.043213004094228"><ele>975.0</ele><time>2026-04-17T13:03:06Z</time></trkpt><trkpt lat="48.031729605071654" lon="7.043250399643046"><ele>975.0</ele><time>2026-04-17T13:03:09Z</time></trkpt><trkpt lat="48.03180089910471" lon="7.0432986158868225"><ele>975.0</ele><time>2026-04-17T13:03:13Z</time></trkpt><trkpt lat="48.03186166108115" lon="7.043342749961425"><ele>975.6666666666666</ele><time>2026-04-17T13:03:16Z</time></trkpt><trkpt lat="48.03192965470321" lon="7.043456389379307"><ele>976.3333333333333</ele><time>2026-04-17T13:03:19Z</time></trkpt><trkpt lat="48.03200134303616" lon="7.04351899906292"><ele>977.0</ele><time>2026-04-17T13:03:22Z</time></trkpt><trkpt lat="48.032079506176615" lon="7.043618979277951"><ele>977.6666666666666</ele><time>2026-04-17T13:03:25Z</time></trkpt><trkpt lat="48.03212029585984" lon="7.0436976331981995"><ele>978.3333333333333</ele><time>2026-04-17T13:03:27Z</time></trkpt><trkpt lat="48.03216628954263" lon="7.043782775100827"><ele>979.0</ele><time>2026-04-17T13:03:29Z</time></trkpt><trkpt lat="48.03223042542287" lon="7.043857522427419"><ele>979.0</ele><time>2026-04-17T13:03:31Z</time></trkpt><trkpt lat="48.03229058870789" lon="7.043960016594977"><ele>979.0000000000001</ele><time>2026-04-17T13:03:33Z</time></trkpt><trkpt lat="48.032351982958" lon="7.044042451155622"><ele>979.0000000000001</ele><time>2026-04-17T13:03:35Z</time></trkpt><trkpt lat="48.032404032312705" lon="7.044148769851495"><ele>979.0</ele><time>2026-04-17T13:03:37Z</time></trkpt><trkpt lat="48.03247343597424" lon="7.044263054265537"><ele>979.0</ele><time>2026-04-17T13:03:39Z</time></trkpt><trkpt lat="48.032540051581115" lon="7.04438202982367"><ele>980.6</ele><time>2026-04-17T13:03:41Z</time></trkpt><trkpt lat="48.032597587593074" lon="7.044510566019755"><ele>982.2</ele><time>2026-04-17T13:03:43Z</time></trkpt><trkpt lat="48.03266173479018" lon="7.044633886852437"><ele>983.8000000000001</ele><time>2026-04-17T13:03:45Z</time></trkpt><trkpt lat="48.03270089847908" lon="7.044767613760826"><ele>985.4000000000001</ele><time>2026-04-17T13:03:48Z</time></trkpt><trkpt lat="48.03275714674567" lon="7.044829281703823"><ele>987.0</ele><time>2026-04-17T13:03:50Z</time></trkpt><trkpt lat="48.03282247313535" lon="7.045102819803313"><ele>982.25</ele><time>2026-04-17T13:03:52Z</time></trkpt><trkpt lat="48.032860507891044" lon="7.045285716828912"><ele>977.5</ele><time>2026-04-17T13:03:54Z</time></trkpt><trkpt lat="48.032894226859" lon="7.045440043818079"><ele>972.75</ele><time>2026-04-17T13:03:56Z</time></trkpt><trkpt lat="48.032922164755284" lon="7.045595470940198"><ele>968.0</ele><time>2026-04-17T13:03:58Z</time></trkpt><trkpt lat="48.03292334124149" lon="7.045782910367828"><ele>966.6666666666667</ele><time>2026-04-17T13:04:00Z</time></trkpt><trkpt lat="48.03290225851768" lon="7.045902706198641"><ele>965.3333333333334</ele><time>2026-04-17T13:04:01Z</time></trkpt><trkpt lat="48.03285145034782" lon="7.045997846577573"><ele>964.0</ele><time>2026-04-17T13:04:02Z</time></trkpt><trkpt lat="48.03282291804188" lon="7.046103307463667"><ele>962.6666666666667</ele><time>2026-04-17T13:04:03Z</time></trkpt><trkpt lat="48.03277069157815" lon="7.046179449770248"><ele>961.3333333333334</ele><time>2026-04-17T13:04:04Z</time></trkpt><trkpt lat="48.03270522562257" lon="7.046229313630885"><ele>960.0</ele><time>2026-04-17T13:04:05Z</time></trkpt><trkpt lat="48.03262827319642" lon="7.04635159515484"><ele>960.0</ele><time>2026-04-17T13:04:07Z</time></trkpt><trkpt lat="48.03255732185965" lon="7.046440023185091"><ele>960.0</ele><time>2026-04-17T13:04:09Z</time></trkpt><trkpt lat="48.032547722561745" lon="7.04656819098989"><ele>960.0</ele><time>2026-04-17T13:04:11Z</time></trkpt><trkpt lat="48.0325449113109" lon="7.046678139762815"><ele>960.0</ele><time>2026-04-17T13:04:13Z</time></trkpt><trkpt lat="48.03260451941571" lon="7.046758577152785"><ele>960.0</ele><time>2026-04-17T13:06:29Z</time></trkpt><trkpt lat="48.032652149602775" lon="7.0468461963937985"><ele>960.0</ele><time>2026-04-17T13:06:32Z</time></trkpt><trkpt lat="48.03271331910586" lon="7.046957184923468"><ele>960.6666666666666</ele><time>2026-04-17T13:06:35Z</time></trkpt><trkpt lat="48.032779884941384" lon="7.047048003241699"><ele>961.3333333333333</ele><time>2026-04-17T13:06:38Z</time></trkpt><trkpt lat="48.032840290751935" lon="7.047136691170665"><ele>962.0</ele><time>2026-04-17T13:06:41Z</time></trkpt><trkpt lat="48.0328815095218" lon="7.04720942517224"><ele>962.6666666666666</ele><time>2026-04-17T13:06:43Z</time></trkpt><trkpt lat="48.032957061380166" lon="7.047287118696094"><ele>963.3333333333333</ele><time>2026-04-17T13:06:46Z</time></trkpt><trkpt lat="48.03301600096492" lon="7.047350577681629"><ele>964.0</ele><time>2026-04-17T13:06:49Z</time></trkpt><trkpt lat="48.03307477199505" lon="7.047417140631779"><ele>962.3333333333333</ele><time>2026-04-17T13:06:52Z</time></trkpt><trkpt lat="48.03313025372404" lon="7.047467406221886"><ele>960.6666666666666</ele><time>2026-04-17T13:06:55Z</time></trkpt><trkpt lat="48.03317549619626" lon="7.047537912073897"><ele>959.0</ele><time>2026-04-17T13:07:32Z</time></trkpt><trkpt lat="48.03325317939953" lon="7.0476310847795665"><ele>957.3333333333333</ele><time>2026-04-17T13:07:35Z</time></trkpt><trkpt lat="48.03332132536213" lon="7.04770199235894"><ele>955.6666666666666</ele><time>2026-04-17T13:07:37Z</time></trkpt><trkpt lat="48.03337519504871" lon="7.047796093666528"><ele>954.0</ele><time>2026-04-17T13:07:39Z</time></trkpt><trkpt lat="48.033433500655065" lon="7.0478837994848105"><ele>956.1666666666666</ele><time>2026-04-17T13:07:41Z</time></trkpt><trkpt lat="48.03348938898278" lon="7.047993117692693"><ele>958.3333333333333</ele><time>2026-04-17T13:07:43Z</time></trkpt><trkpt lat="48.03354873551706" lon="7.048098713156469"><ele>960.5</ele><time>2026-04-17T13:07:45Z</time></trkpt><trkpt lat="48.033596368279035" lon="7.048212591034434"><ele>962.6666666666666</ele><time>2026-04-17T13:07:47Z</time></trkpt><trkpt lat="48.03365235018365" lon="7.04831188455647"><ele>964.8333333333333</ele><time>2026-04-17T13:07:49Z</time></trkpt><trkpt lat="48.03370073872421" lon="7.048408985066262"><ele>967.0</ele><time>2026-04-17T13:07:51Z</time></trkpt><trkpt lat="48.03374711037573" lon="7.048486469122661"><ele>966.9999999999999</ele><time>2026-04-17T13:07:53Z</time></trkpt><trkpt lat="48.033788055923786" lon="7.048601107568894"><ele>967.0</ele><time>2026-04-17T13:07:56Z</time></trkpt><trkpt lat="48.03382106203201" lon="7.04871420825307"><ele>967.0</ele><time>2026-04-17T13:07:59Z</time></trkpt><trkpt lat="48.03385005290378" lon="7.048831053204737"><ele>967.0</ele><time>2026-04-17T13:08:02Z</time></trkpt><trkpt lat="48.033879373861375" lon="7.048938847082652"><ele>966.9999999999999</ele><time>2026-04-17T13:08:05Z</time></trkpt><trkpt lat="48.03391570628793" lon="7.049036499315346"><ele>967.0</ele><time>2026-04-17T13:08:08Z</time></trkpt><trkpt lat="48.033944086148786" lon="7.049122150388587"><ele>966.0</ele><time>2026-04-17T13:08:11Z</time></trkpt><trkpt lat="48.033987694814975" lon="7.049209109562382"><ele>965.0</ele><time>2026-04-17T13:08:15Z</time></trkpt><trkpt lat="48.03402724837222" lon="7.049302852467483"><ele>964.0</ele><time>2026-04-17T13:08:19Z</time></trkpt><trkpt lat="48.03406347989741" lon="7.049397375893727"><ele>963.0</ele><time>2026-04-17T13:08:23Z</time></trkpt><trkpt lat="48.034086824339695" lon="7.0494932045408465"><ele>962.0</ele><time>2026-04-17T13:08:27Z</time></trkpt><trkpt lat="48.03410887868387" lon="7.04959435901999"><ele>961.0</ele><time>2026-04-17T13:08:31Z</time></trkpt><trkpt lat="48.0341269597459" lon="7.0497170185768665"><ele>960.0</ele><time>2026-04-17T13:08:36Z</time></trkpt><trkpt lat="48.03412407796912" lon="7.049821530800313"><ele>960.0</ele><time>2026-04-17T13:08:40Z</time></trkpt><trkpt lat="48.03413462822192" lon="7.049935037114956"><ele>960.0</ele><time>2026-04-17T13:08:45Z</time></trkpt><trkpt lat="48.034173731457216" lon="7.050017289425543"><ele>960.0</ele><time>2026-04-17T13:08:51Z</time></trkpt><trkpt lat="48.034199366206515" lon="7.0501645994293165"><ele>960.0</ele><time>2026-04-17T13:10:22Z</time></trkpt><trkpt lat="48.034226039532015" lon="7.050280329047638"><ele>960.0</ele><time>2026-04-17T13:10:25Z</time></trkpt><trkpt lat="48.03420131895184" lon="7.050380300214058"><ele>960.0</ele><time>2026-04-17T13:10:27Z</time></trkpt><trkpt lat="48.03418392091943" lon="7.050509735186142"><ele>957.5</ele><time>2026-04-17T13:10:29Z</time></trkpt><trkpt lat="48.034173016399876" lon="7.050672014335719"><ele>955.0</ele><time>2026-04-17T13:10:31Z</time></trkpt><trkpt lat="48.034161452115896" lon="7.050765107877742"><ele>952.5</ele><time>2026-04-17T13:10:32Z</time></trkpt><trkpt lat="48.034148343094564" lon="7.050865332176525"><ele>950.0</ele><time>2026-04-17T13:10:33Z</time></trkpt><trkpt lat="48.03413457977329" lon="7.050969435426644"><ele>947.5</ele><time>2026-04-17T13:10:34Z</time></trkpt><trkpt lat="48.034123087830345" lon="7.051077018217552"><ele>945.0</ele><time>2026-04-17T13:10:35Z</time></trkpt><trkpt lat="48.03411465855775" lon="7.051198501957051"><ele>945.0</ele><time>2026-04-17T13:10:36Z</time></trkpt><trkpt lat="48.034102050116374" lon="7.051322063144515"><ele>945.0</ele><time>2026-04-17T13:10:37Z</time></trkpt><trkpt lat="48.034088171658944" lon="7.051449312886427"><ele>945.0</ele><time>2026-04-17T13:10:38Z</time></trkpt><trkpt lat="48.03407511051884" lon="7.051578198741646"><ele>945.0</ele><time>2026-04-17T13:10:39Z</time></trkpt><trkpt lat="48.034055026885746" lon="7.051706705507867"><ele>945.0</ele><time>2026-04-17T13:10:40Z</time></trkpt><trkpt lat="48.03402763790869" lon="7.051839466601928"><ele>945.0</ele><time>2026-04-17T13:10:41Z</time></trkpt><trkpt lat="48.033991632904645" lon="7.0519751876319114"><ele>945.6</ele><time>2026-04-17T13:10:42Z</time></trkpt><trkpt lat="48.03394762938571" lon="7.0521057604024096"><ele>946.2</ele><time>2026-04-17T13:10:43Z</time></trkpt><trkpt lat="48.033891426939014" lon="7.052236511387334"><ele>946.8</ele><time>2026-04-17T13:10:44Z</time></trkpt><trkpt lat="48.03382743605697" lon="7.052373581912764"><ele>947.4</ele><time>2026-04-17T13:10:45Z</time></trkpt><trkpt lat="48.03375862736185" lon="7.052509515191903"><ele>948.0</ele><time>2026-04-17T13:10:46Z</time></trkpt><trkpt lat="48.03370390654051" lon="7.0526673134643945"><ele>949.75</ele><time>2026-04-17T13:10:47Z</time></trkpt><trkpt lat="48.03363642302073" lon="7.052819658585521"><ele>951.5</ele><time>2026-04-17T13:10:48Z</time></trkpt><trkpt lat="48.03356694399983" lon="7.052977589355807"><ele>953.25</ele><time>2026-04-17T13:10:49Z</time></trkpt><trkpt lat="48.03349789365158" lon="7.053143611821558"><ele>955.0</ele><time>2026-04-17T13:10:50Z</time></trkpt><trkpt lat="48.033428040112305" lon="7.053310628113273"><ele>958.25</ele><time>2026-04-17T13:10:51Z</time></trkpt><trkpt lat="48.03335614710029" lon="7.053474021358511"><ele>961.5</ele><time>2026-04-17T13:10:52Z</time></trkpt><trkpt lat="48.03329166051055" lon="7.053645213630329"><ele>964.75</ele><time>2026-04-17T13:10:53Z</time></trkpt><trkpt lat="48.0332338479026" lon="7.05381915170702"><ele>968.0</ele><time>2026-04-17T13:10:54Z</time></trkpt><trkpt lat="48.03319722305418" lon="7.053999387176768"><ele>962.0</ele><time>2026-04-17T13:10:55Z</time></trkpt><trkpt lat="48.03317598519004" lon="7.054188460421128"><ele>956.0</ele><time>2026-04-17T13:10:56Z</time></trkpt><trkpt lat="48.03316663567471" lon="7.054385367018864"><ele>950.0</ele><time>2026-04-17T13:10:57Z</time></trkpt><trkpt lat="48.0331709101189" lon="7.054582689803511"><ele>944.0</ele><time>2026-04-17T13:10:58Z</time></trkpt><trkpt lat="48.0331892750173" lon="7.0547817480443955"><ele>942.0</ele><time>2026-04-17T13:10:59Z</time></trkpt><trkpt lat="48.033213454208536" lon="7.054984715940483"><ele>940.0</ele><time>2026-04-17T13:11:00Z</time></trkpt><trkpt lat="48.03324012180888" lon="7.05519553841597"><ele>938.0</ele><time>2026-04-17T13:11:01Z</time></trkpt><trkpt lat="48.03326786075164" lon="7.055413322560698"><ele>936.0</ele><time>2026-04-17T13:11:02Z</time></trkpt><trkpt lat="48.03329571332937" lon="7.055634666470137"><ele>943.3333333333333</ele><time>2026-04-17T13:11:03Z</time></trkpt><trkpt lat="48.03332053089391" lon="7.055859844140919"><ele>950.6666666666666</ele><time>2026-04-17T13:11:04Z</time></trkpt><trkpt lat="48.033346550340795" lon="7.0560884618526"><ele>958.0</ele><time>2026-04-17T13:11:05Z</time></trkpt><trkpt lat="48.03336704280105" lon="7.056315151361098"><ele>958.0</ele><time>2026-04-17T13:11:06Z</time></trkpt><trkpt lat="48.03337707984736" lon="7.05652458112033"><ele>958.0</ele><time>2026-04-17T13:11:07Z</time></trkpt><trkpt lat="48.033368976225624" lon="7.0567307777351065"><ele>958.0</ele><time>2026-04-17T13:11:08Z</time></trkpt><trkpt lat="48.03334889045569" lon="7.056925672071824"><ele>958.0</ele><time>2026-04-17T13:11:09Z</time></trkpt><trkpt lat="48.033309845697765" lon="7.057116247105869"><ele>947.5</ele><time>2026-04-17T13:11:10Z</time></trkpt><trkpt lat="48.033256699693645" lon="7.057304925142858"><ele>937.0</ele><time>2026-04-17T13:11:11Z</time></trkpt><trkpt lat="48.03319089456984" lon="7.057487435861841"><ele>926.5</ele><time>2026-04-17T13:11:12Z</time></trkpt><trkpt lat="48.033111888814" lon="7.057660845644928"><ele>916.0</ele><time>2026-04-17T13:11:13Z</time></trkpt><trkpt lat="48.03302774596561" lon="7.057828436910908"><ele>916.0</ele><time>2026-04-17T13:11:14Z</time></trkpt><trkpt lat="48.032942927751904" lon="7.057991623137765"><ele>916.0</ele><time>2026-04-17T13:11:15Z</time></trkpt><trkpt lat="48.03286929772052" lon="7.058153803139291"><ele>916.0</ele><time>2026-04-17T13:11:16Z</time></trkpt><trkpt lat="48.032809232216586" lon="7.058316224480925"><ele>916.0</ele><time>2026-04-17T13:11:17Z</time></trkpt><trkpt lat="48.03275630540734" lon="7.05847357836741"><ele>918.0</ele><time>2026-04-17T13:11:18Z</time></trkpt><trkpt lat="48.032722897536814" lon="7.05863372742104"><ele>920.0</ele><time>2026-04-17T13:11:19Z</time></trkpt><trkpt lat="48.03270706311139" lon="7.058806153323696"><ele>922.0</ele><time>2026-04-17T13:11:20Z</time></trkpt><trkpt lat="48.03270598738087" lon="7.058988470435725"><ele>924.0</ele><time>2026-04-17T13:11:21Z</time></trkpt><trkpt lat="48.0327182224211" lon="7.059174891354645"><ele>924.25</ele><time>2026-04-17T13:11:22Z</time></trkpt><trkpt lat="48.032752281444985" lon="7.059350873369927"><ele>924.5</ele><time>2026-04-17T13:11:23Z</time></trkpt><trkpt lat="48.03280026566465" lon="7.059520612927306"><ele>924.75</ele><time>2026-04-17T13:11:24Z</time></trkpt><trkpt lat="48.032861678372775" lon="7.059681809171379"><ele>925.0</ele><time>2026-04-17T13:11:25Z</time></trkpt><trkpt lat="48.03293748272665" lon="7.0598281553440945"><ele>925.0</ele><time>2026-04-17T13:11:26Z</time></trkpt><trkpt lat="48.033018451226994" lon="7.059949493136527"><ele>925.0</ele><time>2026-04-17T13:11:27Z</time></trkpt><trkpt lat="48.03308907895745" lon="7.060040315841315"><ele>925.0</ele><time>2026-04-17T13:11:28Z</time></trkpt><trkpt lat="48.03314049664633" lon="7.060114599856714"><ele>925.0</ele><time>2026-04-17T13:11:29Z</time></trkpt><trkpt lat="48.03320110835018" lon="7.060224871621877"><ele>925.0</ele><time>2026-04-17T13:11:31Z</time></trkpt><trkpt lat="48.03322352637353" lon="7.060341674660469"><ele>923.4999999999999</ele><time>2026-04-17T13:11:33Z</time></trkpt><trkpt lat="48.03315404626583" lon="7.060476334925894"><ele>922.0</ele><time>2026-04-17T13:11:35Z</time></trkpt><trkpt lat="48.03307961656498" lon="7.060480664168389"><ele>920.5</ele><time>2026-04-17T13:11:36Z</time></trkpt><trkpt lat="48.033007929557215" lon="7.060429076392009"><ele>919.0</ele><time>2026-04-17T13:11:37Z</time></trkpt><trkpt lat="48.0329457987547" lon="7.060349012779371"><ele>917.4999999999999</ele><time>2026-04-17T13:11:38Z</time></trkpt><trkpt lat="48.03287946464676" lon="7.060273942142122"><ele>916.0</ele><time>2026-04-17T13:11:39Z</time></trkpt><trkpt lat="48.03280251684122" lon="7.060214230193751"><ele>916.0</ele><time>2026-04-17T13:11:40Z</time></trkpt><trkpt lat="48.032724756723" lon="7.06015538743844"><ele>915.9999999999999</ele><time>2026-04-17T13:11:41Z</time></trkpt><trkpt lat="48.03264270668952" lon="7.060093342512708"><ele>915.9999999999999</ele><time>2026-04-17T13:11:42Z</time></trkpt><trkpt lat="48.032556715854135" lon="7.060033760259019"><ele>916.0</ele><time>2026-04-17T13:11:43Z</time></trkpt><trkpt lat="48.03246436736885" lon="7.059972453360091"><ele>916.0</ele><time>2026-04-17T13:11:44Z</time></trkpt><trkpt lat="48.03236708349239" lon="7.0599200150282835"><ele>914.5</ele><time>2026-04-17T13:11:45Z</time></trkpt><trkpt lat="48.03226159500472" lon="7.059883881148321"><ele>913.0</ele><time>2026-04-17T13:11:46Z</time></trkpt><trkpt lat="48.032151342281686" lon="7.059859807861845"><ele>911.5</ele><time>2026-04-17T13:11:47Z</time></trkpt><trkpt lat="48.03203572586778" lon="7.059843516416279"><ele>910.0</ele><time>2026-04-17T13:11:48Z</time></trkpt><trkpt lat="48.03191797189638" lon="7.059835444189849"><ele>910.0</ele><time>2026-04-17T13:11:49Z</time></trkpt><trkpt lat="48.031796145198655" lon="7.05983103102779"><ele>910.0</ele><time>2026-04-17T13:11:50Z</time></trkpt><trkpt lat="48.03167403361117" lon="7.0598282325869715"><ele>910.0</ele><time>2026-04-17T13:11:51Z</time></trkpt><trkpt lat="48.03154980638212" lon="7.059813746574714"><ele>910.0</ele><time>2026-04-17T13:11:52Z</time></trkpt><trkpt lat="48.03143282183202" lon="7.059785354069539"><ele>906.75</ele><time>2026-04-17T13:11:53Z</time></trkpt><trkpt lat="48.03132468793112" lon="7.059721327150536"><ele>903.5</ele><time>2026-04-17T13:11:54Z</time></trkpt><trkpt lat="48.031228903345244" lon="7.059615163435872"><ele>900.25</ele><time>2026-04-17T13:11:55Z</time></trkpt><trkpt lat="48.03115412095837" lon="7.059480562021913"><ele>897.0</ele><time>2026-04-17T13:11:56Z</time></trkpt><trkpt lat="48.03110519646309" lon="7.05932420396423"><ele>897.0</ele><time>2026-04-17T13:11:57Z</time></trkpt><trkpt lat="48.03107952157549" lon="7.059169141714389"><ele>897.0</ele><time>2026-04-17T13:11:58Z</time></trkpt><trkpt lat="48.03108971542545" lon="7.05900866551895"><ele>897.0</ele><time>2026-04-17T13:11:59Z</time></trkpt><trkpt lat="48.03114458466473" lon="7.058860306834659"><ele>897.0</ele><time>2026-04-17T13:12:00Z</time></trkpt><trkpt lat="48.03120142582844" lon="7.058706440227865"><ele>897.0</ele><time>2026-04-17T13:12:01Z</time></trkpt><trkpt lat="48.03125629942469" lon="7.058553390553584"><ele>893.5</ele><time>2026-04-17T13:12:02Z</time></trkpt><trkpt lat="48.03131577600376" lon="7.058402424020695"><ele>890.0</ele><time>2026-04-17T13:12:03Z</time></trkpt><trkpt lat="48.031384841516356" lon="7.058253227851089"><ele>886.5</ele><time>2026-04-17T13:12:04Z</time></trkpt><trkpt lat="48.03147007448154" lon="7.058116420998887"><ele>883.0</ele><time>2026-04-17T13:12:05Z</time></trkpt><trkpt lat="48.03157040603726" lon="7.057998979538293"><ele>884.5</ele><time>2026-04-17T13:12:06Z</time></trkpt><trkpt lat="48.03167086082669" lon="7.057882886150075"><ele>886.0</ele><time>2026-04-17T13:12:07Z</time></trkpt><trkpt lat="48.03176833670004" lon="7.0577551089032236"><ele>887.5</ele><time>2026-04-17T13:12:08Z</time></trkpt><trkpt lat="48.03186349562705" lon="7.057617195871308"><ele>889.0</ele><time>2026-04-17T13:12:09Z</time></trkpt><trkpt lat="48.03195949192926" lon="7.057476608077591"><ele>885.0</ele><time>2026-04-17T13:12:10Z</time></trkpt><trkpt lat="48.03204209420767" lon="7.057312560447435"><ele>881.0</ele><time>2026-04-17T13:12:11Z</time></trkpt><trkpt lat="48.0321146461042" lon="7.057128157264301"><ele>877.0</ele><time>2026-04-17T13:12:12Z</time></trkpt><trkpt lat="48.03219583789977" lon="7.056942658416729"><ele>873.0</ele><time>2026-04-17T13:12:13Z</time></trkpt><trkpt lat="48.032238678670524" lon="7.056739048863081"><ele>873.5999999999999</ele><time>2026-04-17T13:12:14Z</time></trkpt><trkpt lat="48.03227825948589" lon="7.056565707888945"><ele>874.1999999999999</ele><time>2026-04-17T13:12:15Z</time></trkpt><trkpt lat="48.03229745193557" lon="7.056400644058765"><ele>874.8</ele><time>2026-04-17T13:12:16Z</time></trkpt><trkpt lat="48.03228181321346" lon="7.056247772461248"><ele>875.4</ele><time>2026-04-17T13:12:17Z</time></trkpt><trkpt lat="48.03223937159518" lon="7.056103428265527"><ele>876.0</ele><time>2026-04-17T13:12:18Z</time></trkpt><trkpt lat="48.0321802538409" lon="7.055965161093461"><ele>876.0</ele><time>2026-04-17T13:12:19Z</time></trkpt><trkpt lat="48.032094330011155" lon="7.055848060192193"><ele>876.0</ele><time>2026-04-17T13:12:20Z</time></trkpt><trkpt lat="48.03200074828127" lon="7.055745727388306"><ele>876.0</ele><time>2026-04-17T13:12:21Z</time></trkpt><trkpt lat="48.03190088039546" lon="7.055646635785286"><ele>876.0</ele><time>2026-04-17T13:12:22Z</time></trkpt><trkpt lat="48.03180152325503" lon="7.0555438955461405"><ele>871.25</ele><time>2026-04-17T13:12:23Z</time></trkpt><trkpt lat="48.03169617575642" lon="7.055429277617192"><ele>866.5</ele><time>2026-04-17T13:12:24Z</time></trkpt><trkpt lat="48.03158839970253" lon="7.055317406450053"><ele>861.75</ele><time>2026-04-17T13:12:25Z</time></trkpt><trkpt lat="48.03147901425674" lon="7.055208645518096"><ele>857.0</ele><time>2026-04-17T13:12:26Z</time></trkpt><trkpt lat="48.03136991953266" lon="7.05510233965481"><ele>857.0</ele><time>2026-04-17T13:12:27Z</time></trkpt><trkpt lat="48.03126461415733" lon="7.054988137220633"><ele>857.0</ele><time>2026-04-17T13:12:28Z</time></trkpt><trkpt lat="48.0311738404297" lon="7.054854411540578"><ele>857.0</ele><time>2026-04-17T13:12:29Z</time></trkpt><trkpt lat="48.03109571947683" lon="7.054698621914177"><ele>857.0</ele><time>2026-04-17T13:12:30Z</time></trkpt><trkpt lat="48.03103159299213" lon="7.054533673921057"><ele>858.5</ele><time>2026-04-17T13:12:31Z</time></trkpt><trkpt lat="48.030979741280866" lon="7.054370327977454"><ele>860.0</ele><time>2026-04-17T13:12:32Z</time></trkpt><trkpt lat="48.030942767614484" lon="7.054197701505925"><ele>861.5</ele><time>2026-04-17T13:12:33Z</time></trkpt><trkpt lat="48.03092298226185" lon="7.054012216988018"><ele>863.0</ele><time>2026-04-17T13:12:34Z</time></trkpt><trkpt lat="48.03091167623044" lon="7.053820036924565"><ele>863.0</ele><time>2026-04-17T13:12:35Z</time></trkpt><trkpt lat="48.03091795617224" lon="7.053622888759249"><ele>863.0</ele><time>2026-04-17T13:12:36Z</time></trkpt><trkpt lat="48.03094272366788" lon="7.05342693845323"><ele>863.0</ele><time>2026-04-17T13:12:37Z</time></trkpt><trkpt lat="48.030983138965254" lon="7.053235782649554"><ele>863.0</ele><time>2026-04-17T13:12:38Z</time></trkpt><trkpt lat="48.0310339347272" lon="7.05304408016723"><ele>861.0</ele><time>2026-04-17T13:12:39Z</time></trkpt><trkpt lat="48.0310865617714" lon="7.052850347822335"><ele>859.0</ele><time>2026-04-17T13:12:40Z</time></trkpt><trkpt lat="48.03114671540138" lon="7.05265610292879"><ele>857.0</ele><time>2026-04-17T13:12:41Z</time></trkpt><trkpt lat="48.03119891140455" lon="7.052452616935679"><ele>855.0</ele><time>2026-04-17T13:12:42Z</time></trkpt><trkpt lat="48.03125325045916" lon="7.05225007256193"><ele>852.25</ele><time>2026-04-17T13:12:43Z</time></trkpt><trkpt lat="48.031303056386406" lon="7.052051039597647"><ele>849.5</ele><time>2026-04-17T13:12:44Z</time></trkpt><trkpt lat="48.03135226269966" lon="7.051851174521357"><ele>846.75</ele><time>2026-04-17T13:12:45Z</time></trkpt><trkpt lat="48.03139408926027" lon="7.051653320007543"><ele>844.0</ele><time>2026-04-17T13:12:46Z</time></trkpt><trkpt lat="48.031416789406286" lon="7.051456338775517"><ele>844.0</ele><time>2026-04-17T13:12:47Z</time></trkpt><trkpt lat="48.03142624701326" lon="7.051260484414913"><ele>844.0</ele><time>2026-04-17T13:12:48Z</time></trkpt><trkpt lat="48.03142170111449" lon="7.051054717996255"><ele>844.0</ele><time>2026-04-17T13:12:49Z</time></trkpt><trkpt lat="48.031398986724945" lon="7.05085153201073"><ele>844.0</ele><time>2026-04-17T13:12:50Z</time></trkpt><trkpt lat="48.031364648410985" lon="7.050646414285336"><ele>844.0</ele><time>2026-04-17T13:12:51Z</time></trkpt><trkpt lat="48.03130809023297" lon="7.050459654773735"><ele>844.0</ele><time>2026-04-17T13:12:52Z</time></trkpt><trkpt lat="48.03123903696566" lon="7.050282238892814"><ele>844.0</ele><time>2026-04-17T13:12:53Z</time></trkpt><trkpt lat="48.03116054797062" lon="7.050120210675836"><ele>844.0</ele><time>2026-04-17T13:12:54Z</time></trkpt><trkpt lat="48.03106921160599" lon="7.04997457348954"><ele>840.75</ele><time>2026-04-17T13:12:55Z</time></trkpt><trkpt lat="48.0309569567902" lon="7.049846412402021"><ele>837.5</ele><time>2026-04-17T13:12:56Z</time></trkpt><trkpt lat="48.030833048313376" lon="7.049731759276085"><ele>834.25</ele><time>2026-04-17T13:12:57Z</time></trkpt><trkpt lat="48.030708128166424" lon="7.049620196047149"><ele>831.0</ele><time>2026-04-17T13:12:58Z</time></trkpt><trkpt lat="48.03058131165637" lon="7.049510781424946"><ele>831.0</ele><time>2026-04-17T13:12:59Z</time></trkpt><trkpt lat="48.030460488736786" lon="7.049398087165544"><ele>831.0</ele><time>2026-04-17T13:13:00Z</time></trkpt><trkpt lat="48.03035104630761" lon="7.049274704034559"><ele>831.0</ele><time>2026-04-17T13:13:01Z</time></trkpt><trkpt lat="48.03025690181834" lon="7.049139049965342"><ele>831.0</ele><time>2026-04-17T13:13:02Z</time></trkpt><trkpt lat="48.03018406331032" lon="7.048968325673136"><ele>834.4</ele><time>2026-04-17T13:13:03Z</time></trkpt><trkpt lat="48.030121071498435" lon="7.048812294906063"><ele>837.8</ele><time>2026-04-17T13:13:04Z</time></trkpt><trkpt lat="48.03008070142958" lon="7.048633362578017"><ele>841.1999999999999</ele><time>2026-04-17T13:13:05Z</time></trkpt><trkpt lat="48.030050414008294" lon="7.048483317394083"><ele>844.5999999999999</ele><time>2026-04-17T13:13:06Z</time></trkpt><trkpt lat="48.030023579546715" lon="7.048368561648164"><ele>848.0</ele><time>2026-04-17T13:13:07Z</time></trkpt><trkpt lat="48.029980467130855" lon="7.048283986213023"><ele>844.8333333333334</ele><time>2026-04-17T13:13:08Z</time></trkpt><trkpt lat="48.02991470455836" lon="7.048230840529764"><ele>841.6666666666667</ele><time>2026-04-17T13:13:09Z</time></trkpt><trkpt lat="48.02984184722341" lon="7.0482298566564925"><ele>838.5</ele><time>2026-04-17T13:13:10Z</time></trkpt><trkpt lat="48.02977736309055" lon="7.048283006745875"><ele>835.3333333333333</ele><time>2026-04-17T13:13:11Z</time></trkpt><trkpt lat="48.02971337989567" lon="7.048344801524223"><ele>832.1666666666666</ele><time>2026-04-17T13:13:12Z</time></trkpt><trkpt lat="48.02969954900938" lon="7.048507228951907"><ele>829.0</ele><time>2026-04-17T13:13:13Z</time></trkpt><trkpt lat="48.02974874464357" lon="7.04864594755942"><ele>829.3333333333333</ele><time>2026-04-17T13:13:14Z</time></trkpt><trkpt lat="48.02979732677062" lon="7.048758531515144"><ele>829.6666666666666</ele><time>2026-04-17T13:13:15Z</time></trkpt><trkpt lat="48.029849952330196" lon="7.048859364001666"><ele>830.0</ele><time>2026-04-17T13:13:16Z</time></trkpt><trkpt lat="48.02990011089128" lon="7.048964410616252"><ele>830.3333333333333</ele><time>2026-04-17T13:13:17Z</time></trkpt><trkpt lat="48.0299490553665" lon="7.049078974327218"><ele>830.6666666666666</ele><time>2026-04-17T13:13:18Z</time></trkpt><trkpt lat="48.03000178605064" lon="7.049194217061731"><ele>831.0</ele><time>2026-04-17T13:13:19Z</time></trkpt><trkpt lat="48.030056352198535" lon="7.04931701262769"><ele>831.0</ele><time>2026-04-17T13:13:20Z</time></trkpt><trkpt lat="48.030117170890335" lon="7.0494370654291085"><ele>831.0</ele><time>2026-04-17T13:13:21Z</time></trkpt><trkpt lat="48.03017094486018" lon="7.049571129978535"><ele>831.0</ele><time>2026-04-17T13:13:22Z</time></trkpt><trkpt lat="48.03023430245" lon="7.049701340150303"><ele>831.0</ele><time>2026-04-17T13:13:23Z</time></trkpt><trkpt lat="48.030293281414636" lon="7.049842424676046"><ele>831.0</ele><time>2026-04-17T13:13:24Z</time></trkpt><trkpt lat="48.03035931421275" lon="7.049982331053397"><ele>827.25</ele><time>2026-04-17T13:13:25Z</time></trkpt><trkpt lat="48.03042680603556" lon="7.050125206643422"><ele>823.5</ele><time>2026-04-17T13:13:26Z</time></trkpt><trkpt lat="48.03047950302959" lon="7.050267336944845"><ele>819.75</ele><time>2026-04-17T13:13:27Z</time></trkpt><trkpt lat="48.03050521882117" lon="7.0504240055443335"><ele>816.0</ele><time>2026-04-17T13:13:28Z</time></trkpt><trkpt lat="48.03050896816912" lon="7.050602240926267"><ele>816.0</ele><time>2026-04-17T13:13:29Z</time></trkpt><trkpt lat="48.03048649656448" lon="7.050783485926828"><ele>816.0</ele><time>2026-04-17T13:13:30Z</time></trkpt><trkpt lat="48.03042997852434" lon="7.050950116210401"><ele>816.0</ele><time>2026-04-17T13:13:31Z</time></trkpt><trkpt lat="48.03038666463766" lon="7.051108744481008"><ele>816.0</ele><time>2026-04-17T13:13:32Z</time></trkpt><trkpt lat="48.03031847411436" lon="7.05124223750359"><ele>813.0</ele><time>2026-04-17T13:13:33Z</time></trkpt><trkpt lat="48.030243226444604" lon="7.051387545940227"><ele>810.0</ele><time>2026-04-17T13:13:34Z</time></trkpt><trkpt lat="48.03017791102307" lon="7.051554770759752"><ele>807.0</ele><time>2026-04-17T13:13:35Z</time></trkpt><trkpt lat="48.03011162826807" lon="7.051718932484696"><ele>804.0</ele><time>2026-04-17T13:13:36Z</time></trkpt><trkpt lat="48.030029392737696" lon="7.051876406996594"><ele>798.0</ele><time>2026-04-17T13:13:37Z</time></trkpt><trkpt lat="48.02994726076417" lon="7.0520350560075356"><ele>792.0</ele><time>2026-04-17T13:13:38Z</time></trkpt><trkpt lat="48.02986849826598" lon="7.052196935098359"><ele>786.0</ele><time>2026-04-17T13:13:39Z</time></trkpt><trkpt lat="48.02979830487206" lon="7.052372415678148"><ele>780.0</ele><time>2026-04-17T13:13:40Z</time></trkpt><trkpt lat="48.02973280824677" lon="7.052556044498434"><ele>780.0</ele><time>2026-04-17T13:13:41Z</time></trkpt><trkpt lat="48.029668831046735" lon="7.052743034494444"><ele>780.0</ele><time>2026-04-17T13:13:42Z</time></trkpt><trkpt lat="48.02960988470432" lon="7.0529329395987075"><ele>780.0</ele><time>2026-04-17T13:13:43Z</time></trkpt><trkpt lat="48.02955403205875" lon="7.05311980090157"><ele>780.0</ele><time>2026-04-17T13:13:44Z</time></trkpt><trkpt lat="48.02950277657106" lon="7.05330737147977"><ele>780.75</ele><time>2026-04-17T13:13:45Z</time></trkpt><trkpt lat="48.02945660103047" lon="7.053492452100288"><ele>781.5</ele><time>2026-04-17T13:13:46Z</time></trkpt><trkpt lat="48.02941065144413" lon="7.053673842600629"><ele>782.25</ele><time>2026-04-17T13:13:47Z</time></trkpt><trkpt lat="48.02937390111734" lon="7.053842190564133"><ele>783.0</ele><time>2026-04-17T13:13:48Z</time></trkpt><trkpt lat="48.02934959257209" lon="7.054008771553332"><ele>783.4</ele><time>2026-04-17T13:13:49Z</time></trkpt><trkpt lat="48.0293416618274" lon="7.054172107870216"><ele>783.8</ele><time>2026-04-17T13:13:50Z</time></trkpt><trkpt lat="48.0293578763565" lon="7.054336419331635"><ele>784.2</ele><time>2026-04-17T13:13:51Z</time></trkpt><trkpt lat="48.02939791827768" lon="7.054494023946749"><ele>784.6</ele><time>2026-04-17T13:13:52Z</time></trkpt><trkpt lat="48.02944921291321" lon="7.054642153868892"><ele>785.0</ele><time>2026-04-17T13:13:53Z</time></trkpt><trkpt lat="48.029484757391096" lon="7.0547813365662675"><ele>785.0</ele><time>2026-04-17T13:13:54Z</time></trkpt><trkpt lat="48.02949827434788" lon="7.054909531859369"><ele>785.0</ele><time>2026-04-17T13:13:55Z</time></trkpt><trkpt lat="48.02948182990588" lon="7.055035783183591"><ele>785.0</ele><time>2026-04-17T13:13:56Z</time></trkpt><trkpt lat="48.02943803770971" lon="7.055157058888845"><ele>785.0</ele><time>2026-04-17T13:13:57Z</time></trkpt><trkpt lat="48.02937965417117" lon="7.05527319308424"><ele>785.0</ele><time>2026-04-17T13:13:58Z</time></trkpt><trkpt lat="48.02931109758965" lon="7.055369719756464"><ele>784.6</ele><time>2026-04-17T13:13:59Z</time></trkpt><trkpt lat="48.02922902778796" lon="7.055446869731489"><ele>784.2</ele><time>2026-04-17T13:14:00Z</time></trkpt><trkpt lat="48.02914655961969" lon="7.05551123480083"><ele>783.8</ele><time>2026-04-17T13:14:01Z</time></trkpt><trkpt lat="48.02905305394938" lon="7.055558950862298"><ele>783.4</ele><time>2026-04-17T13:14:02Z</time></trkpt><trkpt lat="48.02895954587968" lon="7.055606449364315"><ele>783.0</ele><time>2026-04-17T13:14:03Z</time></trkpt><trkpt lat="48.02887155728819" lon="7.055648592880481"><ele>783.2</ele><time>2026-04-17T13:14:04Z</time></trkpt><trkpt lat="48.02878332679006" lon="7.055713909408247"><ele>783.4</ele><time>2026-04-17T13:14:05Z</time></trkpt><trkpt lat="48.0286962084359" lon="7.055782286959024"><ele>783.6</ele><time>2026-04-17T13:14:06Z</time></trkpt><trkpt lat="48.02860709643067" lon="7.0558542644522415"><ele>783.8000000000001</ele><time>2026-04-17T13:14:07Z</time></trkpt><trkpt lat="48.02852110578074" lon="7.055930933181506"><ele>784.0</ele><time>2026-04-17T13:14:08Z</time></trkpt><trkpt lat="48.02843851476326" lon="7.056015401843396"><ele>784.0</ele><time>2026-04-17T13:14:09Z</time></trkpt><trkpt lat="48.02834735942557" lon="7.056101248986659"><ele>784.0</ele><time>2026-04-17T13:14:10Z</time></trkpt><trkpt lat="48.0282560710712" lon="7.05618846505069"><ele>784.0</ele><time>2026-04-17T13:14:11Z</time></trkpt><trkpt lat="48.02816398200177" lon="7.056280231594899"><ele>784.0</ele><time>2026-04-17T13:14:12Z</time></trkpt><trkpt lat="48.02806307691006" lon="7.056372075076343"><ele>784.0</ele><time>2026-04-17T13:14:13Z</time></trkpt><trkpt lat="48.02795706296367" lon="7.056455976863691"><ele>781.75</ele><time>2026-04-17T13:14:14Z</time></trkpt><trkpt lat="48.027848384683075" lon="7.056541938953574"><ele>779.5</ele><time>2026-04-17T13:14:15Z</time></trkpt><trkpt lat="48.02772822112268" lon="7.056619991695448"><ele>777.25</ele><time>2026-04-17T13:14:16Z</time></trkpt><trkpt lat="48.027603683559114" lon="7.056692367856058"><ele>775.0</ele><time>2026-04-17T13:14:17Z</time></trkpt><trkpt lat="48.02747199040088" lon="7.0567692332718615"><ele>767.0</ele><time>2026-04-17T13:14:18Z</time></trkpt><trkpt lat="48.02733169885452" lon="7.056852184620879"><ele>759.0</ele><time>2026-04-17T13:14:19Z</time></trkpt><trkpt lat="48.02719021447944" lon="7.056937810111487"><ele>751.0</ele><time>2026-04-17T13:14:20Z</time></trkpt><trkpt lat="48.02704347570272" lon="7.057021560658513"><ele>751.0</ele><time>2026-04-17T13:14:21Z</time></trkpt><trkpt lat="48.026895630839576" lon="7.057108463490739"><ele>751.0</ele><time>2026-04-17T13:14:22Z</time></trkpt><trkpt lat="48.0267465555182" lon="7.057198348054348"><ele>751.0</ele><time>2026-04-17T13:14:23Z</time></trkpt><trkpt lat="48.02659493490693" lon="7.057290383296416"><ele>750.0</ele><time>2026-04-17T13:14:24Z</time></trkpt><trkpt lat="48.02644318835714" lon="7.057378183711279"><ele>749.0</ele><time>2026-04-17T13:14:25Z</time></trkpt><trkpt lat="48.02629014215815" lon="7.057473416995637"><ele>748.0</ele><time>2026-04-17T13:14:26Z</time></trkpt><trkpt lat="48.026146390102255" lon="7.057560898677785"><ele>748.0</ele><time>2026-04-17T13:14:27Z</time></trkpt><trkpt lat="48.02599736323989" lon="7.057653601394904"><ele>748.0</ele><time>2026-04-17T13:14:28Z</time></trkpt><trkpt lat="48.02585411090324" lon="7.057739112559662"><ele>748.0</ele><time>2026-04-17T13:14:29Z</time></trkpt><trkpt lat="48.025712834847305" lon="7.05782734448088"><ele>745.75</ele><time>2026-04-17T13:14:30Z</time></trkpt><trkpt lat="48.02558343797542" lon="7.0579236765924005"><ele>743.5</ele><time>2026-04-17T13:14:31Z</time></trkpt><trkpt lat="48.02547280232411" lon="7.0580418459671455"><ele>741.25</ele><time>2026-04-17T13:14:32Z</time></trkpt><trkpt lat="48.0253825317904" lon="7.058178406206348"><ele>739.0</ele><time>2026-04-17T13:14:33Z</time></trkpt><trkpt lat="48.025306525996434" lon="7.058324817853482"><ele>739.0</ele><time>2026-04-17T13:14:34Z</time></trkpt><trkpt lat="48.0252425120673" lon="7.058489783945498"><ele>739.0</ele><time>2026-04-17T13:14:35Z</time></trkpt><trkpt lat="48.02518503789723" lon="7.058665134483336"><ele>739.0</ele><time>2026-04-17T13:14:36Z</time></trkpt><trkpt lat="48.02512195484418" lon="7.058836421090697"><ele>739.0</ele><time>2026-04-17T13:14:37Z</time></trkpt><trkpt lat="48.025055183455734" lon="7.059008126345818"><ele>740.5</ele><time>2026-04-17T13:14:38Z</time></trkpt><trkpt lat="48.024985462012246" lon="7.0591830001682565"><ele>742.0</ele><time>2026-04-17T13:14:39Z</time></trkpt><trkpt lat="48.024918462472506" lon="7.05935997516541"><ele>743.5</ele><time>2026-04-17T13:14:40Z</time></trkpt><trkpt lat="48.02485006776997" lon="7.059539499439279"><ele>745.0</ele><time>2026-04-17T13:14:41Z</time></trkpt><trkpt lat="48.024781550035875" lon="7.059719858415188"><ele>738.75</ele><time>2026-04-17T13:14:42Z</time></trkpt><trkpt lat="48.02471416161506" lon="7.059903152882819"><ele>732.5</ele><time>2026-04-17T13:14:43Z</time></trkpt><trkpt lat="48.024648959774595" lon="7.060089470423533"><ele>726.25</ele><time>2026-04-17T13:14:44Z</time></trkpt><trkpt lat="48.024591213305555" lon="7.060288035542233"><ele>720.0</ele><time>2026-04-17T13:14:45Z</time></trkpt><trkpt lat="48.02453426710758" lon="7.060480225439365"><ele>720.0</ele><time>2026-04-17T13:14:46Z</time></trkpt><trkpt lat="48.02447005755527" lon="7.060669874900706"><ele>720.0</ele><time>2026-04-17T13:14:47Z</time></trkpt><trkpt lat="48.024410550153775" lon="7.060862711696039"><ele>720.0</ele><time>2026-04-17T13:14:48Z</time></trkpt><trkpt lat="48.02435382694498" lon="7.061046652833898"><ele>720.0</ele><time>2026-04-17T13:14:49Z</time></trkpt><trkpt lat="48.024307437049934" lon="7.061225835904184"><ele>720.25</ele><time>2026-04-17T13:14:50Z</time></trkpt><trkpt lat="48.0242764590737" lon="7.061409615704503"><ele>720.5</ele><time>2026-04-17T13:14:51Z</time></trkpt><trkpt lat="48.02425867382453" lon="7.061598456166312"><ele>720.75</ele><time>2026-04-17T13:14:52Z</time></trkpt><trkpt lat="48.024250715668394" lon="7.06179459143492"><ele>721.0</ele><time>2026-04-17T13:14:53Z</time></trkpt><trkpt lat="48.024235512319876" lon="7.061986798160749"><ele>721.0</ele><time>2026-04-17T13:14:54Z</time></trkpt><trkpt lat="48.024212821278105" lon="7.062161676420003"><ele>721.0</ele><time>2026-04-17T13:14:55Z</time></trkpt><trkpt lat="48.02417602197118" lon="7.062332682478199"><ele>721.0</ele><time>2026-04-17T13:14:56Z</time></trkpt><trkpt lat="48.02411658248455" lon="7.062495978836841"><ele>721.0</ele><time>2026-04-17T13:14:57Z</time></trkpt><trkpt lat="48.024043506303684" lon="7.062647137317522"><ele>715.25</ele><time>2026-04-17T13:14:58Z</time></trkpt><trkpt lat="48.023963818030985" lon="7.062787720610331"><ele>709.5</ele><time>2026-04-17T13:14:59Z</time></trkpt><trkpt lat="48.023882042561745" lon="7.062924778307631"><ele>703.75</ele><time>2026-04-17T13:15:00Z</time></trkpt><trkpt lat="48.02379977582662" lon="7.063061144416173"><ele>698.0</ele><time>2026-04-17T13:15:01Z</time></trkpt><trkpt lat="48.023718979402936" lon="7.063197207607153"><ele>699.5</ele><time>2026-04-17T13:15:02Z</time></trkpt><trkpt lat="48.02363965538067" lon="7.063335309886515"><ele>701.0</ele><time>2026-04-17T13:15:03Z</time></trkpt><trkpt lat="48.02356165716538" lon="7.063477996488337"><ele>702.5</ele><time>2026-04-17T13:15:04Z</time></trkpt><trkpt lat="48.02348296690628" lon="7.06361900030831"><ele>704.0</ele><time>2026-04-17T13:15:05Z</time></trkpt><trkpt lat="48.023403567007904" lon="7.063760349799034"><ele>704.0</ele><time>2026-04-17T13:15:06Z</time></trkpt><trkpt lat="48.02332629702135" lon="7.063901888415757"><ele>704.0</ele><time>2026-04-17T13:15:07Z</time></trkpt><trkpt lat="48.02324875114925" lon="7.064044245006146"><ele>704.0</ele><time>2026-04-17T13:15:08Z</time></trkpt><trkpt lat="48.02317561567505" lon="7.064195773678898"><ele>704.0</ele><time>2026-04-17T13:15:09Z</time></trkpt><trkpt lat="48.02311713020252" lon="7.064360031641824"><ele>703.5</ele><time>2026-04-17T13:15:10Z</time></trkpt><trkpt lat="48.02307101584309" lon="7.0645362573561545"><ele>703.0</ele><time>2026-04-17T13:15:11Z</time></trkpt><trkpt lat="48.0230434480932" lon="7.064717052582765"><ele>702.5</ele><time>2026-04-17T13:15:12Z</time></trkpt><trkpt lat="48.02303350868953" lon="7.064900893898584"><ele>702.0</ele><time>2026-04-17T13:15:13Z</time></trkpt><trkpt lat="48.023039285944364" lon="7.0650835769781875"><ele>703.5</ele><time>2026-04-17T13:15:14Z</time></trkpt><trkpt lat="48.023058467434645" lon="7.065261267203517"><ele>705.0</ele><time>2026-04-17T13:15:15Z</time></trkpt><trkpt lat="48.0230858387706" lon="7.065435495842269"><ele>706.5</ele><time>2026-04-17T13:15:16Z</time></trkpt><trkpt lat="48.023112071946535" lon="7.065605617467066"><ele>708.0</ele><time>2026-04-17T13:15:17Z</time></trkpt><trkpt lat="48.02313457389418" lon="7.065778782754572"><ele>707.0</ele><time>2026-04-17T13:15:18Z</time></trkpt><trkpt lat="48.02316818744643" lon="7.065944813779438"><ele>706.0</ele><time>2026-04-17T13:15:19Z</time></trkpt><trkpt lat="48.0232146910833" lon="7.066108059444089"><ele>705.0</ele><time>2026-04-17T13:15:20Z</time></trkpt><trkpt lat="48.023265103521986" lon="7.066267588319137"><ele>704.0</ele><time>2026-04-17T13:15:21Z</time></trkpt><trkpt lat="48.02332036269299" lon="7.066425611148542"><ele>704.0</ele><time>2026-04-17T13:15:22Z</time></trkpt><trkpt lat="48.02337467178019" lon="7.066586284899147"><ele>704.0</ele><time>2026-04-17T13:15:23Z</time></trkpt><trkpt lat="48.023431216800546" lon="7.066742534575224"><ele>704.0</ele><time>2026-04-17T13:15:24Z</time></trkpt><trkpt lat="48.0234875766709" lon="7.066901662562086"><ele>704.0</ele><time>2026-04-17T13:15:25Z</time></trkpt><trkpt lat="48.02354330510712" lon="7.067063212121862"><ele>701.5</ele><time>2026-04-17T13:15:26Z</time></trkpt><trkpt lat="48.02359222766708" lon="7.067230112009323"><ele>699.0</ele><time>2026-04-17T13:15:27Z</time></trkpt><trkpt lat="48.023635392379404" lon="7.0673989012268"><ele>696.5</ele><time>2026-04-17T13:15:28Z</time></trkpt><trkpt lat="48.02367162525217" lon="7.067568497369552"><ele>694.0</ele><time>2026-04-17T13:15:29Z</time></trkpt><trkpt lat="48.02372080074627" lon="7.067732393878274"><ele>691.5</ele><time>2026-04-17T13:15:30Z</time></trkpt><trkpt lat="48.02377709023596" lon="7.067894720967082"><ele>689.0</ele><time>2026-04-17T13:15:31Z</time></trkpt><trkpt lat="48.02384270518696" lon="7.068053512744191"><ele>686.5</ele><time>2026-04-17T13:15:32Z</time></trkpt><trkpt lat="48.02390787788118" lon="7.068211997547479"><ele>684.0</ele><time>2026-04-17T13:15:33Z</time></trkpt><trkpt lat="48.023976089425865" lon="7.068369529407835"><ele>686.25</ele><time>2026-04-17T13:15:34Z</time></trkpt><trkpt lat="48.02404323493629" lon="7.068530227805457"><ele>688.5</ele><time>2026-04-17T13:15:35Z</time></trkpt><trkpt lat="48.024107175140514" lon="7.068694553873809"><ele>690.75</ele><time>2026-04-17T13:15:36Z</time></trkpt><trkpt lat="48.02416514781386" lon="7.068866193358279"><ele>693.0</ele><time>2026-04-17T13:15:37Z</time></trkpt><trkpt lat="48.02421719580237" lon="7.069043058716907"><ele>689.25</ele><time>2026-04-17T13:15:38Z</time></trkpt><trkpt lat="48.024261466871835" lon="7.069224269689924"><ele>685.5</ele><time>2026-04-17T13:15:39Z</time></trkpt><trkpt lat="48.02429220132493" lon="7.069415299953763"><ele>681.75</ele><time>2026-04-17T13:15:40Z</time></trkpt><trkpt lat="48.02432140255967" lon="7.06960869951869"><ele>678.0</ele><time>2026-04-17T13:15:41Z</time></trkpt><trkpt lat="48.02435161828541" lon="7.069804174878075"><ele>675.5</ele><time>2026-04-17T13:15:42Z</time></trkpt><trkpt lat="48.02438624408582" lon="7.0700042989115595"><ele>673.0</ele><time>2026-04-17T13:15:43Z</time></trkpt><trkpt lat="48.0244241311745" lon="7.0702066787526565"><ele>670.5</ele><time>2026-04-17T13:15:44Z</time></trkpt><trkpt lat="48.0244587584494" lon="7.070410475977008"><ele>668.0</ele><time>2026-04-17T13:15:45Z</time></trkpt><trkpt lat="48.024492657876685" lon="7.070605274605153"><ele>666.25</ele><time>2026-04-17T13:15:46Z</time></trkpt><trkpt lat="48.024529596654624" lon="7.0708099952020875"><ele>664.5</ele><time>2026-04-17T13:15:47Z</time></trkpt><trkpt lat="48.024567107727194" lon="7.071009860274298"><ele>662.75</ele><time>2026-04-17T13:15:48Z</time></trkpt><trkpt lat="48.02461661858193" lon="7.071198156693404"><ele>661.0</ele><time>2026-04-17T13:15:49Z</time></trkpt><trkpt lat="48.024684643343285" lon="7.071375954400447"><ele>661.0</ele><time>2026-04-17T13:15:50Z</time></trkpt><trkpt lat="48.02475529859102" lon="7.071552852204972"><ele>661.0</ele><time>2026-04-17T13:15:51Z</time></trkpt><trkpt lat="48.02483205457784" lon="7.071723731773444"><ele>661.0</ele><time>2026-04-17T13:15:52Z</time></trkpt><trkpt lat="48.02491662488454" lon="7.07188895509359"><ele>661.0</ele><time>2026-04-17T13:15:53Z</time></trkpt><trkpt lat="48.02499936872871" lon="7.07205329357742"><ele>660.0</ele><time>2026-04-17T13:15:54Z</time></trkpt><trkpt lat="48.02508422622866" lon="7.072221483347166"><ele>659.0</ele><time>2026-04-17T13:15:55Z</time></trkpt><trkpt lat="48.025163025426664" lon="7.072394898574785"><ele>658.0</ele><time>2026-04-17T13:15:56Z</time></trkpt><trkpt lat="48.02524336467576" lon="7.072566177031275"><ele>657.0</ele><time>2026-04-17T13:15:57Z</time></trkpt><trkpt lat="48.02533273227998" lon="7.072727487250171"><ele>657.0</ele><time>2026-04-17T13:15:58Z</time></trkpt><trkpt lat="48.025429105751584" lon="7.072878010541382"><ele>657.0</ele><time>2026-04-17T13:15:59Z</time></trkpt><trkpt lat="48.02552959922739" lon="7.073022114946545"><ele>657.0</ele><time>2026-04-17T13:16:00Z</time></trkpt><trkpt lat="48.025630052663644" lon="7.073165628244489"><ele>657.0</ele><time>2026-04-17T13:16:01Z</time></trkpt><trkpt lat="48.025728957753635" lon="7.073290109706545"><ele>655.5</ele><time>2026-04-17T13:16:02Z</time></trkpt><trkpt lat="48.02581889334451" lon="7.073398684561192"><ele>654.0</ele><time>2026-04-17T13:16:03Z</time></trkpt><trkpt lat="48.025916588505446" lon="7.07349174935107"><ele>652.5</ele><time>2026-04-17T13:16:04Z</time></trkpt><trkpt lat="48.02602973050211" lon="7.073545477814661"><ele>651.0</ele><time>2026-04-17T13:16:05Z</time></trkpt><trkpt lat="48.02614572195303" lon="7.073567339757669"><ele>651.0</ele><time>2026-04-17T13:16:06Z</time></trkpt><trkpt lat="48.026264873789216" lon="7.073549639526319"><ele>651.0</ele><time>2026-04-17T13:16:07Z</time></trkpt><trkpt lat="48.02638377548859" lon="7.0735065116628055"><ele>651.0</ele><time>2026-04-17T13:16:08Z</time></trkpt><trkpt lat="48.02650775673263" lon="7.07348944533124"><ele>651.0</ele><time>2026-04-17T13:16:09Z</time></trkpt><trkpt lat="48.02662443091279" lon="7.073461743866043"><ele>650.5</ele><time>2026-04-17T13:16:10Z</time></trkpt><trkpt lat="48.02674964163547" lon="7.073452293021183"><ele>650.0</ele><time>2026-04-17T13:16:11Z</time></trkpt><trkpt lat="48.02687660310459" lon="7.073496407135524"><ele>649.5</ele><time>2026-04-17T13:16:12Z</time></trkpt><trkpt lat="48.02697590882437" lon="7.073614801813546"><ele>649.0</ele><time>2026-04-17T13:16:13Z</time></trkpt><trkpt lat="48.02708548299624" lon="7.073698821685517"><ele>649.0</ele><time>2026-04-17T13:16:14Z</time></trkpt><trkpt lat="48.027196095519955" lon="7.073774350681293"><ele>649.0</ele><time>2026-04-17T13:16:15Z</time></trkpt><trkpt lat="48.02731193147456" lon="7.073819430209805"><ele>649.0</ele><time>2026-04-17T13:16:16Z</time></trkpt><trkpt lat="48.02742310328162" lon="7.073877445975065"><ele>649.0</ele><time>2026-04-17T13:16:17Z</time></trkpt><trkpt lat="48.02753518581629" lon="7.073920743091706"><ele>651.2</ele><time>2026-04-17T13:16:18Z</time></trkpt><trkpt lat="48.02763502528771" lon="7.073990645263896"><ele>653.4000000000001</ele><time>2026-04-17T13:16:19Z</time></trkpt><trkpt lat="48.0277349440135" lon="7.074043623061169"><ele>655.6</ele><time>2026-04-17T13:16:20Z</time></trkpt><trkpt lat="48.02782603727498" lon="7.074100267557011"><ele>657.8</ele><time>2026-04-17T13:16:21Z</time></trkpt><trkpt lat="48.02788685604571" lon="7.074152080615912"><ele>660.0</ele><time>2026-04-17T13:16:22Z</time></trkpt><trkpt lat="48.02794566207839" lon="7.074212363636315"><ele>656.0</ele><time>2026-04-17T13:16:23Z</time></trkpt><trkpt lat="48.02795552326588" lon="7.07433375946466"><ele>652.0</ele><time>2026-04-17T13:16:24Z</time></trkpt><trkpt lat="48.027936777107946" lon="7.074445426288165"><ele>648.0</ele><time>2026-04-17T13:16:25Z</time></trkpt><trkpt lat="48.027885264064494" lon="7.074527900250803"><ele>644.0</ele><time>2026-04-17T13:16:26Z</time></trkpt><trkpt lat="48.0278135078329" lon="7.074560794754146"><ele>640.0</ele><time>2026-04-17T13:16:27Z</time></trkpt><trkpt lat="48.02773445130814" lon="7.074539823472995"><ele>636.0</ele><time>2026-04-17T13:16:28Z</time></trkpt><trkpt lat="48.02766519978958" lon="7.074486760704344"><ele>636.0</ele><time>2026-04-17T13:16:29Z</time></trkpt><trkpt lat="48.02759768761131" lon="7.074430928709656"><ele>636.0</ele><time>2026-04-17T13:16:30Z</time></trkpt><trkpt lat="48.0275300671145" lon="7.074366648159802"><ele>636.0</ele><time>2026-04-17T13:16:31Z</time></trkpt><trkpt lat="48.027457714756174" lon="7.074310804473233"><ele>636.0</ele><time>2026-04-17T13:16:32Z</time></trkpt><trkpt lat="48.02738070666841" lon="7.074260952850247"><ele>636.0</ele><time>2026-04-17T13:16:33Z</time></trkpt><trkpt lat="48.0273031359131" lon="7.074211101393041"><ele>636.0</ele><time>2026-04-17T13:16:34Z</time></trkpt><trkpt lat="48.02722324146132" lon="7.074165468753714"><ele>634.0</ele><time>2026-04-17T13:16:35Z</time></trkpt><trkpt lat="48.02713807338155" lon="7.074129294801614"><ele>632.0</ele><time>2026-04-17T13:16:36Z</time></trkpt><trkpt lat="48.02704408322593" lon="7.0741110572839965"><ele>630.0</ele><time>2026-04-17T13:16:37Z</time></trkpt><trkpt lat="48.02694932806171" lon="7.074105003921371"><ele>628.0</ele><time>2026-04-17T13:16:38Z</time></trkpt><trkpt lat="48.02685024462506" lon="7.074115695487974"><ele>626.0</ele><time>2026-04-17T13:16:39Z</time></trkpt><trkpt lat="48.02675011862867" lon="7.074146164588139"><ele>626.0</ele><time>2026-04-17T13:16:40Z</time></trkpt><trkpt lat="48.02665568951833" lon="7.074186025484331"><ele>626.0</ele><time>2026-04-17T13:16:41Z</time></trkpt><trkpt lat="48.02655859059907" lon="7.074225629744226"><ele>626.0</ele><time>2026-04-17T13:16:42Z</time></trkpt><trkpt lat="48.026461085447636" lon="7.0742710881838535"><ele>626.0</ele><time>2026-04-17T13:16:43Z</time></trkpt><trkpt lat="48.02637041454514" lon="7.074337329482354"><ele>626.0</ele><time>2026-04-17T13:16:44Z</time></trkpt><trkpt lat="48.026277893673736" lon="7.074406871385093"><ele>626.8</ele><time>2026-04-17T13:16:45Z</time></trkpt><trkpt lat="48.02618370819927" lon="7.074474197541212"><ele>627.6</ele><time>2026-04-17T13:16:46Z</time></trkpt><trkpt lat="48.02608534239395" lon="7.07452085221433"><ele>628.4</ele><time>2026-04-17T13:16:47Z</time></trkpt><trkpt lat="48.02598251735447" lon="7.07455298065756"><ele>629.2</ele><time>2026-04-17T13:16:48Z</time></trkpt><trkpt lat="48.025875977743894" lon="7.074574853274305"><ele>630.0</ele><time>2026-04-17T13:16:49Z</time></trkpt><trkpt lat="48.02577086997417" lon="7.074573781812261"><ele>627.4</ele><time>2026-04-17T13:16:50Z</time></trkpt><trkpt lat="48.025665922589724" lon="7.074558709090593"><ele>624.8</ele><time>2026-04-17T13:16:51Z</time></trkpt><trkpt lat="48.025562387325394" lon="7.074525372205202"><ele>622.2</ele><time>2026-04-17T13:16:52Z</time></trkpt><trkpt lat="48.02546919635008" lon="7.074478313828129"><ele>619.6</ele><time>2026-04-17T13:16:53Z</time></trkpt><trkpt lat="48.025367243007146" lon="7.074419559707257"><ele>617.0</ele><time>2026-04-17T13:16:54Z</time></trkpt><trkpt lat="48.02526581787501" lon="7.074359488086756"><ele>617.0</ele><time>2026-04-17T13:16:55Z</time></trkpt><trkpt lat="48.02516934286287" lon="7.074293932516804"><ele>617.0</ele><time>2026-04-17T13:16:56Z</time></trkpt><trkpt lat="48.025068567684734" lon="7.07423074046253"><ele>617.0</ele><time>2026-04-17T13:16:57Z</time></trkpt><trkpt lat="48.02496696190861" lon="7.074164942087663"><ele>617.0</ele><time>2026-04-17T13:16:58Z</time></trkpt><trkpt lat="48.02486517042569" lon="7.074098035564435"><ele>617.0</ele><time>2026-04-17T13:16:59Z</time></trkpt><trkpt lat="48.024761186785796" lon="7.074021129335071"><ele>616.75</ele><time>2026-04-17T13:17:00Z</time></trkpt><trkpt lat="48.02467987820242" lon="7.073902466171928"><ele>616.5</ele><time>2026-04-17T13:17:01Z</time></trkpt><trkpt lat="48.02459426493393" lon="7.073786698827792"><ele>616.25</ele><time>2026-04-17T13:17:02Z</time></trkpt><trkpt lat="48.02450531151211" lon="7.073665130650585"><ele>616.0</ele><time>2026-04-17T13:17:03Z</time></trkpt><trkpt lat="48.02442304328346" lon="7.073535069541258"><ele>616.0</ele><time>2026-04-17T13:17:04Z</time></trkpt><trkpt lat="48.02433468279486" lon="7.07341000961836"><ele>616.0</ele><time>2026-04-17T13:17:05Z</time></trkpt><trkpt lat="48.024239961700104" lon="7.073291828188988"><ele>616.0</ele><time>2026-04-17T13:17:06Z</time></trkpt><trkpt lat="48.02413803872153" lon="7.073190601037244"><ele>616.0</ele><time>2026-04-17T13:17:07Z</time></trkpt><trkpt lat="48.024029999941675" lon="7.073102014358454"><ele>612.25</ele><time>2026-04-17T13:17:08Z</time></trkpt><trkpt lat="48.0239144487134" lon="7.073011538414534"><ele>608.5</ele><time>2026-04-17T13:17:09Z</time></trkpt><trkpt lat="48.02380406728042" lon="7.072916983257692"><ele>604.75</ele><time>2026-04-17T13:17:10Z</time></trkpt><trkpt lat="48.02369841142134" lon="7.072810733890522"><ele>601.0</ele><time>2026-04-17T13:17:11Z</time></trkpt><trkpt lat="48.0235925152372" lon="7.072695351277445"><ele>601.0</ele><time>2026-04-17T13:17:12Z</time></trkpt><trkpt lat="48.02348943105075" lon="7.072576186098077"><ele>601.0</ele><time>2026-04-17T13:17:13Z</time></trkpt><trkpt lat="48.02338851058625" lon="7.072452060689789"><ele>601.0</ele><time>2026-04-17T13:17:14Z</time></trkpt><trkpt lat="48.023285233803286" lon="7.0723328059954795"><ele>601.0</ele><time>2026-04-17T13:17:15Z</time></trkpt><trkpt lat="48.02318671211216" lon="7.072209457171552"><ele>597.5</ele><time>2026-04-17T13:17:16Z</time></trkpt><trkpt lat="48.02308612665175" lon="7.0720878310297906"><ele>594.0</ele><time>2026-04-17T13:17:17Z</time></trkpt><trkpt lat="48.0229800120296" lon="7.071973227269505"><ele>590.5</ele><time>2026-04-17T13:17:18Z</time></trkpt><trkpt lat="48.02287750017704" lon="7.07185273572699"><ele>587.0</ele><time>2026-04-17T13:17:19Z</time></trkpt><trkpt lat="48.02278668272776" lon="7.071711556215547"><ele>586.5</ele><time>2026-04-17T13:17:20Z</time></trkpt><trkpt lat="48.022707050145975" lon="7.071561387283218"><ele>586.0</ele><time>2026-04-17T13:17:21Z</time></trkpt><trkpt lat="48.02261675244394" lon="7.071420251016599"><ele>585.5</ele><time>2026-04-17T13:17:22Z</time></trkpt><trkpt lat="48.022535188773055" lon="7.071275516238196"><ele>585.0</ele><time>2026-04-17T13:17:23Z</time></trkpt><trkpt lat="48.02246017624819" lon="7.071128283056136"><ele>585.0</ele><time>2026-04-17T13:17:24Z</time></trkpt><trkpt lat="48.022381767037935" lon="7.07098796053327"><ele>585.0</ele><time>2026-04-17T13:17:25Z</time></trkpt><trkpt lat="48.022304634737516" lon="7.070856329130239"><ele>585.0</ele><time>2026-04-17T13:17:26Z</time></trkpt><trkpt lat="48.02223326148134" lon="7.070737052390431"><ele>585.0</ele><time>2026-04-17T13:17:27Z</time></trkpt><trkpt lat="48.02217180404076" lon="7.070652406847203"><ele>585.0</ele><time>2026-04-17T13:17:28Z</time></trkpt><trkpt lat="48.022097542366495" lon="7.0706002414210225"><ele>585.0</ele><time>2026-04-17T13:17:29Z</time></trkpt><trkpt lat="48.02200793211987" lon="7.070600275524617"><ele>585.0</ele><time>2026-04-17T13:17:30Z</time></trkpt><trkpt lat="48.02193604249374" lon="7.070645166464762"><ele>585.0</ele><time>2026-04-17T13:17:31Z</time></trkpt><trkpt lat="48.02187222761896" lon="7.070733182388059"><ele>585.0</ele><time>2026-04-17T13:17:32Z</time></trkpt><trkpt lat="48.0218430112564" lon="7.070858749281098"><ele>585.0</ele><time>2026-04-17T13:17:33Z</time></trkpt><trkpt lat="48.02184349073126" lon="7.070992350443745"><ele>585.0</ele><time>2026-04-17T13:17:34Z</time></trkpt><trkpt lat="48.02189759419627" lon="7.071112090984371"><ele>585.0</ele><time>2026-04-17T13:17:35Z</time></trkpt><trkpt lat="48.021939237366894" lon="7.071210310846595"><ele>585.0</ele><time>2026-04-17T13:17:36Z</time></trkpt><trkpt lat="48.02200105471113" lon="7.071286975498006"><ele>585.0</ele><time>2026-04-17T13:17:37Z</time></trkpt><trkpt lat="48.022065708733" lon="7.071362550404136"><ele>585.0</ele><time>2026-04-17T13:17:38Z</time></trkpt><trkpt lat="48.022134198186826" lon="7.071436129663351"><ele>585.0</ele><time>2026-04-17T13:17:39Z</time></trkpt><trkpt lat="48.02220292241338" lon="7.071508222212623"><ele>585.0</ele><time>2026-04-17T13:17:40Z</time></trkpt><trkpt lat="48.02227407116078" lon="7.071579639649095"><ele>585.4</ele><time>2026-04-17T13:17:41Z</time></trkpt><trkpt lat="48.02234242511219" lon="7.071668082565219"><ele>585.8</ele><time>2026-04-17T13:17:42Z</time></trkpt><trkpt lat="48.02241306162472" lon="7.071739647131749"><ele>586.2</ele><time>2026-04-17T13:17:43Z</time></trkpt><trkpt lat="48.02248409925835" lon="7.071823768687307"><ele>586.6</ele><time>2026-04-17T13:17:44Z</time></trkpt><trkpt lat="48.02255367184323" lon="7.071913497163131"><ele>587.0</ele><time>2026-04-17T13:17:45Z</time></trkpt><trkpt lat="48.022620918576095" lon="7.072006194306109"><ele>587.0</ele><time>2026-04-17T13:17:46Z</time></trkpt><trkpt lat="48.0226818633179" lon="7.072111499326705"><ele>587.0</ele><time>2026-04-17T13:17:47Z</time></trkpt><trkpt lat="48.02274361114108" lon="7.07221824113767"><ele>587.0</ele><time>2026-04-17T13:17:48Z</time></trkpt><trkpt lat="48.02280365654797" lon="7.072326630488673"><ele>587.0</ele><time>2026-04-17T13:17:49Z</time></trkpt><trkpt lat="48.02286630695672" lon="7.072436709891965"><ele>587.0</ele><time>2026-04-17T13:17:50Z</time></trkpt><trkpt lat="48.02292661237058" lon="7.072552084872733"><ele>582.8000000000001</ele><time>2026-04-17T13:17:51Z</time></trkpt><trkpt lat="48.02298321626297" lon="7.07267182483674"><ele>578.6</ele><time>2026-04-17T13:17:52Z</time></trkpt><trkpt lat="48.023044572895905" lon="7.07278453725644"><ele>574.4000000000001</ele><time>2026-04-17T13:17:53Z</time></trkpt><trkpt lat="48.02310187328134" lon="7.072903479710132"><ele>570.2</ele><time>2026-04-17T13:17:54Z</time></trkpt><trkpt lat="48.02315702855874" lon="7.073028832225742"><ele>566.0</ele><time>2026-04-17T13:17:55Z</time></trkpt><trkpt lat="48.02321469097308" lon="7.073152483278609"><ele>569.2</ele><time>2026-04-17T13:17:56Z</time></trkpt><trkpt lat="48.02326640582768" lon="7.073284623599105"><ele>572.4000000000001</ele><time>2026-04-17T13:17:57Z</time></trkpt><trkpt lat="48.02331399972021" lon="7.073423121960136"><ele>575.6</ele><time>2026-04-17T13:17:58Z</time></trkpt><trkpt lat="48.02335978578838" lon="7.0735644570604315"><ele>578.8000000000001</ele><time>2026-04-17T13:17:59Z</time></trkpt><trkpt lat="48.02340516009412" lon="7.07370387498446"><ele>582.0</ele><time>2026-04-17T13:18:00Z</time></trkpt><trkpt lat="48.02345116152462" lon="7.0738468417824025"><ele>582.0</ele><time>2026-04-17T13:18:01Z</time></trkpt><trkpt lat="48.023501428366515" lon="7.07398964024195"><ele>582.0</ele><time>2026-04-17T13:18:02Z</time></trkpt><trkpt lat="48.02355623763485" lon="7.074128649795266"><ele>582.0</ele><time>2026-04-17T13:18:03Z</time></trkpt><trkpt lat="48.02361325292874" lon="7.07426598235945"><ele>582.0</ele><time>2026-04-17T13:18:04Z</time></trkpt><trkpt lat="48.02367651904702" lon="7.074400043721478"><ele>582.0</ele><time>2026-04-17T13:18:05Z</time></trkpt><trkpt lat="48.0237450092257" lon="7.074528304224086"><ele>580.0</ele><time>2026-04-17T13:18:06Z</time></trkpt><trkpt lat="48.023820945110494" lon="7.074651821131179"><ele>578.0</ele><time>2026-04-17T13:18:07Z</time></trkpt><trkpt lat="48.02389382434428" lon="7.0747769707688155"><ele>576.0</ele><time>2026-04-17T13:18:08Z</time></trkpt><trkpt lat="48.02397578431033" lon="7.074893973890827"><ele>574.0</ele><time>2026-04-17T13:18:09Z</time></trkpt><trkpt lat="48.02406307872074" lon="7.075000808561352"><ele>572.0</ele><time>2026-04-17T13:18:10Z</time></trkpt><trkpt lat="48.02415408487151" lon="7.0751030866455284"><ele>572.0</ele><time>2026-04-17T13:18:11Z</time></trkpt><trkpt lat="48.024247701548234" lon="7.075201862386446"><ele>572.0</ele><time>2026-04-17T13:18:12Z</time></trkpt><trkpt lat="48.0243412987638" lon="7.075299910746603"><ele>572.0</ele><time>2026-04-17T13:18:13Z</time></trkpt><trkpt lat="48.02444196255779" lon="7.075388288006477"><ele>572.0</ele><time>2026-04-17T13:18:14Z</time></trkpt><trkpt lat="48.02454325531538" lon="7.075478440513594"><ele>572.0</ele><time>2026-04-17T13:18:15Z</time></trkpt><trkpt lat="48.02464594464473" lon="7.075563793015151"><ele>572.0</ele><time>2026-04-17T13:18:16Z</time></trkpt><trkpt lat="48.02474651747303" lon="7.075662525047464"><ele>572.0</ele><time>2026-04-17T13:18:17Z</time></trkpt><trkpt lat="48.02482978329397" lon="7.075787372307672"><ele>572.0</ele><time>2026-04-17T13:18:18Z</time></trkpt><trkpt lat="48.024900709782194" lon="7.0759315021340194"><ele>570.0</ele><time>2026-04-17T13:18:19Z</time></trkpt><trkpt lat="48.024963488678665" lon="7.076087423637055"><ele>568.0</ele><time>2026-04-17T13:18:20Z</time></trkpt><trkpt lat="48.02501501474914" lon="7.076253763054438"><ele>566.0</ele><time>2026-04-17T13:18:21Z</time></trkpt><trkpt lat="48.025065076042075" lon="7.076424956307645"><ele>564.0</ele><time>2026-04-17T13:18:22Z</time></trkpt><trkpt lat="48.02511496823376" lon="7.0765944662188565"><ele>558.5</ele><time>2026-04-17T13:18:23Z</time></trkpt><trkpt lat="48.0251735230189" lon="7.076773651865431"><ele>553.0</ele><time>2026-04-17T13:18:24Z</time></trkpt><trkpt lat="48.025228454299075" lon="7.07694586968934"><ele>547.5</ele><time>2026-04-17T13:18:25Z</time></trkpt><trkpt lat="48.025289964467596" lon="7.077110649124676"><ele>542.0</ele><time>2026-04-17T13:18:26Z</time></trkpt><trkpt lat="48.02535285178801" lon="7.0772792128279205"><ele>538.5</ele><time>2026-04-17T13:18:27Z</time></trkpt><trkpt lat="48.0254160077158" lon="7.077446404588051"><ele>535.0</ele><time>2026-04-17T13:18:28Z</time></trkpt><trkpt lat="48.02548380783839" lon="7.077607621564441"><ele>531.5</ele><time>2026-04-17T13:18:29Z</time></trkpt><trkpt lat="48.025554772430866" lon="7.077764835398968"><ele>528.0</ele><time>2026-04-17T13:18:30Z</time></trkpt><trkpt lat="48.02563424634645" lon="7.0779075500315125"><ele>528.0</ele><time>2026-04-17T13:18:31Z</time></trkpt><trkpt lat="48.02573007798647" lon="7.078028087438523"><ele>528.0</ele><time>2026-04-17T13:18:32Z</time></trkpt><trkpt lat="48.02583901541713" lon="7.078123593237447"><ele>528.0</ele><time>2026-04-17T13:18:33Z</time></trkpt><trkpt lat="48.025960972762896" lon="7.078211006531729"><ele>528.0</ele><time>2026-04-17T13:18:34Z</time></trkpt><trkpt lat="48.02608389179189" lon="7.078278432148607"><ele>528.5</ele><time>2026-04-17T13:18:35Z</time></trkpt><trkpt lat="48.02621176806728" lon="7.078350492457332"><ele>529.0</ele><time>2026-04-17T13:18:36Z</time></trkpt><trkpt lat="48.026340446525495" lon="7.078428359670619"><ele>529.5</ele><time>2026-04-17T13:18:37Z</time></trkpt><trkpt lat="48.026466197093946" lon="7.078519776340583"><ele>530.0</ele><time>2026-04-17T13:18:38Z</time></trkpt><trkpt lat="48.02658782307804" lon="7.0786232308768975"><ele>527.5</ele><time>2026-04-17T13:18:39Z</time></trkpt><trkpt lat="48.026708858805556" lon="7.078738616526065"><ele>525.0</ele><time>2026-04-17T13:18:40Z</time></trkpt><trkpt lat="48.02682193380523" lon="7.078873295142381"><ele>522.5</ele><time>2026-04-17T13:18:41Z</time></trkpt><trkpt lat="48.026935835581064" lon="7.079017122200528"><ele>520.0</ele><time>2026-04-17T13:18:42Z</time></trkpt><trkpt lat="48.0270529798374" lon="7.0791462816441815"><ele>520.0</ele><time>2026-04-17T13:18:43Z</time></trkpt><trkpt lat="48.02716764719884" lon="7.079258516127473"><ele>520.0</ele><time>2026-04-17T13:18:44Z</time></trkpt><trkpt lat="48.02727284545997" lon="7.079344441027885"><ele>520.0</ele><time>2026-04-17T13:18:45Z</time></trkpt><trkpt lat="48.027368729793" lon="7.079394347296985"><ele>520.0</ele><time>2026-04-17T13:18:46Z</time></trkpt><trkpt lat="48.02746292890276" lon="7.079432777188426"><ele>520.0</ele><time>2026-04-17T13:18:47Z</time></trkpt><trkpt lat="48.02754579656822" lon="7.079459874389506"><ele>520.0</ele><time>2026-04-17T13:18:48Z</time></trkpt><trkpt lat="48.02760898269314" lon="7.079494607229299"><ele>520.0</ele><time>2026-04-17T13:18:49Z</time></trkpt><trkpt lat="48.02764356159699" lon="7.079650343463296"><ele>520.0</ele><time>2026-04-17T13:18:51Z</time></trkpt><trkpt lat="48.02760001629624" lon="7.079746613711665"><ele>520.0</ele><time>2026-04-17T13:18:52Z</time></trkpt><trkpt lat="48.027527418825514" lon="7.079806320283486"><ele>520.0</ele><time>2026-04-17T13:18:53Z</time></trkpt><trkpt lat="48.02744119089422" lon="7.079822442319475"><ele>520.0</ele><time>2026-04-17T13:18:54Z</time></trkpt><trkpt lat="48.02735616660055" lon="7.079773699159094"><ele>520.0</ele><time>2026-04-17T13:18:55Z</time></trkpt><trkpt lat="48.027272350130296" lon="7.079797478729878"><ele>520.0</ele><time>2026-04-17T13:18:56Z</time></trkpt><trkpt lat="48.027189356751315" lon="7.079807657566759"><ele>520.0</ele><time>2026-04-17T13:18:57Z</time></trkpt><trkpt lat="48.02710596491417" lon="7.079817497233383"><ele>520.0</ele><time>2026-04-17T13:18:58Z</time></trkpt><trkpt lat="48.02701761728802" lon="7.07982709258498"><ele>520.0</ele><time>2026-04-17T13:18:59Z</time></trkpt><trkpt lat="48.02692755888573" lon="7.0798232687902765"><ele>520.0</ele><time>2026-04-17T13:19:00Z</time></trkpt><trkpt lat="48.02683255829578" lon="7.079800486559288"><ele>520.0</ele><time>2026-04-17T13:19:01Z</time></trkpt><trkpt lat="48.02673761956523" lon="7.079750460456486"><ele>520.0</ele><time>2026-04-17T13:19:02Z</time></trkpt><trkpt lat="48.026654207109935" lon="7.079686031296134"><ele>520.0</ele><time>2026-04-17T13:19:03Z</time></trkpt><trkpt lat="48.02656919738408" lon="7.079612838470239"><ele>520.0</ele><time>2026-04-17T13:19:04Z</time></trkpt><trkpt lat="48.02648741741544" lon="7.079551899507581"><ele>517.6</ele><time>2026-04-17T13:19:05Z</time></trkpt><trkpt lat="48.026410218451154" lon="7.079477681714965"><ele>515.2</ele><time>2026-04-17T13:19:06Z</time></trkpt><trkpt lat="48.026307723307355" lon="7.079419811777821"><ele>512.8</ele><time>2026-04-17T13:19:07Z</time></trkpt><trkpt lat="48.02621549172526" lon="7.0793578290290275"><ele>510.4</ele><time>2026-04-17T13:19:08Z</time></trkpt><trkpt lat="48.02612727244227" lon="7.07929405352848"><ele>508.0</ele><time>2026-04-17T13:19:09Z</time></trkpt><trkpt lat="48.0260381882566" lon="7.079221007739972"><ele>508.0</ele><time>2026-04-17T13:19:10Z</time></trkpt><trkpt lat="48.025941136531486" lon="7.079156510276165"><ele>507.99999999999994</ele><time>2026-04-17T13:19:11Z</time></trkpt><trkpt lat="48.02584408728638" lon="7.0790947531097865"><ele>507.99999999999994</ele><time>2026-04-17T13:19:12Z</time></trkpt><trkpt lat="48.02574601654825" lon="7.079031665762811"><ele>508.0</ele><time>2026-04-17T13:19:13Z</time></trkpt><trkpt lat="48.02564227481079" lon="7.078978723283749"><ele>508.0</ele><time>2026-04-17T13:19:14Z</time></trkpt><trkpt lat="48.025541632816676" lon="7.078923595157076"><ele>508.59999999999997</ele><time>2026-04-17T13:19:15Z</time></trkpt><trkpt lat="48.02543874384111" lon="7.078866854464538"><ele>509.19999999999993</ele><time>2026-04-17T13:19:16Z</time></trkpt><trkpt lat="48.02533865961144" lon="7.078811804500841"><ele>509.8</ele><time>2026-04-17T13:19:17Z</time></trkpt><trkpt lat="48.02523189931725" lon="7.078763266686524"><ele>510.4</ele><time>2026-04-17T13:19:18Z</time></trkpt><trkpt lat="48.02512925634784" lon="7.07871242162452"><ele>511.0</ele><time>2026-04-17T13:19:19Z</time></trkpt><trkpt lat="48.025026340858524" lon="7.0786644166405885"><ele>506.4</ele><time>2026-04-17T13:19:20Z</time></trkpt><trkpt lat="48.02492267854283" lon="7.078616799519935"><ele>501.8</ele><time>2026-04-17T13:19:21Z</time></trkpt><trkpt lat="48.024822274686024" lon="7.078562098214158"><ele>497.19999999999993</ele><time>2026-04-17T13:19:22Z</time></trkpt><trkpt lat="48.02473407391857" lon="7.078496023426097"><ele>492.59999999999997</ele><time>2026-04-17T13:19:23Z</time></trkpt><trkpt lat="48.02465543385558" lon="7.0784126721096445"><ele>488.0</ele><time>2026-04-17T13:19:24Z</time></trkpt><trkpt lat="48.0245922685268" lon="7.078309057174706"><ele>491.0</ele><time>2026-04-17T13:19:25Z</time></trkpt><trkpt lat="48.02454042120601" lon="7.0781825701229515"><ele>493.99999999999994</ele><time>2026-04-17T13:19:26Z</time></trkpt><trkpt lat="48.02450498560513" lon="7.078046004532855"><ele>496.99999999999994</ele><time>2026-04-17T13:19:27Z</time></trkpt><trkpt lat="48.02446988547948" lon="7.077937626073567"><ele>500.0</ele><time>2026-04-17T13:19:28Z</time></trkpt><trkpt lat="48.024364179964515" lon="7.077843186410133"><ele>503.0</ele><time>2026-04-17T13:19:30Z</time></trkpt><trkpt lat="48.02429899626772" lon="7.077855637351182"><ele>502.99999999999994</ele><time>2026-04-17T13:19:31Z</time></trkpt><trkpt lat="48.024241326726894" lon="7.077923537298102"><ele>503.0</ele><time>2026-04-17T13:19:32Z</time></trkpt><trkpt lat="48.02420664315565" lon="7.07803349097653"><ele>503.0</ele><time>2026-04-17T13:19:33Z</time></trkpt><trkpt lat="48.02420937205165" lon="7.078158824439617"><ele>503.0</ele><time>2026-04-17T13:19:34Z</time></trkpt><trkpt lat="48.02424365303038" lon="7.0782741831334075"><ele>502.99999999999994</ele><time>2026-04-17T13:19:35Z</time></trkpt><trkpt lat="48.02429967561068" lon="7.078369289326029"><ele>503.0</ele><time>2026-04-17T13:19:36Z</time></trkpt><trkpt lat="48.024357781684124" lon="7.078457001151874"><ele>500.0</ele><time>2026-04-17T13:19:37Z</time></trkpt><trkpt lat="48.02441392516163" lon="7.0785541114053805"><ele>496.99999999999994</ele><time>2026-04-17T13:19:38Z</time></trkpt><trkpt lat="48.02446717359318" lon="7.078658412120285"><ele>493.99999999999994</ele><time>2026-04-17T13:19:39Z</time></trkpt><trkpt lat="48.02452212136787" lon="7.078767194539303"><ele>491.0</ele><time>2026-04-17T13:19:40Z</time></trkpt><trkpt lat="48.02458220831555" lon="7.07888496912924"><ele>488.0</ele><time>2026-04-17T13:19:41Z</time></trkpt><trkpt lat="48.02464471675169" lon="7.078998873073389"><ele>489.0</ele><time>2026-04-17T13:19:42Z</time></trkpt><trkpt lat="48.024712659893275" lon="7.079113737533676"><ele>489.99999999999994</ele><time>2026-04-17T13:19:43Z</time></trkpt><trkpt lat="48.02478201576404" lon="7.0792247929077545"><ele>490.99999999999994</ele><time>2026-04-17T13:19:44Z</time></trkpt><trkpt lat="48.024851528807055" lon="7.079338184388965"><ele>492.0</ele><time>2026-04-17T13:19:45Z</time></trkpt><trkpt lat="48.02491408688838" lon="7.07945933375085"><ele>493.0</ele><time>2026-04-17T13:19:46Z</time></trkpt><trkpt lat="48.02498868342053" lon="7.0795743874106725"><ele>493.0</ele><time>2026-04-17T13:19:47Z</time></trkpt><trkpt lat="48.02505945013307" lon="7.079700775380547"><ele>492.99999999999994</ele><time>2026-04-17T13:19:48Z</time></trkpt><trkpt lat="48.025123279218974" lon="7.079823884144232"><ele>492.99999999999994</ele><time>2026-04-17T13:19:49Z</time></trkpt><trkpt lat="48.0251711266907" lon="7.07994308465824"><ele>493.0</ele><time>2026-04-17T13:19:50Z</time></trkpt><trkpt lat="48.02521025721362" lon="7.0800808383074445"><ele>493.0</ele><time>2026-04-17T13:19:51Z</time></trkpt><trkpt lat="48.02522693290537" lon="7.080237330873984"><ele>490.59999999999997</ele><time>2026-04-17T13:19:52Z</time></trkpt><trkpt lat="48.02521980475573" lon="7.080399515388432"><ele>488.19999999999993</ele><time>2026-04-17T13:19:53Z</time></trkpt><trkpt lat="48.02516904250846" lon="7.080544478559448"><ele>485.8</ele><time>2026-04-17T13:19:54Z</time></trkpt><trkpt lat="48.025122104670736" lon="7.080690476139285"><ele>483.4</ele><time>2026-04-17T13:19:55Z</time></trkpt><trkpt lat="48.025081059539524" lon="7.080841468846656"><ele>481.0</ele><time>2026-04-17T13:19:56Z</time></trkpt><trkpt lat="48.02503082040664" lon="7.080978752743014"><ele>480.50000000000006</ele><time>2026-04-17T13:19:57Z</time></trkpt><trkpt lat="48.02500613544647" lon="7.081123725010658"><ele>480.0</ele><time>2026-04-17T13:19:58Z</time></trkpt><trkpt lat="48.024997422916435" lon="7.081256015898393"><ele>479.5</ele><time>2026-04-17T13:19:59Z</time></trkpt><trkpt lat="48.02501477887777" lon="7.0813789495846935"><ele>479.0</ele><time>2026-04-17T13:20:00Z</time></trkpt><trkpt lat="48.02502929681088" lon="7.081482222726111"><ele>478.50000000000006</ele><time>2026-04-17T13:20:01Z</time></trkpt><trkpt lat="48.02498814520069" lon="7.081576702182485"><ele>478.0</ele><time>2026-04-17T13:20:04Z</time></trkpt><trkpt lat="48.02492533040059" lon="7.081610221842187"><ele>477.6666666666667</ele><time>2026-04-17T13:21:09Z</time></trkpt><trkpt lat="48.024953471502485" lon="7.081697013144353"><ele>477.33333333333337</ele><time>2026-04-17T13:21:12Z</time></trkpt><trkpt lat="48.02500017974221" lon="7.081761477452953"><ele>477.0</ele><time>2026-04-17T13:21:14Z</time></trkpt><trkpt lat="48.025050967116684" lon="7.081844179862205"><ele>476.66666666666663</ele><time>2026-04-17T13:21:16Z</time></trkpt><trkpt lat="48.0251037378756" lon="7.0819322648562295"><ele>476.3333333333333</ele><time>2026-04-17T13:21:18Z</time></trkpt><trkpt lat="48.025156467428516" lon="7.082034216384806"><ele>476.0</ele><time>2026-04-17T13:21:20Z</time></trkpt><trkpt lat="48.025210671179856" lon="7.082130500258173"><ele>475.99999999999994</ele><time>2026-04-17T13:21:22Z</time></trkpt><trkpt lat="48.02526177278664" lon="7.082225514845217"><ele>476.0</ele><time>2026-04-17T13:21:24Z</time></trkpt><trkpt lat="48.025322438351814" lon="7.0823191455661805"><ele>476.0</ele><time>2026-04-17T13:21:26Z</time></trkpt><trkpt lat="48.02536491943014" lon="7.0824263906646605"><ele>476.0</ele><time>2026-04-17T13:21:28Z</time></trkpt><trkpt lat="48.02541326287305" lon="7.082544693545426"><ele>475.99999999999994</ele><time>2026-04-17T13:21:30Z</time></trkpt><trkpt lat="48.02545903951631" lon="7.08267333483285"><ele>476.0</ele><time>2026-04-17T13:21:32Z</time></trkpt><trkpt lat="48.02548182932454" lon="7.082835968247352"><ele>475.8333333333333</ele><time>2026-04-17T13:21:34Z</time></trkpt><trkpt lat="48.02550247905725" lon="7.0830145243414036"><ele>475.66666666666663</ele><time>2026-04-17T13:21:36Z</time></trkpt><trkpt lat="48.025517926891034" lon="7.083117024381168"><ele>475.5</ele><time>2026-04-17T13:21:37Z</time></trkpt><trkpt lat="48.02551995026955" lon="7.083222890554534"><ele>475.33333333333337</ele><time>2026-04-17T13:21:38Z</time></trkpt><trkpt lat="48.025527217907054" lon="7.083328506187435"><ele>475.1666666666667</ele><time>2026-04-17T13:21:39Z</time></trkpt><trkpt lat="48.025512305599804" lon="7.083434491236906"><ele>475.0</ele><time>2026-04-17T13:21:40Z</time></trkpt><trkpt lat="48.025498402691696" lon="7.083546916621082"><ele>474.33333333333337</ele><time>2026-04-17T13:21:41Z</time></trkpt><trkpt lat="48.02549975043944" lon="7.083652353897395"><ele>473.6666666666667</ele><time>2026-04-17T13:21:42Z</time></trkpt><trkpt lat="48.025494585064685" lon="7.083779101545522"><ele>473.0</ele><time>2026-04-17T13:21:43Z</time></trkpt><trkpt lat="48.0254880757723" lon="7.0839023575516"><ele>472.33333333333337</ele><time>2026-04-17T13:21:44Z</time></trkpt><trkpt lat="48.025483905199714" lon="7.084029674032748"><ele>471.6666666666667</ele><time>2026-04-17T13:21:45Z</time></trkpt><trkpt lat="48.025476357762315" lon="7.084156194180174"><ele>471.0</ele><time>2026-04-17T13:21:46Z</time></trkpt><trkpt lat="48.02546983945889" lon="7.084283327302477"><ele>470.0</ele><time>2026-04-17T13:21:47Z</time></trkpt><trkpt lat="48.025465399155614" lon="7.084413119852435"><ele>469.0</ele><time>2026-04-17T13:21:48Z</time></trkpt><trkpt lat="48.02546360315899" lon="7.08454280397846"><ele>468.0</ele><time>2026-04-17T13:21:49Z</time></trkpt><trkpt lat="48.025465618633554" lon="7.084666711220211"><ele>467.0</ele><time>2026-04-17T13:21:50Z</time></trkpt><trkpt lat="48.02546549488732" lon="7.084791398798167"><ele>466.0</ele><time>2026-04-17T13:21:51Z</time></trkpt><trkpt lat="48.025472420078195" lon="7.0849199773944544"><ele>465.0</ele><time>2026-04-17T13:21:52Z</time></trkpt><trkpt lat="48.0254667595731" lon="7.085049754481885"><ele>464.2</ele><time>2026-04-17T13:21:53Z</time></trkpt><trkpt lat="48.02545357378411" lon="7.085182122582628"><ele>463.4</ele><time>2026-04-17T13:21:54Z</time></trkpt><trkpt lat="48.02543729404164" lon="7.085316843829864"><ele>462.6</ele><time>2026-04-17T13:21:55Z</time></trkpt><trkpt lat="48.025412173031405" lon="7.0854586902511745"><ele>461.8</ele><time>2026-04-17T13:21:56Z</time></trkpt><trkpt lat="48.02537898249816" lon="7.085607028319801"><ele>461.0</ele><time>2026-04-17T13:21:57Z</time></trkpt><trkpt lat="48.02534269718861" lon="7.085754534795216"><ele>460.6</ele><time>2026-04-17T13:21:58Z</time></trkpt><trkpt lat="48.02530143324283" lon="7.085904638607296"><ele>460.20000000000005</ele><time>2026-04-17T13:21:59Z</time></trkpt><trkpt lat="48.02525726783388" lon="7.086047468423532"><ele>459.79999999999995</ele><time>2026-04-17T13:22:00Z</time></trkpt><trkpt lat="48.02521407550271" lon="7.086173844815331"><ele>459.4</ele><time>2026-04-17T13:22:01Z</time></trkpt><trkpt lat="48.025174635823184" lon="7.086273600007349"><ele>459.0</ele><time>2026-04-17T13:22:02Z</time></trkpt><trkpt lat="48.025134416887504" lon="7.086375717565133"><ele>459.0</ele><time>2026-04-17T13:22:03Z</time></trkpt><trkpt lat="48.025078266682385" lon="7.0864618514509266"><ele>459.0</ele><time>2026-04-17T13:22:04Z</time></trkpt><trkpt lat="48.02501548040525" lon="7.086538204633998"><ele>459.0</ele><time>2026-04-17T13:22:05Z</time></trkpt><trkpt lat="48.024938847741545" lon="7.086594182683866"><ele>459.0</ele><time>2026-04-17T13:22:06Z</time></trkpt><trkpt lat="48.02486860566305" lon="7.0866440123657695"><ele>459.0</ele><time>2026-04-17T13:22:07Z</time></trkpt><trkpt lat="48.02479361591701" lon="7.086708330658877"><ele>459.0</ele><time>2026-04-17T13:22:08Z</time></trkpt><trkpt lat="48.02472867008328" lon="7.086765202716438"><ele>457.8333333333333</ele><time>2026-04-17T13:22:09Z</time></trkpt><trkpt lat="48.02467790312609" lon="7.086823821999679"><ele>456.66666666666663</ele><time>2026-04-17T13:22:10Z</time></trkpt><trkpt lat="48.02464052885135" lon="7.0870029802931125"><ele>455.5</ele><time>2026-04-17T13:22:12Z</time></trkpt><trkpt lat="48.0246391168604" lon="7.08711499085123"><ele>454.3333333333333</ele><time>2026-04-17T13:22:13Z</time></trkpt><trkpt lat="48.024646688419864" lon="7.087232148953995"><ele>453.16666666666663</ele><time>2026-04-17T13:22:14Z</time></trkpt><trkpt lat="48.024649614973285" lon="7.087348574235968"><ele>452.0</ele><time>2026-04-17T13:22:15Z</time></trkpt><trkpt lat="48.024654809313645" lon="7.087456773453671"><ele>450.0</ele><time>2026-04-17T13:22:16Z</time></trkpt><trkpt lat="48.02465986445035" lon="7.087560331932408"><ele>450.0</ele><time>2026-04-17T13:22:17Z</time></trkpt><trkpt lat="48.024668867761" lon="7.087695784972565"><ele>450.0</ele><time>2026-04-17T13:22:19Z</time></trkpt><trkpt lat="48.024657902996765" lon="7.087815588440697"><ele>450.0</ele><time>2026-04-17T13:22:21Z</time></trkpt><trkpt lat="48.024570448608976" lon="7.087757328858586"><ele>450.0</ele><time>2026-04-17T13:22:26Z</time></trkpt><trkpt lat="48.02454875405427" lon="7.087643093883156"><ele>450.0</ele><time>2026-04-17T13:22:30Z</time></trkpt></trkseg></trk></gpx>